[[{"header":{"parameterUnit":"m.s-1","parameterCategory":1,"la1":31.0,"la2":29.5877,"lo1":-88.7671,"lo2":-86.6584,"dy":0.0162,"dx":0.0185,"nx":115,"ny":88,"refTime":"2024-05-18T18:00:00:Z","depth":0,"parameterNumber":2,"parameterNumberName":"U-component_of_WINDS"},"data":[0.0,0.0,0.0,0.0,0.0,0.0,0.0,0.0,0.0,0.0,0.0,0.0,0.0,0.0,0.0,0.0,0.0,0.0,0.0,0.0,0.0,0.0,0.0,0.0,0.0,0.0,0.0,0.0,0.0,0.0,0.0,0.0,0.0,0.0,0.0,0.0,0.0,0.0,0.0,0.0,0.0,0.0,0.0,0.0,0.0,0.0,0.0,0.0,0.0,0.0,0.0,0.0,0.0,0.0,0.0,0.0,0.0,0.0,0.0,0.0,0.0,0.0,0.0,0.0,0.0,0.0,0.0,0.0,0.0,0.0,0.0,0.0,0.0,0.0,0.0,0.0,0.0,0.0,0.0,0.0,0.0,0.0,0.0,0.0,0.0,0.0,0.0,0.0,0.0,0.0,0.0,0.0,0.0,0.0,0.0,0.0,0.0,0.0,0.0,0.0,0.0,0.0,0.0,0.0,0.0,0.0,0.0,0.0,0.0,0.0,0.0,0.0,0.0,0.0,0.0,0.0,0.0,0.0,0.0,0.0,0.0,0.0,0.0,0.0,0.0,0.0,0.0,0.0,0.0,0.0,0.0,0.0,0.0,0.0,0.0,0.0,0.0,0.0,0.0,0.0,0.0,0.0,0.0,0.0,0.0,0.0,0.0,0.0,0.0,0.0,0.0,0.0,0.0,0.0,0.0,0.0,0.0,0.0,0.0,0.0,0.0,0.0,0.0,0.0,0.0,0.0,0.0,0.0,0.0,0.0,0.0,0.0,0.0,0.0,0.0,0.0,0.0,0.0,0.0,0.0,0.0,0.0,0.0,0.0,0.0,0.0,0.0,0.0,0.0,0.0,0.0,0.0,0.0,0.0,0.0,0.0,0.0,0.0,0.0,0.0,0.0,0.0,0.0,0.0,0.0,0.0,0.0,0.0,0.0,0.0,0.0,0.0,0.0,0.0,0.0,0.0,0.0,0.0,0.0,0.0,0.0,0.0,0.0,0.0,0.0,0.0,0.0,0.0,0.0,0.0,0.0,0.0,0.0,0.0,0.0,0.0,0.0,0.0,0.0,0.0,0.0,0.0,0.0,0.0,0.0,0.0,0.0,0.0,0.0,0.0,0.0,0.0,0.0,0.0,0.0,0.0,0.0,0.0,0.0,0.0,0.0,0.0,0.0,0.0,0.0,0.0,0.0,0.0,0.0,0.0,0.0,0.0,0.0,0.0,0.0,0.0,0.0,0.0,0.0,0.0,0.0,0.0,0.0,0.0,0.0,0.0,0.0,0.0,0.0,0.0,0.0,0.0,0.0,0.0,0.0,0.0,0.0,0.0,0.0,0.0,0.0,0.0,0.0,0.0,0.0,0.0,0.0,0.0,0.0,0.0,0.0,0.0,0.0,0.0,0.0,0.0,0.0,0.0,0.0,0.0,0.0,0.0,0.0,0.0,0.0,0.0,0.0,0.0,0.0,0.0,0.0,0.0,0.0,0.0,0.0,0.0,0.0,0.0,0.0,0.0,0.0,0.0,0.0,0.0,0.0,0.0,0.0,0.0,0.0,0.0,0.0,0.0,0.0,0.0,0.0,0.0,0.0,0.0,0.0,0.0,0.0,0.0,0.0,0.0,0.0,0.0,0.0,0.0,0.0,0.0,0.0,0.0,0.0,0.0,0.0,0.0,0.0,0.0,0.0,0.0,0.0,0.0,0.0,0.0,0.0,0.0,0.0,0.0,0.0,0.0,0.0,0.0,0.0,0.0,0.0,0.0,0.0,0.0,0.0,0.0,0.0,0.0,0.0,0.0,0.0,0.0,0.0,0.0,0.0,0.0,0.0,0.0,0.0,0.0,0.0,0.0,0.0,0.0,0.0,0.0,0.0,0.0,0.0,0.0,0.0,0.0,0.0,0.0,0.0,0.0,0.0,0.0,0.0,0.0,0.0,0.0,0.0,0.0,0.0,0.0,0.0,0.0,0.0,0.0,0.0,0.0,0.0,0.0,0.0,0.0,0.0,0.0,0.0,0.0,0.0,0.0,0.0,0.0,0.0,0.0,0.0,0.0,0.0,0.0,0.0,0.0,0.0,0.0,0.0,0.0,0.0,0.0,0.0,0.0,0.0,0.0,0.0,0.0,0.0,0.0,0.0,0.0,0.0,0.0,0.0,0.0,0.0,0.0,0.0,0.0,0.0,0.0,0.0,0.0,0.0,0.0,0.0,0.0,0.0,0.0,0.0,0.0,0.0,0.0,0.0,0.0,0.0,0.0,0.0,0.0,0.0,0.0,0.0,0.0,0.0,0.0,0.0,0.0,0.0,0.0,0.0,0.0,0.0,0.0,0.0,0.0,0.0,0.0,0.0,0.0,0.0,0.0,0.0,0.0,0.0,0.0,0.0,0.0,0.0,0.0,0.0,0.0,0.0,0.0,0.0,0.0,0.0,0.0,0.0,0.0,0.0,0.0,0.0,0.0,0.0,0.0,0.0,0.0,0.0,0.0,0.0,0.0,0.0,0.0,0.0,0.0,0.0,0.0,0.0,0.0,0.0,0.0,0.0,0.0,0.0,0.0,0.0,0.0,0.0,0.0,0.0,0.0,0.0,0.0,0.0,0.0,0.0,0.0,0.0,0.0,0.0,0.0,0.0,0.0,0.0,0.0,0.0,0.0,0.0,0.0,0.0,0.0,0.0,0.0,0.0,0.0,0.0,0.0,0.0,0.0,0.0,0.0,0.0,0.0,0.0,0.0,0.0,0.0,0.0,0.0,0.0,0.0,0.0,0.0,0.0,0.0,0.0,0.0,0.0,0.0,0.0,0.0,0.0,0.0,0.0,0.0,0.0,0.0,0.0,0.0,0.0,0.0,0.0,0.0,0.0,0.0,0.0,0.0,0.0,0.0,0.0,0.0,0.0,0.0,0.0,0.0,0.0,0.0,0.0,0.0,0.0,0.0,0.0,0.0,0.0,0.0,0.0,0.0,0.0,0.0,0.0,0.0,0.0,0.0,0.0,0.0,0.0,0.0,0.0,0.0,0.0,0.0,0.0,0.0,0.0,0.0,0.0,0.0,0.0,0.0,0.0,0.0,0.0,0.0,0.0,0.0,0.0,0.0,0.0,0.0,0.0,0.0,0.0,0.0,0.0,0.0,0.0,0.0,0.0,0.0,0.0,0.0,0.0,0.0,0.0,0.0,0.0,0.0,0.0,0.0,0.0,0.0,0.0,0.0,0.0,0.0,0.0,0.0,0.0,0.0,0.0,0.0,0.0,0.0,0.0,0.0,0.0,0.0,0.0,0.0,0.0,0.0,0.0,0.0,0.0,0.0,0.0,0.0,0.0,0.0,0.0,0.0,0.0,0.0,0.0,0.0,0.0,0.0,0.0,0.0,0.0,0.0,0.0,0.0,0.0,0.0,0.0,0.0,0.0,0.0,0.0,0.0,0.0,0.0,0.0,0.0,0.0,0.0,0.0,0.0,0.0,0.0,0.0,0.0,0.0,0.0,0.0,0.0,0.0,0.0,0.0,0.0,0.0,0.0,0.0,0.0,0.0,0.0,0.0,0.0,0.0,0.0,0.0,0.0,0.0,0.0,0.0,0.0,0.0,0.0,0.0,0.0,0.0,0.0,0.0,0.0,0.0,0.0,0.0,0.0,0.0,0.0,0.0,0.0,0.0,0.0,0.0,0.0,0.0,0.0,0.0,0.0,0.0,0.0,0.0,0.0,0.0,0.0,0.0,0.0,0.0,0.0,0.0,0.0,0.0,0.0,0.0,0.0,0.0,0.0,0.0,0.0,0.0,0.0,0.0,0.0,0.0,0.0,0.0,0.0,0.0,0.0,0.0,0.0,0.0,0.0,0.0,0.0,0.0,0.0,0.0,0.0,0.0,0.0,0.0,0.0,0.0,0.0,0.0,0.0,0.0,0.0,0.0,0.0,0.0,0.0,0.0,0.0,0.0,0.0,0.0,0.0,0.0,0.0,0.0,0.0,0.0,0.0,0.0,0.0,0.0,0.0,0.0,0.0,0.0,0.0,0.0,0.0,0.0,0.0,0.0,0.0,0.0,0.0,0.0,0.0,0.0,0.0,0.0,0.0,0.0,0.0,0.0,0.0,0.0,0.0,0.0,0.0,0.0,0.0,0.0,0.0,0.0,0.0,0.0,0.0,0.0,0.0,0.0,0.0,0.0,0.0,0.0,0.0,0.0,0.0,0.0,0.0,0.0,0.0,0.0,0.0,0.0,0.0,0.0,0.0,0.0,0.0,0.0,0.0,0.0,0.0,0.0,0.0,0.0,0.0,0.8466,0.0,0.0,0.0,0.0,0.0,0.0,0.0,0.0,0.0,0.0,0.0,0.0,0.0,0.0,0.0,0.0,0.0,0.0,0.0,0.0,0.0,0.0,0.0,0.0,0.0,0.0,0.0,0.0,0.0,0.0,0.0,0.0,0.0,0.0,0.0,0.0,0.0,0.0,0.0,0.0,0.0,0.0,0.0,0.0,0.0,0.0,0.0,0.0,0.0,0.0,0.0,0.0,0.0,0.0,0.0,0.0,0.0,0.0,0.0,0.0,0.0,0.0,0.0,0.0,0.0,0.0,0.0,0.0,0.0,0.0,0.0,0.0,0.0,0.0,0.0,0.0,0.0,0.0,0.0,0.0,0.0,0.0,0.0,0.0,0.0,0.0,0.0,0.0,0.0,0.0,0.0,0.0,0.0,0.0,0.0,0.0,0.0,0.0,0.0,0.0,0.0,0.0,0.0,0.0,0.0,0.0,0.0,0.0,0.0,0.0,0.8432,0.916,0.8084,0.7446,0.7346,0.0,0.0,0.0,0.0,0.0,0.0,0.0,0.0,0.0,0.0,0.0,0.0,0.0,0.0,0.0,0.0,0.0,0.0,0.0,0.0,0.0,0.0,0.0,0.0,0.0,0.0,0.0,0.0,0.0,0.0,0.0,0.0,0.0,0.0,0.0,0.0,0.0,0.0,0.0,0.0,0.0,0.0,0.0,0.0,0.0,0.0,0.0,0.0,0.0,0.0,0.0,0.0,0.0,0.0,0.0,0.0,0.0,0.0,0.0,0.0,0.0,0.0,0.0,0.0,0.0,0.0,0.0,0.0,0.0,0.0,0.0,0.0,0.0,0.0,0.0,0.0,0.0,0.0,0.0,0.0,0.0,0.0,0.0,0.0,0.0,0.0,0.0,0.0,0.0,0.0,0.0,0.0,0.0,0.0,0.0,0.0,0.0,0.0,0.0,0.0,0.0,0.0,0.0,0.0,0.0,0.0,0.0,0.0,0.0,0.0,0.0,0.0,0.812,0.738,0.6562,0.0,0.0,0.0,0.0,0.0,0.0,0.0,0.0,0.0,0.0,0.0,0.0,0.0,0.0,0.0,0.0,0.0,0.0,0.0,0.0,0.0,0.0,0.0,0.0,0.0,0.0,0.0,0.0,0.0,0.0,0.0,0.0,0.0,0.0,0.0,0.0,0.0,0.0,0.0,0.0,0.0,0.0,0.0,0.0,0.0,0.0,0.0,0.0,0.0,0.0,0.0,0.0,0.0,0.0,0.0,0.0,0.0,0.0,0.0,0.0,0.0,0.0,0.0,0.0,0.0,0.0,0.0,0.0,0.0,0.0,0.0,0.0,0.0,0.0,0.0,0.0,0.0,0.0,0.0,0.0,0.0,0.0,0.0,0.0,0.0,0.0,0.0,0.0,0.0,0.0,0.0,0.0,0.0,0.0,0.0,0.0,0.0,0.0,0.0,0.0,0.0,0.0,0.0,0.0,0.0,0.0,0.0,0.0,0.0,0.0,0.7871,0.8674,0.867,0.0,0.7511,0.0,0.0,0.0,0.0,0.0,0.0,0.0,0.0,0.0,0.0,0.0,0.0,0.0,0.0,0.0,0.0,0.0,0.0,0.0,0.0,0.0,0.0,0.0,0.0,0.0,0.0,0.0,0.0,0.0,0.0,0.0,0.0,0.0,0.0,0.0,0.0,0.0,0.0,0.0,0.0,0.0,0.0,0.0,0.0,0.0,0.0,0.0,0.0,0.0,0.0,0.0,0.0,0.0,0.0,0.0,0.0,0.0,0.0,0.0,0.0,0.0,0.0,0.0,0.0,0.0,0.0,0.0,0.0,0.0,0.0,0.0,0.0,0.0,0.0,0.0,0.0,0.0,0.0,0.0,0.0,0.0,0.0,0.0,0.0,0.0,0.0,0.0,0.0,0.0,0.0,0.0,0.0,0.0,0.0,0.0,0.0,0.0,0.0,0.0,0.0,0.0,0.0,0.0,0.0,0.0,0.0,0.0,0.0,0.0,0.0,0.0,0.804,0.7584,0.7397,0.0,0.0,0.0,0.0,0.0,0.0,0.0,0.0,0.0,0.0,0.0,0.0,0.0,0.0,0.0,0.0,0.0,0.0,0.0,0.0,0.0,0.0,0.0,0.0,0.0,0.0,0.0,0.0,0.0,0.0,0.0,0.0,0.0,0.0,0.0,0.0,0.0,0.0,0.0,0.0,0.0,0.0,0.0,0.0,0.0,0.0,0.0,0.0,0.0,0.0,0.0,0.0,0.0,0.0,0.0,0.0,0.0,0.0,0.0,0.0,0.0,0.0,0.0,0.0,0.0,0.0,0.0,0.0,0.0,0.0,0.0,0.0,0.0,0.0,0.0,0.0,0.0,0.0,0.0,0.0,0.0,0.0,0.0,0.0,0.0,0.0,0.0,0.0,0.0,0.0,0.0,0.0,0.0,0.0,0.0,0.0,0.0,0.0,0.0,0.0,0.0,0.0,0.0,0.0,0.0,0.0,0.0,0.0,0.0,0.0,0.7323,0.0,0.7935,0.7141,0.6871,0.7253,0.0,0.0,0.0,0.0,0.0,0.0,0.0,0.0,0.0,0.0,0.0,0.0,0.0,0.0,0.0,0.0,0.0,0.0,0.0,0.0,0.0,0.0,0.0,0.0,0.0,0.0,0.0,0.0,0.0,0.0,0.0,0.0,0.0,0.0,0.0,0.0,0.0,0.0,0.0,0.0,0.0,0.0,0.0,0.0,0.0,0.0,0.0,0.0,0.0,0.0,0.0,0.0,0.0,0.0,0.0,0.0,0.0,0.0,0.0,0.0,0.0,0.0,0.0,0.0,0.0,0.0,0.0,0.0,0.0,0.0,0.0,0.0,0.0,0.0,0.0,0.0,0.0,0.0,0.0,0.0,0.0,0.0,0.0,0.0,0.0,0.0,0.0,0.0,0.0,0.0,0.0,0.0,0.0,0.0,0.0,0.0,0.0,0.0,0.0,0.0,0.0,0.0,0.0,0.0,0.0,0.0,0.0,0.0,0.0,0.7681,0.8109,0.889,0.808,0.7282,0.0,0.0,0.0,0.0,0.0,0.0,0.0,0.0,0.0,0.0,0.0,0.0,0.0,0.0,0.0,0.0,0.0,0.0,0.0,0.0,0.0,0.0,0.0,0.0,0.0,0.0,0.0,0.0,0.0,0.0,0.0,0.0,0.0,0.0,0.0,0.0,0.0,0.0,0.0,0.0,0.0,0.0,0.0,0.0,0.0,0.0,0.0,0.0,0.0,0.0,0.0,0.0,0.0,0.0,0.0,0.0,0.0,0.0,0.0,0.0,0.0,0.0,0.0,0.0,0.0,0.0,0.0,0.0,0.0,0.0,0.0,0.0,0.0,0.0,0.0,0.0,0.0,0.0,0.0,0.0,0.0,0.0,0.0,0.0,0.0,0.0,0.0,0.0,0.0,0.0,0.0,0.0,0.0,0.0,0.0,0.0,0.0,0.0,0.0,0.0,0.0,0.0,0.0,0.0,0.0,0.0,0.0,0.0,0.0,0.6823,0.7417,0.8377,0.9648,0.7891,0.6953,0.0,0.0,0.0,0.0,0.0,0.0,0.0,0.0,0.0,0.0,0.0,0.0,0.0,0.0,0.0,0.0,0.0,0.0,0.0,0.0,0.0,0.0,0.0,0.0,0.0,0.0,0.0,0.0,0.0,0.0,0.0,0.0,0.0,0.0,0.0,0.0,0.0,0.0,0.0,0.0,0.0,0.0,0.0,0.0,0.0,0.0,0.0,0.0,0.0,0.0,0.0,0.0,0.0,0.0,0.0,0.0,0.0,0.0,0.0,0.0,0.0,0.0,0.0,0.0,0.0,0.0,0.0,0.0,0.0,0.0,0.0,0.0,0.0,0.0,0.0,0.0,0.0,0.0,0.0,0.0,0.0,0.0,0.0,0.0,0.0,0.0,0.0,0.0,0.0,0.0,0.0,0.0,0.0,0.0,0.0,0.0,0.0,0.0,0.0,0.0,0.0,0.0,0.0,0.0,0.0,0.0,0.0,0.0,0.0,0.7158,0.0,0.8595,0.0,0.7808,0.6902,0.0,0.0,0.0,0.0,0.0,0.0,0.0,0.0,0.0,0.0,0.0,0.0,0.0,0.0,0.0,0.0,0.0,0.0,0.0,0.0,0.0,0.0,0.0,0.0,0.0,0.0,0.0,0.0,0.0,0.0,0.0,0.0,0.0,0.0,0.0,0.0,0.0,0.0,0.0,0.0,0.0,0.0,0.0,0.0,0.0,0.0,0.0,0.0,0.0,0.0,0.0,0.0,0.0,0.0,0.0,0.0,0.0,0.0,0.0,0.0,0.0,0.0,0.0,0.0,0.0,0.0,0.0,0.0,0.0,0.0,0.0,0.0,0.0,0.0,0.0,0.0,0.0,0.0,0.0,0.0,0.0,0.0,0.0,0.0,0.0,0.0,0.0,0.0,0.0,0.0,0.0,0.0,0.0,0.0,0.0,0.0,0.0,0.0,0.0,0.0,0.0,0.0,0.0,0.0,0.0,0.0,0.0,0.0,0.8045,0.8727,0.8722,0.8807,0.8833,0.7974,0.7185,0.0,0.0,0.0,0.0,0.0,0.0,0.0,0.0,0.0,0.0,0.0,0.0,0.0,0.0,0.0,0.0,0.0,0.0,0.0,0.0,0.0,0.0,0.0,0.0,0.0,0.0,0.0,0.0,0.0,0.0,0.0,0.0,0.0,0.0,0.0,0.0,0.0,0.0,0.0,0.0,0.0,0.0,0.0,0.0,0.0,0.0,0.0,0.0,0.0,0.0,0.0,0.0,0.0,0.0,0.0,0.0,0.0,0.0,0.0,0.0,0.0,0.0,0.0,0.0,0.0,0.0,0.0,0.0,0.0,0.0,0.0,0.0,0.0,0.0,0.0,0.0,0.0,0.0,0.0,0.0,0.0,0.0,0.0,0.0,0.0,0.0,0.0,0.0,0.0,0.0,0.0,0.0,0.0,0.0,0.0,0.0,0.0,0.0,0.0,0.0,0.0,0.0,0.0,0.0,0.0,0.0,0.0,0.0,0.0,0.8732,0.9086,0.9806,1.0867,0.86,0.7943,0.0,0.0,0.0,0.0,0.0,0.0,0.0,0.0,0.0,0.0,0.0,0.0,0.0,0.0,0.0,0.0,0.0,0.0,0.0,0.0,0.0,0.0,0.0,0.0,0.0,0.0,0.0,0.0,0.0,0.0,0.0,0.0,0.0,0.0,0.0,0.0,0.0,0.0,0.0,0.0,0.0,0.0,0.0,0.0,0.0,0.0,0.0,0.0,0.0,0.0,0.0,0.0,0.0,0.0,0.0,0.0,0.0,0.0,0.0,0.0,0.0,0.0,0.0,0.0,0.0,0.0,0.0,0.0,0.0,0.0,0.0,0.0,0.0,0.0,0.0,0.0,0.0,0.0,0.0,0.0,0.0,0.0,0.0,0.0,0.0,0.0,0.0,0.0,0.0,0.0,0.0,0.0,0.0,0.0,0.0,0.0,0.0,0.0,0.0,0.0,0.0,0.0,0.0,0.0,0.0,0.0,0.0,0.0,0.0,0.8867,0.9583,1.0477,1.1486,0.9433,0.8672,0.9376,0.0,0.0,0.0,0.0,0.0,0.0,0.0,0.0,0.0,0.0,0.0,0.0,0.0,0.0,0.0,0.0,0.0,0.0,0.0,0.0,0.0,0.0,0.0,0.0,0.0,0.0,0.0,0.0,0.0,0.0,0.0,0.0,0.0,0.0,0.0,0.0,0.0,0.0,0.0,0.0,0.0,0.0,0.0,0.0,0.0,0.0,0.0,0.0,0.0,0.0,0.0,0.0,0.0,0.0,0.0,0.0,0.0,0.0,0.0,0.0,0.0,0.0,0.0,0.0,0.0,0.0,0.0,0.0,0.0,0.0,0.0,0.0,0.0,0.0,0.0,0.0,0.0,0.0,0.0,0.0,0.0,0.0,0.0,0.0,0.0,0.0,0.0,0.0,0.0,0.0,0.0,0.0,0.0,0.0,0.0,0.0,0.0,0.0,0.0,0.0,0.0,0.0,0.0,0.0,0.0,0.0,0.0,0.0,0.9039,1.0187,1.0821,1.0864,1.0401,0.938,0.0,0.0,0.0,0.0,0.0,0.0,0.0,0.0,0.0,0.0,0.0,0.0,0.0,0.0,0.0,0.0,0.0,0.0,0.0,0.0,0.0,0.0,0.0,0.0,0.0,0.0,0.0,0.0,0.0,0.0,0.0,0.0,0.0,0.0,0.0,0.0,0.0,0.0,0.0,0.0,0.0,0.0,0.0,0.0,0.0,0.0,0.0,0.0,0.0,0.0,0.0,0.0,0.0,0.0,0.0,0.0,0.0,0.0,0.0,0.0,0.0,0.0,0.0,0.0,0.0,0.0,0.0,0.0,0.0,0.0,0.0,0.0,0.0,0.0,0.0,0.0,0.0,0.0,0.0,0.0,0.0,0.0,0.0,0.0,0.0,0.0,0.0,0.0,0.0,0.0,0.0,0.0,0.0,0.0,0.0,0.0,0.0,0.0,0.0,0.0,0.0,0.0,0.0,0.0,0.0,0.0,0.0,0.0,0.0,0.9207,1.0288,1.1417,1.2523,1.0821,1.0127,0.0,0.0,0.0,0.0,0.0,0.0,0.0,0.0,0.0,0.0,0.0,0.0,0.0,0.0,0.0,0.0,0.0,0.0,0.0,0.0,0.0,0.0,0.0,0.0,0.0,0.0,0.0,0.0,0.0,0.0,0.0,0.0,0.0,0.0,0.0,0.0,0.0,0.0,0.0,0.0,0.0,0.0,0.0,0.0,0.0,0.0,0.0,0.0,0.0,0.0,0.0,0.0,0.0,0.0,0.0,0.0,0.0,0.0,0.0,0.0,0.0,0.0,0.0,0.0,0.0,0.0,0.0,0.0,0.0,0.0,0.0,0.0,0.0,0.0,0.0,0.0,0.0,0.0,0.0,0.0,0.0,0.0,0.0,0.0,0.0,0.0,0.0,0.0,0.0,0.0,0.0,0.0,0.0,0.0,0.0,0.0,0.0,0.0,0.0,0.0,0.0,0.0,0.0,0.0,0.0,0.0,0.0,0.0,0.7565,0.8079,0.9674,1.0888,1.1682,1.0848,1.0221,0.0,0.0,0.0,0.0,0.0,0.0,0.0,0.0,0.0,0.0,0.0,0.0,0.0,0.0,0.0,0.0,0.0,0.0,0.0,0.0,0.0,0.0,0.0,0.0,0.0,0.0,0.0,0.0,0.0,0.0,0.0,0.0,0.0,0.0,0.0,0.0,0.0,0.0,0.0,0.0,0.0,0.0,0.0,0.0,0.0,0.0,0.0,0.0,0.0,0.0,0.0,0.0,0.0,0.0,0.0,0.0,0.0,0.0,0.0,0.0,0.0,0.0,0.0,0.0,0.0,0.0,0.0,0.0,0.0,0.0,0.0,0.0,0.0,0.0,0.0,0.0,0.0,0.0,0.0,0.0,0.0,0.0,0.0,0.0,0.0,0.0,0.0,0.0,0.0,0.0,0.0,0.0,0.0,0.0,0.0,0.0,0.0,0.0,0.0,0.0,0.0,0.0,0.0,0.0,0.0,0.0,0.0,0.0,0.6746,0.6135,0.8398,0.946,0.9233,1.0322,0.9728,0.0,0.0,0.0,0.0,0.0,0.0,0.0,0.0,0.0,0.0,0.0,0.0,0.0,0.0,0.0,0.0,0.0,0.0,0.0,0.0,0.0,0.0,0.0,0.0,0.0,0.0,0.0,0.0,0.0,0.0,0.0,0.0,0.0,0.0,0.0,0.0,0.0,0.0,0.0,0.0,0.0,0.0,0.0,0.0,0.0,0.0,0.0,0.0,0.0,0.0,0.0,0.0,0.0,0.0,0.0,0.0,0.0,0.0,0.0,0.0,0.0,0.0,0.0,0.0,0.0,0.0,0.0,0.0,0.0,0.0,0.0,0.0,0.0,0.0,0.0,0.0,0.0,0.0,0.0,0.0,0.0,0.0,0.0,0.0,0.0,0.0,0.0,0.0,0.0,0.0,0.0,0.0,0.0,0.0,0.0,0.0,0.0,0.0,0.0,0.0,0.0,0.0,0.0,0.0,0.0,0.0,0.0,0.0,0.4557,0.4092,0.6283,0.7393,0.7239,0.7874,0.7861,0.0,0.0,0.0,0.0,0.0,0.0,0.0,0.0,0.0,0.0,0.0,0.0,0.0,0.0,0.0,0.0,0.0,0.0,0.0,0.0,0.0,0.0,0.0,0.0,0.0,0.0,0.0,0.0,0.0,0.0,0.0,0.0,0.0,0.0,0.0,0.0,0.0,0.0,0.0,0.0,0.0,0.0,0.0,0.0,0.0,0.0,0.0,0.0,1.2421,0.0,0.0,0.0,0.0,0.0,0.0,0.0,0.0,0.0,0.0,0.0,0.0,0.0,0.0,0.0,0.0,0.0,0.0,0.0,0.0,0.0,0.0,0.0,0.0,0.0,0.0,0.0,0.0,0.0,0.0,0.0,0.0,0.0,0.0,0.0,0.0,0.0,0.0,0.0,0.0,0.0,0.0,0.0,0.0,0.0,0.0,0.0,0.0,0.0,0.0,0.0,0.0,0.0,0.0,0.0,0.0,0.0,0.0,0.0,0.27,0.2156,0.4323,0.5475,0.5279,0.5444,0.5719,0.0,0.0,0.0,0.0,0.0,0.0,0.0,0.0,0.0,0.0,0.0,0.0,0.0,0.0,0.0,0.0,0.0,0.0,0.0,0.0,0.0,0.0,0.0,0.0,0.0,0.0,0.0,0.0,0.0,0.0,0.0,0.0,0.0,0.0,0.0,0.0,0.0,0.0,0.0,0.0,0.0,0.0,0.0,0.0,0.0,0.0,0.0,0.0,0.0,0.0,0.0,0.0,0.0,0.0,0.0,0.0,0.0,0.0,0.0,0.0,0.0,0.0,0.0,0.0,0.0,0.0,0.0,0.0,0.0,0.0,0.0,0.0,0.0,0.0,0.0,0.0,0.0,0.0,0.0,0.0,0.0,0.0,0.0,0.0,0.0,0.0,0.0,0.0,0.0,0.0,0.0,0.0,0.0,0.0,0.0,0.0,0.0,0.0,0.0,0.0,0.0,0.0,0.0,0.0,0.0,0.0,0.0,0.0887,0.0978,0.0401,0.242,0.3448,0.3329,0.3126,0.335,0.412,0.0,0.0,0.0,0.0,0.0,0.0,0.0,0.0,0.0,0.0,0.0,0.0,0.0,0.0,0.0,0.0,0.0,0.0,0.0,0.0,0.0,0.0,0.0,0.0,0.0,0.0,0.0,0.0,0.0,0.0,0.0,0.0,0.0,0.0,0.0,0.0,0.0,0.0,0.9372,0.9721,0.0,0.0,0.0,0.0,0.0,0.0,0.0,0.0,0.9589,0.0,0.0,0.0,0.0,0.0,0.0,0.0,0.0,0.0,0.0,0.0,0.0,0.0,0.0,0.0,0.0,0.0,0.0,0.0,0.0,0.0,0.0,0.0,0.0,0.0,0.0,0.0,0.0,0.0,0.0,0.0,0.0,0.0,0.0,0.0,0.0,0.0,0.0,0.0,0.0,0.0,0.0,0.0,0.0,0.0,0.0,0.0,0.0,0.0,0.0,0.0,0.0,0.0,0.0,0.0,0.0,-0.1245,-0.0847,-0.0746,-0.0975,0.022,0.0998,0.1332,0.0981,0.0783,0.0895,0.0,0.0,0.0,0.0,0.0,0.0,0.0,0.0,0.0,0.0,0.0,0.0,0.0,0.0,0.0,0.0,0.0,0.0,0.0,0.0,0.0,0.0,0.0,0.0,0.0,0.0,0.0,0.0,0.0,0.0,0.0,0.0,0.0,0.0,0.0,0.0,0.0,0.0,0.0,1.1729,1.2119,0.0,0.0,0.0,0.0,0.0,0.0,0.0,0.0,1.0014,0.0,0.0,0.0,0.0,0.0,0.0,0.0,0.0,0.0,0.0,0.0,0.0,0.0,0.0,0.0,0.0,0.0,0.0,0.0,0.0,0.0,0.0,0.0,0.0,0.0,0.0,0.0,0.0,0.0,0.0,0.0,0.0,0.0,0.0,0.0,0.0,0.0,0.0,0.0,0.0,0.0,0.0,0.0,0.0,0.0,0.0,0.0,0.0,0.0,0.0,0.0,0.0,0.0,0.0,0.0,-0.1771,-0.2049,-0.2315,-0.2648,-0.161,-0.1055,-0.1217,-0.1427,-0.15,0.0,0.0,0.0,0.0,0.0,0.0,0.0,0.0,0.0,0.0,0.0,0.0,0.0,0.0,0.0,0.0,0.0,0.0,0.0,0.0,0.0,0.0,0.0,0.0,0.0,0.0,0.0,0.0,0.0,0.0,0.0,0.0,0.0,0.0,0.0,0.0,0.0,0.0,0.0,0.0,1.182,1.1864,1.3243,0.0,0.0,0.0,0.0,0.0,0.0,0.9705,0.8814,0.0,0.0,0.0,0.0,0.0,0.0,0.0,0.0,0.0,0.0,0.0,0.0,0.0,0.0,0.0,0.0,0.0,0.0,0.0,0.0,0.0,0.0,0.0,0.0,0.0,0.0,0.0,0.0,0.0,0.0,0.0,0.0,0.0,0.0,0.0,0.0,0.0,0.0,0.0,0.0,0.0,0.0,0.0,0.0,0.0,0.0,0.0,0.0,0.0,0.0,0.0,0.0,0.0,0.0,0.0,-0.2209,-0.2937,-0.3608,-0.4149,-0.3174,-0.2947,-0.3542,-0.3363,-0.329,0.0,0.0,0.0,0.0,0.0,0.0,0.0,0.0,0.0,0.0,0.0,0.0,0.0,0.0,0.0,0.0,0.0,0.0,0.0,0.0,0.0,0.0,0.0,0.0,0.0,0.0,0.0,0.0,0.0,0.0,0.0,0.0,0.0,0.0,0.0,0.0,0.0,0.0,0.0,0.0,0.0,1.1752,1.3863,1.1904,0.0,0.0,0.0,0.0,0.8781,0.8276,0.0,0.0,0.0,0.0,0.0,0.0,0.0,0.0,0.0,0.0,0.0,0.0,0.0,0.0,0.0,0.0,0.0,0.0,0.0,0.0,0.0,0.0,0.0,0.0,0.0,0.0,0.0,0.0,0.0,0.0,0.0,0.0,0.0,0.0,0.0,0.0,0.0,0.0,0.0,0.0,0.0,0.0,0.0,0.0,0.0,0.0,0.0,0.0,0.0,0.0,0.0,0.0,0.0,0.0,0.0,0.0,-0.2763,-0.3565,-0.4306,-0.491,-0.4611,-0.4553,-0.4856,-0.4207,-0.3818,0.0,0.0,0.0,0.0,0.0,0.0,0.0,0.0,0.0,0.0,0.0,0.0,0.0,0.0,0.0,0.0,0.0,0.0,0.0,0.0,0.0,0.0,0.0,0.0,0.0,0.0,0.0,0.0,0.0,0.0,0.0,0.0,0.0,0.0,0.0,0.0,0.0,0.0,0.0,0.0,0.0,1.3427,1.3119,1.1619,1.0128,0.0,0.0,0.7749,0.7561,0.7578,0.0,0.0,0.0,0.0,0.0,0.0,0.0,0.0,0.0,0.0,0.0,0.0,0.0,0.0,0.0,0.0,0.0,0.0,0.0,0.0,0.0,0.0,0.0,0.0,0.0,0.0,0.0,0.0,0.0,0.0,0.0,0.0,0.0,0.0,0.0,0.0,0.0,0.0,0.0,0.0,0.0,0.0,0.0,0.0,0.0,0.0,0.0,0.0,0.0,0.0,0.0,0.0,0.0,0.0,0.0,-0.2543,-0.3497,-0.4803,-0.5471,-0.5378,-0.5555,-0.5977,-0.6553,-0.5198,-0.4693,0.0,0.0,0.0,0.0,0.0,0.0,0.0,0.0,0.0,0.0,0.0,0.0,0.0,0.0,0.0,0.0,0.0,0.0,0.0,0.0,0.0,0.0,0.0,0.0,0.0,0.0,0.0,0.0,0.0,0.0,0.0,0.0,0.0,0.0,0.0,0.0,0.0,0.0,0.0,0.0,0.0,0.0,1.2609,1.1244,0.0,0.0,0.0,0.744,0.6835,0.0,0.0,0.0,0.0,0.0,0.0,0.0,0.0,0.0,0.0,0.0,0.0,0.0,0.0,0.0,0.0,0.0,0.0,0.0,0.0,0.0,0.0,0.0,0.0,0.0,0.0,0.0,0.0,0.0,0.0,0.0,0.0,0.0,0.0,0.0,0.0,0.0,0.0,0.0,0.0,0.0,0.0,0.0,0.0,0.0,0.0,0.0,0.0,0.0,0.0,0.0,0.0,0.0,0.0,0.0,0.0,0.0,-0.366,-0.5238,-0.5937,-0.5618,-0.6109,-0.6691,-0.7357,-0.6169,0.0,0.0,0.0,0.0,0.0,0.0,0.0,0.0,0.0,0.0,0.0,0.0,0.0,0.0,0.0,0.0,0.0,0.0,0.0,0.0,0.0,0.0,0.0,0.0,0.0,0.0,0.0,0.359,0.0,0.0,0.0,0.0,0.0,0.0,0.0,0.0,0.0,0.0,0.0,0.0,0.0,0.0,1.0235,1.1419,1.0176,0.8783,0.0,0.0,0.6609,0.5829,0.5798,0.5714,0.0,0.0,0.0,0.0,0.0,0.0,0.0,0.0,0.0,0.0,0.0,0.0,0.0,0.0,0.0,0.0,0.0,0.0,0.0,0.0,0.0,0.0,0.0,0.0,0.0,0.0,0.0,0.0,0.0,0.0,0.0,0.0,0.0,0.0,0.0,0.0,0.0,0.0,0.0,0.0,0.0,0.0,0.0,0.0,0.0,0.0,0.0,0.0,0.0,0.0,0.0,0.0,0.0,0.0,0.0,-0.2988,-0.4105,-0.4956,-0.5563,-0.5996,-0.6372,-0.6681,-0.6913,-0.6434,0.0,0.0,0.0,0.0,0.0,0.0,0.0,0.0,0.0,0.0,0.0,0.0,0.0,0.0,0.0,0.0,0.0,0.0,0.0,0.0,0.0,0.0,0.0,0.0,0.0,0.0,0.0,0.0,0.0,0.0,0.0,0.0,0.0,0.0,0.0,0.0,0.0,0.0,0.0,0.0,0.0,0.9403,0.8857,0.7881,0.6913,0.0,0.0,0.4722,0.4254,0.4671,0.4849,0.4206,0.0,0.0,0.0,0.0,0.0,0.0,0.0,0.0,0.0,0.0,0.0,0.0,0.0,0.0,0.0,0.0,0.0,0.0,0.0,0.0,0.0,0.0,0.0,0.0,0.0,0.0,0.0,0.0,0.0,0.0,0.0,0.0,0.0,0.0,0.0,0.0,0.0,0.0,0.0,0.0,0.0,0.0,0.0,0.0,0.0,0.0,0.0,0.0,0.0,0.0,0.0,0.0,0.0,-0.3302,-0.3548,-0.5229,-0.6154,-0.6213,-0.6593,-0.6912,-0.7289,-0.6778,-0.6282,0.0,0.0,0.0,0.0,0.0,0.0,0.0,0.0,0.0,0.0,0.0,0.0,0.0,0.0,0.0,0.0,0.0,0.0,0.0,0.0,0.0,0.0,0.0,0.0,0.0,0.0,0.0,0.0,0.6948,0.7158,0.709,0.0,0.0,0.0,0.0,0.0,0.0,0.0,0.0,0.0,0.0,0.7524,0.753,0.6875,0.0,0.0,0.4827,0.4535,0.394,0.4219,0.4291,0.3867,0.4242,0.0,0.0,0.0,0.0,0.0,0.0,0.0,0.0,0.0,0.0,0.0,0.0,0.0,0.0,0.0,0.0,0.0,0.0,0.0,0.0,0.0,0.0,0.0,0.0,0.0,0.0,0.0,0.0,0.0,0.0,0.0,0.0,0.0,0.0,0.0,0.0,0.0,0.0,0.0,0.0,0.0,0.0,0.0,0.0,0.0,0.0,0.0,0.0,0.0,0.0,0.0,0.0,-0.369,-0.3736,-0.5576,-0.6426,-0.6209,-0.6647,-0.6918,-0.7122,-0.6901,-0.66,0.0,0.0,0.0,0.0,0.0,0.0,0.0,0.0,0.0,0.0,0.0,0.0,0.0,0.0,0.0,0.0,0.0,0.0,0.0,0.0,0.0,0.0,0.0,0.0,0.0,0.0,0.0,0.0,0.735,0.7566,0.7567,0.0,0.0,0.0,0.0,0.0,0.0,0.0,0.0,0.0,0.0,0.5945,0.6202,0.5575,0.47,0.383,0.3785,0.3705,0.325,0.3387,0.3492,0.3226,0.0,0.0,0.0,0.0,0.0,0.0,0.0,0.0,0.0,0.0,0.0,0.0,0.0,0.0,0.0,0.0,0.0,0.0,0.0,0.0,0.0,0.0,0.0,0.0,0.0,0.0,0.0,0.0,0.0,0.0,-0.4577,0.0,0.0,0.0,0.0,0.0,0.0,0.0,0.0,0.0,0.0,0.0,0.0,0.0,0.0,0.0,0.0,0.0,0.0,0.0,0.0,0.0,0.0,-0.3159,-0.3409,-0.4652,-0.523,-0.5391,-0.5932,-0.6105,-0.59,-0.7439,-0.7684,-0.6316,0.0,0.0,0.0,0.0,0.0,0.0,0.0,0.0,0.0,0.0,0.0,0.0,0.0,0.0,0.0,0.0,0.0,0.0,0.0,0.0,0.0,0.0,0.0,0.0,0.0,0.0,0.3128,0.4728,0.6039,0.0,0.0,0.0,0.0,0.0,0.0,0.0,0.0,0.0,0.0,0.4674,0.4788,0.4729,0.3506,0.264,0.2436,0.2219,0.1999,0.1842,0.2176,0.2339,0.0,0.0,0.0,0.0,0.0,0.0,0.0,0.0,0.0,0.0,0.0,0.0,0.0,0.0,0.0,0.0,0.0,0.0,0.0,0.0,0.0,0.0,0.0,0.0,0.0,0.0,0.0,-0.5793,-0.5597,0.0,0.0,0.0,0.0,0.0,0.0,0.0,0.0,0.0,0.0,0.0,-0.6696,-0.6327,0.0,0.0,0.0,0.0,0.0,0.0,0.0,0.0,0.0,0.0,0.0,0.0,-0.377,-0.4172,-0.5242,-0.595,-0.6213,-0.6218,-0.6114,-0.595,-0.6869,-0.7104,-0.6441,0.0,0.0,0.0,0.0,0.0,0.0,0.0,0.0,0.0,0.0,0.0,0.0,0.0,0.0,0.0,0.0,0.0,0.0,0.0,0.0,0.0,0.0,0.0,0.0,0.0,0.3628,0.0,0.0,0.0,0.0,0.0,0.0,0.0,0.0,0.0,0.0,0.0,0.3327,0.3351,0.3292,0.3324,0.3479,0.3129,0.2662,0.0,0.0,0.0,0.0,0.0,0.0,0.0,0.0,0.0,0.0,0.0,0.0,0.0,0.0,0.2766,0.2604,0.2044,0.179,0.2396,0.0,0.0,0.0,0.0,0.0,0.0,0.0,0.0,0.0,0.0,0.0,0.0,0.0,0.0,0.0,0.0,-0.7503,0.0,0.0,0.0,0.0,0.0,0.0,0.0,0.0,-0.7324,-0.7594,-0.7874,-0.7575,-0.7197,0.0,-0.6225,-0.5246,0.0,0.0,0.0,0.0,0.0,0.0,0.0,0.0,-0.415,-0.4508,-0.5578,-0.6337,-0.649,-0.6337,-0.6228,-0.6332,-0.6982,-0.7338,-0.7362,-0.6639,-0.5983,0.0,0.0,0.0,0.0,0.0,0.0,0.0,0.0,0.0,0.0,0.0,0.0,0.0,0.0,0.0,0.0,0.0,0.0,0.0,0.0,0.0,0.0,0.0,0.3406,0.0,0.0,0.0,0.0,0.0,0.0,0.0,0.0,0.0,0.2146,0.2124,0.2211,0.2535,0.2387,0.2347,0.2508,0.0,0.0,0.0,0.0,0.0,0.0,0.0,0.1818,0.1037,0.2077,0.2782,0.2259,0.286,0.3467,0.3655,0.0,0.0,0.2763,0.2201,0.2052,0.2825,0.2472,0.1862,0.1334,0.1025,0.086,0.0,0.0,0.0,0.0,0.0,0.0,0.0,0.0,-1.1971,-1.1653,0.0,-1.0527,0.0,0.0,0.0,0.0,0.0,-0.8225,0.0,0.0,-0.9733,-0.9927,-0.8887,-0.8746,-0.8652,-0.8468,-0.7229,-0.6607,-0.6514,-0.5894,0.0,0.0,0.0,0.0,0.0,0.0,-0.4239,-0.4468,-0.5608,-0.6173,-0.6232,-0.6232,-0.6445,-0.6933,-0.7735,-0.8427,-0.8922,-0.7997,-0.7317,-0.6914,-0.4922,0.0,0.0,0.0,0.0,0.0,0.0,0.0,0.0,0.0,0.0,0.0,0.0,0.0,0.0,0.0,0.0,0.0,0.0,0.0,0.0,0.1704,0.0,0.0,0.0,0.0,0.0,0.0,0.0,0.0,0.0,0.0,0.1009,0.1382,0.1718,0.198,0.0,0.0,0.0,0.0,0.0363,0.04,0.0113,-0.0,0.0271,0.089,0.1248,0.107,0.0,0.0,0.156,0.2569,0.3385,0.3246,0.3459,0.3432,0.2715,0.2949,0.3263,0.3549,0.2591,0.1627,0.1148,0.0369,-0.0062,-1.7577,0.0,0.0,0.0,0.0,-1.1891,-1.2112,-1.2594,-1.1753,-1.1677,-1.2209,-1.2905,0.0,0.0,0.0,0.0,0.0,0.0,-0.8723,-0.9576,-0.9096,-0.9329,-1.0071,-0.9595,-0.9249,-0.9134,-0.8664,-0.8391,-0.8261,-0.7578,-0.6012,-0.374,0.0,0.0,0.0,0.0,-0.4862,-0.5096,-0.5691,-0.6277,-0.6717,-0.6544,-0.6918,-0.7794,-0.7937,-0.8256,-0.885,-0.8557,-0.8083,-0.7375,-0.642,0.0,0.0,0.0,0.0,0.0,0.0,0.0,0.0,0.0,0.0,0.0,0.0,0.0,0.0,0.0,0.0,0.0,0.0,0.0,0.0934,0.1643,0.2117,0.0,0.0,0.0,0.0,0.0,0.0,0.0,0.0,0.0,-0.0113,-0.0,0.0157,0.0,0.0,0.0995,0.0704,0.0642,0.037,-0.0372,0.0,0.0,0.0,0.1162,0.1798,0.1359,0.1879,0.2468,0.2822,0.3356,0.3684,0.3607,0.3325,0.3165,0.3693,0.4129,0.4279,0.4047,0.2198,0.0572,0.0284,-0.0362,-0.0953,-2.035,-1.6908,-1.601,-1.5315,-1.4803,-1.4239,-1.4372,-1.4899,-1.3874,-1.3679,-1.4121,-1.4676,-1.3683,-1.1503,-1.0777,0.0,0.0,0.0,-0.9373,-1.0332,-0.936,-0.943,-1.0159,-0.9956,-0.9686,-0.9465,-0.9099,-0.9047,-0.9159,-0.8287,-0.6941,-0.5004,0.0,0.0,-0.3708,-0.4624,-0.5202,-0.5372,-0.5788,-0.6273,-0.6766,-0.7079,-0.7563,-0.8162,-0.8209,-0.8421,-0.8752,-0.8804,-0.855,-0.8016,-0.7212,-0.6222,0.0,0.0,0.0,0.0,0.0,0.0,0.0,0.0,0.0,0.0,0.0,-0.1169,0.0,0.0,0.0,0.0,-0.0368,0.0115,0.0937,0.1323,0.0,0.0,0.0,0.0,0.0,0.0,0.0,0.0865,0.0092,-0.0555,-0.091,-0.1062,-0.0976,-0.0634,-0.0058,0.0176,-0.0346,0.0,0.0391,-0.0262,0.0333,0.0811,0.0687,0.1569,0.2124,0.1497,0.1763,0.2173,0.2553,0.2694,0.2818,0.2741,0.2506,0.2349,0.2978,0.3343,0.3501,0.3338,0.1294,-0.0382,-0.0307,-0.0778,-0.1336,-2.2185,-2.1695,-1.9848,-1.8657,-1.7916,-1.6973,-1.7271,-1.8296,-1.7269,-1.6794,-1.6744,-1.5913,-1.4673,-1.3027,-1.1276,0.0,-1.0899,-1.0633,-1.0637,-1.0748,-1.0371,-0.998,-0.9716,-1.0002,-0.998,-0.9642,-0.901,-0.8944,-0.9389,-0.8428,-0.7511,-0.6734,-0.6032,-0.5301,-0.4532,-0.5014,-0.5367,-0.5421,-0.5843,-0.6253,-0.6696,-0.7729,-0.8221,-0.8275,-0.8599,-0.8804,-0.8804,-0.8804,-0.8804,-0.8725,-0.7624,-0.729,-0.7984,0.0,0.0,0.0,0.0,0.0,0.0,0.0,0.0,0.0,0.0,0.0,0.0,0.0,0.0,0.0,-0.1598,0.0,0.0721,0.0556,0.0,0.0,0.0,0.1345,0.1394,0.1057,0.0809,0.0688,0.0,0.0,-0.1351,0.0,-0.1857,-0.1291,-0.066,-0.0531,-0.1228,-0.0338,0.0278,0.0204,0.0476,0.0819,0.1314,0.2066,0.2221,0.1464,0.1332,0.1328,0.1406,0.1408,0.1332,0.141,0.1254,0.1175,0.1175,0.1251,0.1176,0.1487,0.0078,-0.1178,-0.0784,-0.1021,-0.1336,-2.3523,-2.3101,-2.2637,-2.1316,-1.9558,-1.9239,-1.8922,-1.8455,-1.7359,-1.7068,-1.7289,-1.5849,-1.4809,-1.4038,-1.3453,-1.3256,-1.3385,-1.26,-1.2246,-1.2197,-1.1146,-1.0546,-1.0368,-1.0433,-1.0433,-1.036,-1.008,-0.9903,-0.9724,-0.8543,-0.7706,-0.7028,-0.6167,-0.5385,-0.4817,-0.5278,-0.5583,-0.578,-0.609,-0.6686,-0.754,-0.8262,-0.8652,-0.8646,-0.8752,-0.8804,-0.8804,-0.8804,-0.8804,-0.8804,-0.8384,-0.7965,-0.7615,-0.5651,0.0,0.0,0.0,0.0,0.0,0.0,0.0,0.0,0.0,-0.1661,-0.1123,0.0,-0.2446,0.0,-0.2082,-0.243,-0.2179,-0.1743,0.0,0.0,-0.0317,-0.0133,0.0384,0.0362,0.0269,-0.0053,-0.0933,-0.1598,-0.1573,-0.2235,-0.2588,-0.2326,-0.0986,-0.0455,-0.1551,-0.0896,-0.0216,-0.0215,0.0368,0.1059,0.1812,0.2064,0.2009,0.1407,0.1332,0.1332,0.1332,0.1332,0.1332,0.1254,0.0627,0.0235,0.0235,-0.0235,-0.0706,-0.0785,-0.11,-0.1258,-0.1179,-0.1258,-0.1336,-2.4277,-2.4073,-2.4373,-2.3185,-2.1072,-2.0689,-2.0207,-1.9473,-1.829,-1.79,-1.7964,-1.6166,-1.5114,-1.4697,-1.4541,-1.4399,-1.4204,-1.3632,-1.3186,-1.2813,-1.1922,-1.1295,-1.1058,-1.0907,-1.0726,-1.0594,-1.0537,-1.0386,-1.0163,-0.9518,-0.885,-0.828,-0.7628,-0.6989,-0.6309,-0.5868,-0.5611,-0.5572,-0.6217,-0.6987,-0.7859,-0.8474,-0.8684,-0.843,-0.855,-0.8363,-0.7842,-0.7949,-0.7896,-0.7649,-0.7387,-0.709,-0.6741,-0.5186,-0.4087,0.0,0.0,0.0,0.0,0.0,0.0,0.0,0.0,0.0,0.0,0.0,-0.2991,0.0,-0.2866,-0.3221,-0.2901,-0.2495,-0.2121,-0.1921,-0.1319,-0.0836,-0.0496,-0.0465,-0.0536,-0.0705,-0.1312,-0.1762,-0.1893,-0.2359,-0.2669,-0.2762,-0.156,-0.1024,-0.1917,-0.1074,-0.0149,-0.0225,0.0539,0.141,0.2195,0.1724,0.1175,0.0783,0.0392,0.0157,0.0157,0.0157,0.0078,-0.0157,-0.0549,-0.0941,-0.0941,-0.1256,-0.165,-0.1806,-0.1728,-0.1493,-0.1336,-0.1336,-0.1336,-2.4716,-2.4761,-2.5375,-2.4479,-2.2569,-2.1897,-2.1211,-2.0424,-1.9653,-1.9028,-1.8431,-1.68,-1.5703,-1.5154,-1.5122,-1.4859,-1.4413,-1.4248,-1.3844,-1.3212,-1.2679,-1.2141,-1.1711,-1.1352,-1.0989,-1.0719,-1.0711,-1.0697,-1.0653,-1.0595,-1.0257,-0.9707,-0.9339,-0.8828,-0.8016,-0.6622,-0.5682,-0.5314,-0.6253,-0.708,-0.7817,-0.83,-0.8303,-0.7922,-0.811,-0.7715,-0.6707,-0.6927,-0.6827,-0.6344,-0.6003,-0.5977,-0.6175,-0.4713,-0.3871,0.0,-0.272,0.0,0.0,0.0,0.0,0.0,0.0,0.0,0.0,-0.3186,-0.3264,-0.336,-0.3775,-0.374,-0.2968,-0.2713,-0.2826,-0.3227,-0.2057,-0.1205,-0.1177,-0.134,-0.1351,-0.1191,-0.1567,-0.1951,-0.2154,-0.2217,-0.2436,-0.2644,-0.1947,-0.1641,-0.239,-0.1185,-0.0076,-0.0,0.1095,0.2037,0.196,0.0941,-0.0,-0.0235,-0.0785,-0.1336,-0.1258,-0.1258,-0.1415,-0.1728,-0.1728,-0.1805,-0.2038,-0.2041,-0.2042,-0.204,-0.2042,-0.1886,-0.1493,-0.1415,-0.1336,-2.542,-2.5435,-2.5555,-2.5121,-2.4361,-2.373,-2.187,-1.9357,-2.1038,-2.045,-1.8265,-1.7628,-1.6735,-1.5756,-1.5605,-1.5502,-1.5403,-1.5236,-1.4927,-1.4513,-1.3399,-1.2696,-1.2321,-1.1736,-1.1505,-1.1385,-1.1377,-1.1238,-1.0982,-1.0499,-1.0007,-0.943,-0.8961,-0.846,-0.7884,0.0,0.0,0.0,-0.6258,-0.6802,-0.7542,-0.7279,-0.7408,-0.7862,-0.7502,0.0,-0.6926,-0.7228,-0.7221,-0.6894,-0.7045,0.0,0.0,0.0,0.0,0.0,0.0,0.0,0.0,0.0,0.0,0.0,-0.3692,-0.334,-0.3269,-0.3414,-0.3717,-0.4227,-0.4723,-0.4967,-0.4853,-0.4287,-0.3809,-0.3497,-0.2715,-0.2031,-0.1598,-0.1574,-0.1598,-0.1658,-0.1805,-0.1951,-0.2223,-0.2235,-0.2241,-0.2293,-0.1765,-0.1586,-0.2256,-0.1617,-0.0833,-0.0,0.178,0.2584,0.094,-0.0471,-0.1413,-0.1572,-0.165,-0.173,-0.1651,-0.1651,-0.1728,-0.204,-0.204,-0.204,-0.2195,-0.2275,-0.2353,-0.2195,-0.2276,-0.2276,-0.1886,-0.1651,-0.1572,-2.6108,0.0,-2.6437,-2.5796,0.0,-2.4198,-2.2454,-1.9847,-2.0413,-2.0835,-2.1002,-1.9141,-1.8015,-1.7368,-1.6451,-1.6022,-1.6022,-1.5452,-1.4939,-1.4477,-1.3614,-1.2947,-1.2451,-1.1856,-1.1622,-1.1622,-1.1622,-1.1534,-1.1319,-1.1059,-1.0714,-1.0477,-1.0075,-0.9595,-0.916,-0.8593,-0.7904,-0.7031,-0.7164,-0.7554,-0.8088,-0.7978,-0.7911,-0.7882,0.0,0.0,0.0,0.0,0.0,0.0,0.0,0.0,0.0,0.0,0.0,-0.5887,-0.4964,-0.4475,-0.4571,-0.4164,-0.4286,-0.5254,-0.4819,-0.4296,-0.3908,-0.424,-0.455,-0.4867,-0.5144,-0.5222,-0.5082,-0.476,-0.4399,-0.388,-0.3463,-0.3081,-0.2827,-0.2792,-0.2683,-0.2551,-0.2818,-0.3088,-0.2889,-0.2828,-0.2625,-0.2306,-0.2023,-0.1916,-0.2115,-0.1813,-0.1196,-0.0459,0.1243,0.1881,0.0157,-0.1254,-0.2121,-0.1965,-0.1887,-0.1887,-0.1808,-0.1808,-0.1886,-0.2196,-0.2273,-0.2273,-0.2353,-0.2431,-0.2431,-0.2353,-0.2431,-0.2431,-0.2199,-0.1964,-0.173,-2.6767,-2.6811,-2.74,-2.6518,-2.4697,-2.4495,-2.3238,-2.1212,0.0,0.0,0.0,-2.0783,-1.9287,-1.8996,-1.7307,-1.6555,-1.6436,-1.5618,-1.4924,-1.4336,-1.3717,-1.3126,-1.2565,-1.1919,-1.1622,-1.1622,-1.1622,-1.1622,-1.1622,-1.1622,-1.1622,-1.16,-1.1297,-1.0967,-1.058,-0.9561,-0.8808,-0.8336,-0.8068,-0.8203,-0.8606,-0.8669,-0.8414,-0.7936,-0.8063,-0.7675,-0.672,-0.6947,-0.6854,-0.6384,-0.6194,-0.624,-0.654,-0.6102,-0.5879,-0.5963,-0.5324,-0.53,-0.6269,-0.5309,-0.5127,-0.619,-0.5681,-0.5112,-0.467,-0.5044,-0.5313,-0.5341,-0.5317,-0.5177,-0.5011,-0.5071,-0.4941,-0.4452,-0.4212,-0.4013,-0.4013,-0.4082,-0.3816,-0.3549,-0.3885,-0.4087,-0.3627,-0.3405,-0.3121,-0.2421,-0.2285,-0.2372,-0.2231,-0.1818,-0.1421,-0.0931,0.0157,0.0549,-0.0627,-0.1724,-0.2276,-0.212,-0.2043,-0.2043,-0.2043,-0.2043,-0.2199,-0.2821,-0.2899,-0.2899,-0.2743,-0.2588,-0.251,-0.251,-0.251,-0.251,-0.251,-0.2277,-0.1964,-2.7475,-2.744,-2.758,-2.7405,-2.7024,-2.5997,-2.4847,-2.355,-2.2405,-2.275,-2.3931,-2.1836,-2.0417,-1.9609,-1.7921,-1.7061,-1.6912,-1.6415,-1.58,0.0,-1.4241,-1.3502,-1.2704,-1.1988,-1.1622,-1.1622,-1.1622,-1.1622,-1.1622,-1.1622,-1.1622,-1.1615,-1.1571,-1.1247,-1.0609,-1.0159,-0.9656,-0.9193,-0.805,-0.7639,-0.8024,-0.7529,-0.7563,-0.8038,-0.7527,-0.7148,-0.6939,-0.7255,-0.7248,-0.6927,-0.7141,-0.7515,-0.8016,-0.732,-0.6882,-0.6899,-0.6312,-0.5834,-0.5494,-0.5292,-0.5271,-0.5454,-0.5356,-0.5261,-0.5201,-0.5253,-0.5361,-0.5547,-0.5402,-0.5502,-0.5936,-0.5942,-0.5717,-0.5245,-0.4683,-0.4284,-0.435,-0.435,-0.4284,-0.4217,-0.422,-0.4154,-0.3761,-0.3455,-0.3099,-0.2449,-0.2268,-0.2298,-0.2295,-0.1878,-0.1523,-0.1401,-0.0863,-0.0706,-0.1333,-0.2037,-0.2433,-0.2433,-0.2433,-0.2433,-0.2356,-0.2354,-0.2744,-0.3759,-0.4302,-0.4377,-0.3754,-0.2978,-0.2744,-0.2666,-0.2588,-0.2588,-0.251,-0.2433,-0.2354,-2.7345,-2.763,-2.73,-2.7145,-2.7004,-2.554,-2.4586,-2.4046,-2.3208,-2.3303,-2.387,-2.202,-2.1008,-2.0612,-1.8629,-1.7578,-1.7317,-1.6436,-1.5719,-1.5138,-1.4105,-1.3348,-1.2757,-1.1981,-1.1622,-1.1622,-1.1622,-1.1622,-1.1622,-1.1622,-1.1622,-1.1608,-1.1453,-1.1203,-1.0843,-1.0353,-1.0031,-0.9778,-0.8978,-0.8622,-0.8615,-0.8323,-0.8306,-0.8598,-0.8165,-0.7989,-0.7989,-0.8116,-0.813,-0.7996,-0.8116,-0.8323,-0.8584,-0.8216,-0.8005,-0.7978,-0.7331,-0.6681,-0.5987,-0.5563,-0.5301,-0.5301,-0.5301,-0.5341,-0.543,-0.5353,-0.5374,-0.5604,-0.5727,-0.5982,-0.6199,-0.6209,-0.6169,-0.6001,-0.5617,-0.5488,-0.5422,-0.5418,-0.5418,-0.5418,-0.5418,-0.5153,-0.442,-0.4406,-0.3755,-0.2627,-0.2225,-0.2289,-0.2399,-0.2193,-0.1984,-0.2027,-0.1804,-0.1804,-0.2038,-0.2273,-0.251,-0.251,-0.2898,-0.2978,-0.2665,-0.251,-0.3134,-0.438,-0.5544,-0.5696,-0.4763,-0.4146,-0.3759,-0.3288,-0.321,-0.3054,-0.2666,-0.251,-0.2431,-2.7297,-2.7569,-2.7022,-2.655,-2.5983,-2.466,-2.3974,-2.377,-2.3089,-2.3315,-2.3813,-2.2299,-2.1435,-2.1026,-1.9174,-1.8084,-1.7449,-1.6374,-1.5618,-1.5177,-1.4005,-1.3261,-1.281,-1.1981,-1.1622,-1.1622,-1.1622,-1.1622,-1.1622,-1.1622,-1.1622,-1.1593,-1.1304,-1.1211,-1.1063,-1.0499,-1.0177,-1.0089,-0.9775,-0.951,-0.9309,-0.9211,-0.9159,-0.9061,-0.885,-0.8804,-0.8804,-0.8804,-0.8804,-0.8804,-0.8804,-0.8804,-0.8804,-0.8692,-0.8586,-0.8533,-0.7919,-0.7208,-0.6671,-0.5937,-0.5534,-0.5575,-0.5464,-0.5426,-0.5636,-0.5494,-0.549,-0.575,-0.614,-0.6343,-0.6258,-0.6327,-0.642,-0.642,-0.642,-0.6354,-0.642,-0.642,-0.642,-0.642,-0.642,-0.6083,-0.5505,-0.5379,-0.4594,-0.294,-0.2421,-0.2427,-0.2376,-0.2399,-0.2425,-0.2473,-0.25,-0.2588,-0.2744,-0.2899,-0.2978,-0.3056,-0.36,-0.3756,-0.3366,-0.3134,-0.3602,-0.5079,-0.6472,-0.6626,-0.5625,-0.5234,-0.4924,-0.4222,-0.3908,-0.3443,-0.2666,-0.251,-0.251,-2.7561,-2.7091,-2.6889,-2.5806,-2.4374,-2.4086,-2.3632,-2.2923,-2.2046,-2.2609,-2.3858,-2.3225,-2.1844,-2.0229,-1.9374,-1.8359,-1.7119,-1.657,-1.5989,-1.5352,-1.4414,-1.3631,-1.3009,-1.2042,-1.1622,-1.1622,-1.1622,-1.1622,-1.1622,-1.1622,-1.1622,-1.1622,-1.1593,-1.1424,-1.1077,-1.0726,-1.0397,-1.0104,-0.9775,-0.9562,-0.9562,-0.9316,-0.9204,-0.9166,-0.8903,-0.8804,-0.8804,-0.8804,-0.8804,-0.8804,-0.8804,-0.8804,-0.8752,-0.8309,-0.7978,-0.7984,-0.7456,-0.7079,-0.7025,-0.648,-0.6184,-0.6303,-0.5865,-0.5661,-0.5839,-0.5843,-0.5904,-0.6087,-0.629,-0.64,-0.6396,-0.6412,-0.642,-0.642,-0.642,-0.642,-0.642,-0.642,-0.642,-0.642,-0.642,-0.6354,-0.6156,-0.5774,-0.4879,-0.3526,-0.3259,-0.2963,-0.2552,-0.2425,-0.2372,-0.2425,-0.2471,-0.2817,-0.3366,-0.3912,-0.4068,-0.4535,-0.4768,-0.4768,-0.4613,-0.4691,-0.5079,-0.5777,-0.6784,-0.7019,-0.6472,-0.6086,-0.5854,-0.4999,-0.43,-0.3521,-0.2743,-0.251,-0.251,-2.7585,-2.7601,-2.6777,-2.5729,-2.4624,-2.4162,-2.3341,-2.2284,-2.2452,-2.2596,-2.2782,-2.3049,-2.216,-2.0476,-1.9634,-1.8544,-1.7409,-1.6915,-1.665,-1.6246,-1.5223,-1.4501,-1.4016,-1.2887,-1.2282,-1.2097,-1.1802,-1.1622,-1.1622,-1.1622,-1.1622,-1.1622,-1.1622,-1.1549,-1.1409,-1.1033,-1.0719,-1.0389,-1.0068,-0.9811,-0.9584,-0.9316,-0.9204,-0.9159,-0.8903,-0.8804,-0.8804,-0.8804,-0.8804,-0.8804,-0.8804,-0.8804,-0.8804,-0.8586,-0.8427,-0.8421,-0.7883,-0.7337,-0.6789,-0.6421,-0.6138,-0.6001,-0.5727,-0.573,-0.6063,-0.5949,-0.6002,-0.6262,-0.6375,-0.642,-0.642,-0.642,-0.642,-0.642,-0.642,-0.642,-0.642,-0.6424,-0.642,-0.642,-0.642,-0.6424,-0.6354,-0.6148,-0.561,-0.4694,-0.4206,-0.3675,-0.3027,-0.2911,-0.2798,-0.2487,-0.2471,-0.2895,-0.3677,-0.43,-0.4691,-0.4846,-0.5237,-0.5473,-0.5392,-0.6089,-0.6553,-0.6707,-0.7173,-0.7407,-0.7092,-0.6938,-0.6703,-0.5774,-0.4608,-0.3677,-0.3366,-0.2821,-0.2588,-2.7668,-2.776,-2.6688,-2.5619,-2.4707,-2.4091,-2.3179,-2.2272,-2.26,-2.2625,-2.2482,-2.2648,-2.2034,-2.0771,-1.9722,-1.8576,-1.7415,-1.7015,-1.686,-1.6701,-1.5674,-1.5099,-1.4796,-1.3657,-1.2879,-1.2451,-1.2035,-1.174,-1.1622,-1.1622,-1.1622,-1.1622,-1.1622,-1.1622,-1.1593,-1.1291,-1.096,-1.0704,-1.0324,-0.998,-0.9715,-0.9358,-0.9204,-0.9152,-0.8956,-0.8804,-0.8804,-0.8804,-0.8804,-0.8804,-0.8804,-0.8804,-0.8804,-0.8804,-0.8804,-0.8752,-0.8421,-0.7865,-0.716,-0.6742,-0.6379,-0.6178,-0.5956,-0.5888,-0.6124,-0.6107,-0.6152,-0.6363,-0.642,-0.642,-0.642,-0.642,-0.642,-0.642,-0.642,-0.6432,-0.6485,-0.6489,-0.6493,-0.6489,-0.6509,-0.6469,-0.6432,-0.6354,-0.5996,-0.5125,-0.4748,-0.4128,-0.3385,-0.3147,-0.3192,-0.2834,-0.2991,-0.3517,-0.4066,-0.4535,-0.4929,-0.5662,-0.6139,-0.6261,-0.5957,-0.6902,-0.733,-0.6945,-0.733,-0.7407,-0.7253,-0.7253,-0.7249,-0.6318,-0.5306,-0.4219,-0.3752,-0.3132,-0.2586,-2.8011,-2.7396,-2.652,-2.547,-2.4202,-2.3622,-2.3328,-2.3185,-2.2181,-2.2505,-2.3498,-2.2335,-2.118,-2.0433,-1.9678,-1.8318,-1.666,-1.6456,-1.6446,-1.6378,-1.5614,-1.5099,-1.4855,-1.4067,-1.3287,-1.2687,-1.2451,-1.2097,-1.1622,-1.1622,-1.1622,-1.1622,-1.1622,-1.1622,-1.1586,-1.1321,-1.113,-1.0967,-1.0463,-1.0104,-0.9977,-0.9517,-0.9225,-0.9166,-0.8903,-0.8804,-0.8804,-0.8804,-0.8804,-0.8804,-0.8804,-0.8804,-0.8804,-0.8804,-0.8804,-0.8804,-0.8758,-0.8705,-0.8526,-0.7787,-0.7281,-0.7333,-0.6725,-0.6252,-0.6481,-0.6355,-0.6371,-0.642,-0.642,-0.642,-0.642,-0.642,-0.642,-0.642,-0.642,-0.6485,-0.6639,-0.6639,-0.6664,-0.6652,-0.6635,-0.6562,-0.644,-0.642,-0.5822,-0.5106,-0.4954,-0.4773,-0.3273,-0.3049,-0.3416,-0.3747,-0.4256,-0.4999,-0.5007,-0.5373,-0.6044,-0.6534,-0.6834,-0.7157,-0.7203,-0.7227,-0.7153,-0.718,-0.733,-0.7407,-0.7334,-0.7176,-0.7096,-0.6626,-0.624,-0.5386,-0.453,-0.3288,-0.2743,-2.8011,-2.7334,-2.6459,-2.5773,-2.5272,-2.4152,-2.3923,-2.4221,-2.3482,-2.3067,-2.291,-2.2335,-2.1281,-1.9883,-1.9149,-1.799,-1.6591,-1.6431,-1.6374,-1.6374,-1.6077,-1.5884,-1.5575,-1.4855,-1.4314,-1.3846,-1.294,-1.2151,-1.1677,-1.1622,-1.1622,-1.1622,-1.1622,-1.1622,-1.16,-1.1505,-1.1289,-1.113,-1.0821,-1.0528,-1.0093,-0.9724,-0.9421,-0.9173,-0.8956,-0.8804,-0.8804,-0.8804,-0.8804,-0.8804,-0.8804,-0.8804,-0.8804,-0.8804,-0.8804,-0.8824,-0.8978,-0.8915,-0.8612,-0.8369,-0.8159,-0.7973,-0.7706,-0.7356,-0.7084,-0.6679,-0.642,-0.642,-0.642,-0.642,-0.642,-0.642,-0.6424,-0.642,-0.6424,-0.6493,-0.6631,-0.6684,-0.6684,-0.666,-0.6591,-0.6485,-0.6453,-0.642,-0.6218,-0.5818,-0.5885,-0.5389,-0.4671,-0.4568,-0.4709,-0.461,-0.4927,-0.5357,-0.579,-0.6418,-0.6947,-0.714,-0.7263,-0.699,-0.6842,-0.6738,-0.6659,-0.6872,-0.7176,-0.7407,-0.7334,-0.7334,-0.7173,-0.7096,-0.6707,-0.6163,-0.5464,-0.4142,-0.3521,-2.815,-2.7657,-2.678,-2.6459,-2.6274,-2.4716,-2.4323,-2.4619,-2.4088,-2.3367,-2.2727,-2.2662,-2.1709,-2.0163,-1.9222,-1.8121,-1.692,-1.6545,-1.6374,-1.6374,-1.6374,-1.6249,-1.5951,-1.5468,-1.5001,-1.4529,-1.3433,-1.252,-1.1981,-1.1856,-1.1794,-1.1622,-1.1622,-1.1622,-1.1622,-1.1622,-1.1497,-1.1314,-1.1128,-1.0894,-1.0384,-0.9993,-0.9637,-0.9386,-0.9063,-0.8804,-0.8804,-0.8804,-0.8804,-0.8804,-0.8804,-0.8804,-0.8804,-0.8804,-0.8804,-0.8838,-0.9024,-0.9072,-0.8776,-0.8835,-0.8801,-0.8483,-0.8329,-0.8133,-0.7827,-0.726,-0.7003,-0.7003,-0.6613,-0.6432,-0.6706,-0.6693,-0.657,-0.6526,-0.6509,-0.6578,-0.6741,-0.6826,-0.6855,-0.6814,-0.6652,-0.6513,-0.6432,-0.6424,-0.6284,-0.6148,-0.6218,-0.6085,-0.5411,-0.5493,-0.5685,-0.5502,-0.5686,-0.6218,-0.662,-0.7191,-0.721,-0.733,-0.7215,-0.6943,-0.6659,-0.6537,-0.6426,-0.6648,-0.6949,-0.7176,-0.733,-0.7411,-0.7411,-0.7407,-0.7173,-0.6703,-0.5851,-0.5074,-0.438,-2.8396,-2.8258,-2.7673,-2.7241,-2.6901,-2.5165,-2.4412,-2.4239,-2.3594,-2.321,-2.2988,-2.308,-2.2266,-2.1169,-1.9854,-1.8695,-1.7645,-1.6839,-1.642,-1.6431,-1.6374,-1.6259,-1.5972,-1.5846,-1.5313,-1.4538,-1.3863,-1.313,-1.2581,-1.252,-1.2282,-1.1802,-1.1802,-1.1864,-1.1685,-1.1802,-1.174,-1.165,-1.1488,-1.1249,-1.1056,-1.0477,-1.0067,-0.9816,-0.9428,-0.913,-0.8884,-0.8811,-0.8804,-0.8804,-0.8804,-0.8804,-0.8804,-0.8804,-0.8818,-0.8825,-0.9044,-0.9245,-0.9352,-0.9282,-0.9254,-0.913,-0.8794,-0.865,-0.8479,-0.8166,-0.8037,-0.8037,-0.7461,-0.6941,-0.7464,-0.7272,-0.6966,-0.6725,-0.6684,-0.6765,-0.6974,-0.7086,-0.7188,-0.7058,-0.6814,-0.6603,-0.6473,-0.642,-0.6226,-0.5911,-0.614,-0.6202,-0.5395,-0.5633,-0.5962,-0.6297,-0.6582,-0.6878,-0.7396,-0.7905,-0.755,-0.7344,-0.7199,-0.7029,-0.6841,-0.6743,-0.6461,-0.6644,-0.6868,-0.7099,-0.7407,-0.7411,-0.7407,-0.7407,-0.7249,-0.7119,-0.645,-0.568,-0.4867,-2.8411,-2.8319,-2.7452,-2.6855,-2.6319,-2.5243,-2.4507,-2.4016,-2.3445,-2.2988,-2.2609,-2.2217,-2.177,-2.1192,-2.0023,-1.9192,-1.873,-1.7556,-1.674,-1.6431,-1.6374,-1.6327,-1.6202,-1.6029,-1.543,-1.4588,-1.4291,-1.3863,-1.3312,-1.3191,-1.3078,-1.2895,-1.2903,-1.2895,-1.2842,-1.2903,-1.2903,-1.2887,-1.2797,-1.2685,-1.2438,-1.2085,-1.168,-1.1392,-1.1099,-1.0615,-0.9789,-0.9171,-0.8811,-0.8804,-0.8804,-0.8804,-0.8804,-0.8804,-0.8784,-0.886,-0.926,-0.9588,-0.9801,-0.9991,-1.0089,-1.0108,-0.9996,-0.9709,-0.9326,-0.953,-0.928,-0.8882,-0.8882,-0.9043,-0.8005,-0.7798,-0.759,-0.6973,-0.69,-0.6933,-0.6954,-0.6941,-0.694,-0.7041,-0.6757,-0.6501,-0.6436,-0.642,-0.6336,-0.632,-0.6543,-0.6503,-0.6399,-0.6459,-0.6964,-0.7296,-0.7499,-0.7466,-0.7815,-0.7928,-0.7636,-0.7339,-0.7143,-0.7044,-0.6933,-0.6834,-0.663,-0.6644,-0.6868,-0.7111,-0.7342,-0.7508,-0.7521,-0.7512,-0.7443,-0.7262,-0.7021,-0.6396,-0.5507,-2.8258,-2.7996,-2.7361,-2.6687,-2.6,-2.5241,-2.4425,-2.3699,-2.3326,-2.2734,-2.2127,-2.1917,-2.1655,-2.125,-2.0198,-1.9461,-1.8905,-1.7712,-1.6899,-1.6488,-1.6374,-1.6374,-1.6259,-1.6039,-1.5614,-1.5137,-1.4951,-1.4588,-1.3983,-1.3872,-1.3752,-1.3571,-1.3511,-1.345,-1.3511,-1.3511,-1.3511,-1.3511,-1.3442,-1.3391,-1.3177,-1.2956,-1.2702,-1.2377,-1.2106,-1.159,-1.0809,-1.0019,-0.9383,-0.893,-0.8804,-0.8804,-0.8804,-0.8811,-0.8878,-0.9046,-0.9392,-0.9806,-1.0026,-1.0361,-1.0618,-1.0618,-1.0618,-1.0428,-1.0123,-1.0494,-1.0258,-0.9799,-1.0166,-1.0258,-0.9135,-0.8548,-0.8255,-0.7721,-0.7275,-0.713,-0.7157,-0.6958,-0.6859,-0.694,-0.6741,-0.653,-0.644,-0.6428,-0.6509,-0.6692,-0.6728,-0.6989,-0.7049,-0.7198,-0.7485,-0.7781,-0.7871,-0.7982,-0.8051,-0.7956,-0.7722,-0.74,-0.7154,-0.6996,-0.6864,-0.6733,-0.6558,-0.6772,-0.7019,-0.7328,-0.7577,-0.7606,-0.7622,-0.7602,-0.7581,-0.7462,-0.7312,-0.6862,-0.6121,-2.8042,-2.7473,-2.7255,-2.6795,-2.6062,-2.525,-2.4293,-2.3433,-2.3081,-2.2497,-2.1865,-2.193,-2.185,-2.1248,-2.0529,-1.9641,-1.8457,-1.771,-1.7056,-1.6648,-1.6431,-1.6316,-1.6114,-1.6019,-1.5846,-1.5798,-1.5672,-1.5313,-1.4765,-1.4647,-1.4231,-1.3812,-1.3812,-1.3631,-1.3812,-1.3631,-1.3743,-1.3812,-1.3752,-1.3726,-1.37,-1.3412,-1.3171,-1.3012,-1.2697,-1.2299,-1.1837,-1.1088,-1.0196,-0.9102,-0.8956,-0.891,-0.8857,-0.8804,-0.8931,-0.9154,-0.9539,-0.984,-1.012,-1.0401,-1.0618,-1.0618,-1.0618,-1.0555,-1.0581,-1.071,-1.087,-1.0745,-1.0956,-1.0876,-1.0373,-0.975,-0.9015,-0.8551,-0.7626,-0.7301,-0.7415,-0.7147,-0.6972,-0.692,-0.679,-0.6611,-0.6378,-0.6354,-0.6459,-0.6591,-0.6591,-0.6821,-0.7134,-0.7298,-0.7565,-0.7764,-0.7919,-0.7901,-0.7834,-0.7979,-0.7718,-0.7168,-0.7,-0.7031,-0.6853,-0.6709,-0.6655,-0.6883,-0.7107,-0.7426,-0.7626,-0.7622,-0.7638,-0.7618,-0.7687,-0.7676,-0.7496,-0.7186,-0.6726,-2.8288,-2.804,-2.7328,-2.6671,-2.597,-2.5129,-2.4332,-2.3574,-2.2793,-2.2339,-2.1974,-2.1402,-2.1302,-2.1342,-2.0707,-2.0137,-1.9443,-1.8491,-1.7644,-1.7,-1.6591,-1.6306,-1.6114,-1.6056,-1.6019,-1.5914,-1.5856,-1.573,-1.5439,-1.5371,-1.5128,-1.4942,-1.4824,-1.4824,-1.4883,-1.4815,-1.4874,-1.4883,-1.4883,-1.4874,-1.4805,-1.4779,-1.4723,-1.4557,-1.4262,-1.36,-1.2491,-1.1247,-1.0438,-1.0035,-0.9562,-0.9413,-0.933,-0.9029,-0.9038,-0.9308,-0.9588,-0.9979,-1.0334,-1.0508,-1.0618,-1.0618,-1.0618,-1.0618,-1.0631,-1.0828,-1.0975,-1.1009,-1.1016,-1.1009,-1.0663,-1.0159,-0.9316,-0.804,-0.7503,-0.7339,-0.7407,-0.7179,-0.7019,-0.6932,-0.6728,-0.6467,-0.634,-0.6226,-0.6133,-0.6308,-0.646,-0.6655,-0.697,-0.7139,-0.7285,-0.7454,-0.7596,-0.7608,-0.7605,-0.7786,-0.7666,-0.6961,-0.6874,-0.7091,-0.6861,-0.6676,-0.6706,-0.6872,-0.7099,-0.7471,-0.7541,-0.7533,-0.7561,-0.7659,-0.7699,-0.7721,-0.7732,-0.7535,-0.7199,-2.8242,-2.7965,-2.7345,-2.6519,-2.5667,-2.5058,-2.4332,-2.345,-2.269,-2.2109,-2.1794,-2.107,-2.0895,-2.1093,-2.0667,-2.0233,-1.9765,-1.903,-1.8135,-1.7213,-1.6637,-1.6363,-1.6239,-1.6249,-1.6192,-1.6097,-1.6019,-1.5904,-1.5798,-1.5788,-1.5672,-1.542,-1.5478,-1.5478,-1.5362,-1.542,-1.542,-1.542,-1.542,-1.542,-1.542,-1.542,-1.5352,-1.5254,-1.5137,-1.4456,-1.3284,-1.2199,-1.1333,-1.0561,-1.0123,-0.9925,-0.9804,-0.9567,-0.9467,-0.9669,-0.9801,-1.0087,-1.0504,-1.0618,-1.0618,-1.0618,-1.0618,-1.0618,-1.0705,-1.0915,-1.1176,-1.1189,-1.1436,-1.1526,-1.135,-1.0844,-0.9666,-0.833,-0.7774,-0.7621,-0.7403,-0.7024,-0.6917,-0.6957,-0.6624,-0.6142,-0.6032,-0.5958,-0.606,-0.6192,-0.6216,-0.6474,-0.6737,-0.6855,-0.7046,-0.7235,-0.7442,-0.7546,-0.7522,-0.7601,-0.7525,-0.6929,-0.6827,-0.6971,-0.6962,-0.6763,-0.6831,-0.6976,-0.7192,-0.7342,-0.7443,-0.7577,-0.7695,-0.7756,-0.7744,-0.7749,-0.7808,-0.782,-0.7567,-2.7997,-2.738,-2.7087,-2.6291,-2.5282,-2.4952,-2.4237,-2.326,-2.2661,-2.2105,-2.1547,-2.0997,-2.0825,-2.0712,-2.0601,-2.0195,-1.9565,-1.9291,-1.8417,-1.7534,-1.6842,-1.6534,-1.6524,-1.6431,-1.6374,-1.6327,-1.6181,-1.6066,-1.5961,-1.5914,-1.573,-1.5536,-1.5604,-1.5546,-1.542,-1.542,-1.542,-1.542,-1.542,-1.542,-1.542,-1.542,-1.542,-1.5342,-1.508,-1.4744,-1.4054,-1.336,-1.2449,-1.0824,-1.0621,-1.0574,-1.0344,-1.021,-1.0102,-1.0066,-1.0087,-1.0221,-1.0494,-1.0618,-1.0618,-1.0618,-1.0618,-1.0618,-1.0655,-1.1042,-1.1376,-1.1369,-1.1957,-1.2105,-1.2091,-1.1533,-1.0312,-0.8974,-0.8576,-0.8116,-0.7415,-0.6818,-0.673,-0.7246,-0.6445,-0.5851,-0.5627,-0.5656,-0.5944,-0.6143,-0.6168,-0.6246,-0.6471,-0.6653,-0.6891,-0.7149,-0.7364,-0.7513,-0.7465,-0.7405,-0.7221,-0.6919,-0.6873,-0.6972,-0.6957,-0.6904,-0.6991,-0.7165,-0.7273,-0.7459,-0.7606,-0.7695,-0.7768,-0.7813,-0.7768,-0.7902,-0.7942,-0.8006,-0.7844,-2.7859,-2.7303,-2.6152,-2.545,-2.5098,-2.4524,-2.4018,-2.3625,-2.3113,-2.2512,-2.1955,-2.1458,-2.1033,-2.0699,-2.0662,-2.0511,-2.0131,-1.9604,-1.878,-1.7984,-1.7324,-1.7056,-1.6899,-1.6637,-1.6431,-1.6384,-1.6374,-1.6249,-1.6066,-1.5961,-1.5788,-1.5662,-1.5536,-1.5468,-1.542,-1.542,-1.542,-1.542,-1.542,-1.542,-1.542,-1.542,-1.541,-1.5323,-1.4898,-1.4487,-1.4072,-1.3617,-1.3095,-1.2681,-1.2258,-1.1801,-1.1233,-1.0816,-1.0465,-1.0207,-1.0147,-1.0261,-1.0488,-1.0618,-1.0618,-1.0618,-1.0618,-1.0624,-1.0658,-1.1082,-1.1383,-1.1523,-1.1944,-1.2278,-1.2231,-1.1558,-1.072,-0.9772,-0.9214,-0.8817,-0.8152,-0.7352,-0.6887,-0.6659,-0.6375,-0.6041,-0.5792,-0.5586,-0.5847,-0.6034,-0.6063,-0.601,-0.6186,-0.647,-0.6703,-0.6974,-0.7091,-0.7215,-0.7183,-0.7126,-0.7127,-0.699,-0.6976,-0.699,-0.6976,-0.7021,-0.7177,-0.7289,-0.7342,-0.7471,-0.7602,-0.7586,-0.7614,-0.7695,-0.7801,-0.7869,-0.7982,-0.8052,-0.8162,-2.7901,-2.7112,-2.601,-2.5388,-2.5124,-2.4441,-2.4109,-2.3882,-2.3377,-2.2785,-2.2175,-2.1636,-2.1144,-2.0712,-2.0699,-2.0612,-2.036,-1.9656,-1.9056,-1.8471,-1.7929,-1.749,-1.7202,-1.6899,-1.6694,-1.6477,-1.6374,-1.6306,-1.6124,-1.6009,-1.5904,-1.573,-1.5604,-1.5478,-1.542,-1.542,-1.542,-1.542,-1.542,-1.542,-1.542,-1.542,-1.5362,-1.5226,-1.4706,-1.4298,-1.4352,-1.3829,-1.3652,-1.3677,-1.3552,-1.2954,-1.2036,-1.1487,-1.0975,-1.0445,-1.0327,-1.0381,-1.0591,-1.0618,-1.0618,-1.0618,-1.0618,-1.0618,-1.0655,-1.1015,-1.1223,-1.139,-1.1817,-1.2305,-1.2305,-1.2003,-1.1304,-1.0502,-1.003,-0.9427,-0.8506,-0.7686,-0.6997,-0.6643,-0.6459,-0.6401,-0.619,-0.5938,-0.5949,-0.6267,-0.618,-0.6116,-0.6116,-0.6309,-0.6443,-0.666,-0.6776,-0.6899,-0.6805,-0.6847,-0.6964,-0.6893,-0.7006,-0.7047,-0.7036,-0.7157,-0.7265,-0.7334,-0.7411,-0.7484,-0.7521,-0.7492,-0.7537,-0.7683,-0.7801,-0.7874,-0.7979,-0.8113,-0.8268,-2.7837,-2.6772,-2.6046,-2.5514,-2.5072,-2.4548,-2.425,-2.4124,-2.3595,-2.3039,-2.236,-2.1752,-2.1259,-2.0885,-2.0699,-2.0612,-2.0296,-1.9823,-1.9344,-1.9081,-1.8536,-1.8093,-1.771,-1.7435,-1.7056,-1.6591,-1.6431,-1.6306,-1.6114,-1.6056,-1.5894,-1.573,-1.5672,-1.5536,-1.541,-1.542,-1.542,-1.542,-1.542,-1.542,-1.542,-1.542,-1.5362,-1.5187,-1.483,-1.4572,-1.4606,-1.4216,-1.4054,-1.4488,-1.4515,-1.3838,-1.304,-1.2329,-1.1707,-1.0912,-1.0829,-1.078,-1.0793,-1.0681,-1.0618,-1.0618,-1.0618,-1.0618,-1.0641,-1.0895,-1.1069,-1.1276,-1.1623,-1.2084,-1.2164,-1.2018,-1.1661,-1.1028,-1.0641,-0.9941,-0.9015,-0.8133,-0.7686,-0.6868,-0.6841,-0.6899,-0.6687,-0.6417,-0.6384,-0.6388,-0.6293,-0.6241,-0.6318,-0.6386,-0.6583,-0.6664,-0.6892,-0.6911,-0.6805,-0.6777,-0.688,-0.7014,-0.7114,-0.7211,-0.7289,-0.7423,-0.758,-0.7354,-0.7407,-0.7484,-0.748,-0.7484,-0.7565,-0.7786,-0.7832,-0.7772,-0.7947,-0.8187,-0.83,-2.6902,-2.6015,-2.5336,-2.4867,-2.4498,-2.4348,-2.4276,-2.4208,-2.3994,-2.3595,-2.2875,-2.2066,-2.156,-2.1237,-2.0848,-2.0549,-2.0296,-1.9965,-1.9811,-1.9552,-1.9069,-1.8697,-1.8483,-1.8093,-1.7655,-1.7056,-1.674,-1.642,-1.6124,-1.6009,-1.5846,-1.5672,-1.5546,-1.541,-1.541,-1.542,-1.542,-1.542,-1.542,-1.542,-1.542,-1.541,-1.5352,-1.5303,-1.5032,-1.4895,-1.4805,-1.456,-1.4433,-1.4506,-1.4515,-1.4332,-1.3978,-1.3485,-1.2753,-1.2004,-1.1421,-1.124,-1.124,-1.0877,-1.0618,-1.0618,-1.0618,-1.0618,-1.0641,-1.0862,-1.0982,-1.1082,-1.1289,-1.159,-1.157,-1.165,-1.1534,-1.124,-1.1011,-1.0642,-1.0195,-0.9645,-0.8718,-0.7629,-0.7546,-0.7486,-0.7241,-0.7025,-0.6849,-0.6765,-0.6627,-0.6624,-0.6734,-0.6848,-0.7076,-0.7061,-0.7032,-0.7022,-0.6938,-0.6872,-0.685,-0.7205,-0.7383,-0.7533,-0.7645,-0.7813,-0.7854,-0.7516,-0.7407,-0.748,-0.748,-0.748,-0.7549,-0.7663,-0.7667,-0.7655,-0.7882,-0.8093,-0.8089,-2.678,-2.5678,-2.5326,-2.4863,-2.4343,-2.4302,-2.4261,-2.4234,-2.4109,-2.3754,-2.3098,-2.2438,-2.1894,-2.1423,-2.0898,-2.0549,-2.0283,-2.022,-2.0067,-1.9747,-1.9552,-1.9251,-1.904,-1.8709,-1.8201,-1.7765,-1.7401,-1.6797,-1.6171,-1.5961,-1.5856,-1.5672,-1.5478,-1.542,-1.542,-1.542,-1.541,-1.541,-1.5468,-1.541,-1.541,-1.541,-1.5362,-1.5205,-1.5244,-1.5077,-1.4743,-1.4625,-1.4506,-1.4515,-1.4515,-1.4515,-1.4387,-1.4198,-1.3769,-1.3147,-1.2158,-1.1545,-1.1421,-1.0996,-1.0618,-1.0618,-1.0618,-1.0618,-1.0651,-1.0708,-1.0828,-1.0855,-1.1022,-1.1223,-1.1283,-1.1275,-1.1416,-1.1376,-1.1162,-1.0812,-1.0604,-1.0567,-0.967,-0.8587,-0.862,-0.8481,-0.8047,-0.7716,-0.7406,-0.7138,-0.6957,-0.707,-0.7208,-0.7244,-0.7374,-0.7219,-0.7151,-0.7134,-0.7019,-0.703,-0.6961,-0.7309,-0.7497,-0.7652,-0.7741,-0.7825,-0.772,-0.7525,-0.7476,-0.748,-0.748,-0.7484,-0.7553,-0.7598,-0.7581,-0.7618,-0.7821,-0.7959,-0.7967,-2.6831,-2.5598,-2.5524,-2.5082,-2.4451,-2.4302,-2.4302,-2.4276,-2.4166,-2.3855,-2.3348,-2.296,-2.2315,-2.1582,-2.0983,-2.0549,-2.0296,-2.0233,-2.0067,-1.9862,-1.9759,-1.9552,-1.9291,-1.9081,-1.8857,-1.8255,-1.8159,-1.76,-1.6729,-1.6296,-1.6009,-1.5826,-1.5584,-1.5526,-1.5584,-1.569,-1.5575,-1.5748,-1.5748,-1.5738,-1.5575,-1.541,-1.5254,-1.5039,-1.5204,-1.5096,-1.4625,-1.4506,-1.4515,-1.4515,-1.4515,-1.4515,-1.4515,-1.4515,-1.4515,-1.4207,-1.2773,-1.2035,-1.16,-1.1178,-1.0807,-1.0624,-1.0618,-1.0618,-1.0624,-1.0651,-1.0588,-1.0601,-1.0748,-1.0929,-1.0995,-1.1142,-1.1209,-1.1176,-1.0969,-1.0797,-1.0718,-1.0653,-1.0679,-1.0079,-0.9905,-0.9462,-0.899,-0.8519,-0.8159,-0.8093,-0.7915,-0.7621,-0.7686,-0.7364,-0.737,-0.7219,-0.7163,-0.7141,-0.7173,-0.733,-0.7257,-0.7374,-0.7564,-0.7648,-0.7691,-0.7642,-0.7545,-0.7492,-0.7403,-0.7407,-0.7403,-0.748,-0.7516,-0.7529,-0.7496,-0.7577,-0.778,-0.7882,-0.7906,-2.652,-2.598,-2.5635,-2.5237,-2.4799,-2.4451,-2.4302,-2.4302,-2.4276,-2.4135,-2.3855,-2.3555,-2.2869,-2.1921,-2.1068,-2.0649,-2.0448,-2.0296,-2.0131,-1.9926,-1.9862,-1.9747,-1.9695,-1.9695,-1.9279,-1.8792,-1.875,-1.8267,-1.7556,-1.7,-1.6549,-1.6208,-1.5864,-1.569,-1.614,-1.6197,-1.6461,-1.6866,-1.6922,-1.6641,-1.613,-1.5594,-1.5264,-1.5166,-1.5126,-1.4949,-1.4675,-1.4565,-1.4515,-1.4515,-1.4515,-1.4515,-1.4515,-1.4515,-1.4515,-1.4327,-1.37,-1.3009,-1.2336,-1.1663,-1.1052,-1.0751,-1.0618,-1.0618,-1.0618,-1.0618,-1.0618,-1.0618,-1.0685,-1.0719,-1.0695,-1.0681,-1.0681,-1.0715,-1.0728,-1.0802,-1.083,-1.0769,-1.0812,-1.0908,-1.0522,-1.0248,-0.9878,-0.9408,-0.9061,-0.8983,-0.8911,-0.8519,-0.8089,-0.7677,-0.7399,-0.7331,-0.7243,-0.7294,-0.7163,-0.7331,-0.7307,-0.7335,-0.7508,-0.7606,-0.7586,-0.7545,-0.7488,-0.7443,-0.7338,-0.7242,-0.7253,-0.7326,-0.748,-0.7504,-0.7455,-0.7618,-0.7736,-0.7801,-0.7886,-2.647,-2.6052,-2.5635,-2.5275,-2.4863,-2.4451,-2.4302,-2.4302,-2.4291,-2.4166,-2.397,-2.3702,-2.2898,-2.1841,-2.1229,-2.0885,-2.0549,-2.0334,-2.0131,-1.9978,-1.9862,-1.9798,-1.9798,-1.9798,-1.954,-1.9384,-1.9291,-1.9133,-1.8471,-1.7655,-1.7045,-1.681,-1.6528,-1.6528,-1.681,-1.681,-1.6922,-1.7034,-1.6866,-1.6585,-1.6197,-1.57,-1.5254,-1.5205,-1.5048,-1.4911,-1.4725,-1.4565,-1.4515,-1.4515,-1.4515,-1.4515,-1.4515,-1.4515,-1.4515,-1.4455,-1.4258,-1.3571,-1.2573,-1.1903,-1.1296,-1.0807,-1.0624,-1.0618,-1.0618,-1.0618,-1.0618,-1.0618,-1.0618,-1.0618,-1.0618,-1.0618,-1.0618,-1.0618,-1.0618,-1.0615,-1.0755,-1.0868,-1.0923,-1.1082,-1.1115,-1.0754,-1.039,-1.0073,-0.9589,-0.9475,-0.9122,-0.8644,-0.8262,-0.7893,-0.7609,-0.7464,-0.7447,-0.7443,-0.7262,-0.7273,-0.7192,-0.7208,-0.7226,-0.7395,-0.746,-0.7468,-0.7411,-0.721,-0.6972,-0.6992,-0.7069,-0.7176,-0.7253,-0.7305,-0.7364,-0.7533,-0.7629,-0.7902,-0.8004,-2.6505,-2.621,-2.5835,-2.5427,-2.502,-2.4614,-2.4385,-2.4276,-2.4307,-2.4181,-2.3985,-2.3613,-2.2778,-2.1949,-2.165,-2.1313,-2.0749,-2.0485,-2.0233,-2.0067,-1.9914,-1.9798,-1.9798,-1.9798,-1.9747,-1.9747,-1.9565,-1.9408,-1.9093,-1.8441,-1.7776,-1.7424,-1.7135,-1.7257,-1.7368,-1.7424,-1.7534,-1.7754,-1.7034,-1.6641,-1.6415,-1.5748,-1.5371,-1.5147,-1.5029,-1.4852,-1.4675,-1.4565,-1.4515,-1.4515,-1.4515,-1.4515,-1.4515,-1.4515,-1.4515,-1.4515,-1.4387,-1.3872,-1.294,-1.2135,-1.1483,-1.0996,-1.0624,-1.0618,-1.0618,-1.0618,-1.0618,-1.0618,-1.0618,-1.0618,-1.0618,-1.0618,-1.0618,-1.0618,-1.0618,-1.0618,-1.0638,-1.0708,-1.0782,-1.0822,-1.0895,-1.0962,-1.0654,-1.0503,-1.0224,-0.9942,-0.9446,-0.8881,-0.8384,-0.8023,-0.7812,-0.758,-0.7456,-0.7403,-0.7248,-0.7147,-0.7054,-0.7041,-0.7135,-0.7182,-0.737,-0.7331,-0.7186,-0.6961,-0.6746,-0.6719,-0.6824,-0.6923,-0.6949,-0.6979,-0.7036,-0.7259,-0.7454,-0.7726,-0.7923,-2.6691,-2.6624,-2.6193,-2.5835,-2.5427,-2.5005,-2.4639,-2.4343,-2.4302,-2.4219,-2.4067,-2.3509,-2.3053,-2.2663,-2.2189,-2.1827,-2.1313,-2.1055,-2.066,-2.0258,-1.9952,-1.9798,-1.9798,-1.9798,-1.9759,-1.9656,-1.9617,-1.9512,-1.9368,-1.9105,-1.8548,-1.8093,-1.7699,-1.771,-1.7875,-1.8038,-1.8267,-1.8321,-1.7655,-1.709,-1.6698,-1.6036,-1.5254,-1.5088,-1.4921,-1.4743,-1.4565,-1.4515,-1.4515,-1.4515,-1.4515,-1.4515,-1.4515,-1.4515,-1.4515,-1.4515,-1.4515,-1.4061,-1.3364,-1.2749,-1.2089,-1.1483,-1.0996,-1.0618,-1.0618,-1.0618,-1.0618,-1.0618,-1.0618,-1.0618,-1.0618,-1.0618,-1.0618,-1.0618,-1.0618,-1.0618,-1.0618,-1.0631,-1.0628,-1.0601,-1.0648,-1.0748,-1.0768,-1.0529,-1.067,-1.0473,-0.9972,-0.9432,-0.869,-0.8338,-0.8005,-0.7735,-0.7575,-0.735,-0.7155,-0.7049,-0.698,-0.6993,-0.6993,-0.7142,-0.7291,-0.7151,-0.7175,-0.6927,-0.6825,-0.6699,-0.6569,-0.6689,-0.6718,-0.6644,-0.6783,-0.6987,-0.7303,-0.7514,-0.7708,-2.6708,-2.6708,-2.6539,-2.6245,-2.5835,-2.5427,-2.5059,-2.4648,-2.4387,-2.4205,-2.4024,-2.3653,-2.329,-2.292,-2.2694,-2.2328,-2.1813,-2.1321,-2.0993,-2.061,-2.0207,-1.9901,-1.985,-1.9798,-1.9747,-1.9708,-1.9668,-1.9565,-1.9512,-1.9316,-1.9117,-1.8721,-1.8375,-1.8494,-1.8602,-1.8602,-1.8774,-1.8655,-1.8201,-1.7644,-1.7034,-1.6425,-1.5652,-1.5147,-1.4893,-1.4775,-1.4606,-1.4565,-1.4515,-1.4515,-1.4515,-1.4515,-1.4515,-1.4515,-1.4515,-1.4515,-1.4515,-1.4318,-1.3932,-1.3373,-1.2642,-1.1608,-1.0996,-1.0618,-1.0618,-1.0618,-1.0618,-1.0618,-1.0618,-1.0618,-1.0618,-1.0618,-1.0618,-1.0618,-1.0618,-1.0618,-1.0618,-1.0618,-1.0624,-1.0638,-1.0631,-1.0608,-1.0601,-1.0595,-1.0835,-1.0956,-1.0474,-0.9962,-0.9246,-0.8665,-0.8321,-0.7919,-0.776,-0.7379,-0.7103,-0.6991,-0.6911,-0.6956,-0.6933,-0.7004,-0.7163,-0.7355,-0.7294,-0.7053,-0.6809,-0.6579,-0.6517,-0.6472,-0.6486,-0.6486,-0.6532,-0.6695,-0.7016,-0.7349,-0.7435,-2.6708,-2.6708,-2.6708,-2.647,-2.6104,-2.5799,-2.5389,-2.4879,-2.4461,-2.4203,-2.3967,-2.3882,-2.361,-2.3201,-2.3113,-2.283,-2.236,-2.1894,-2.1527,-2.1091,-2.0623,-2.0207,-2.0003,-1.9901,-1.9798,-1.9811,-1.9708,-1.9656,-1.9656,-1.942,-1.9316,-1.921,-1.9117,-1.8999,-1.8934,-1.8987,-1.8987,-1.8881,-1.8429,-1.7984,-1.7424,-1.6698,-1.6093,-1.5488,-1.5186,-1.4824,-1.4715,-1.4606,-1.4565,-1.4515,-1.4515,-1.4515,-1.4515,-1.4515,-1.4515,-1.4515,-1.4515,-1.4515,-1.4327,-1.3787,-1.285,-1.1677,-1.0933,-1.0681,-1.0618,-1.0618,-1.0618,-1.0618,-1.0618,-1.0618,-1.0618,-1.0618,-1.0618,-1.0618,-1.0618,-1.0618,-1.0618,-1.0618,-1.0618,-1.0624,-1.0618,-1.0618,-1.0618,-1.0631,-1.0742,-1.0955,-1.0829,-1.0337,-0.9723,-0.9254,-0.884,-0.8387,-0.7941,-0.7517,-0.7082,-0.7065,-0.7099,-0.6936,-0.6921,-0.6941,-0.708,-0.7295,-0.7318,-0.6919,-0.6678,-0.6521,-0.6419,-0.6308,-0.6273,-0.6328,-0.6393,-0.6551,-0.6665,-0.6894,-0.7062,-2.6691,-2.6708,-2.6691,-2.647,-2.6158,-2.6104,-2.5652,-2.5028,-2.4532,-2.4203,-2.3964,-2.3967,-2.3839,-2.361,-2.3508,-2.3231,-2.292,-2.2649,-2.2282,-2.1684,-2.1153,-2.0759,-2.0409,-2.0156,-1.9901,-1.9798,-1.9747,-1.9747,-1.9798,-1.9604,-1.9512,-1.9368,-1.921,-1.9105,-1.904,-1.8987,-1.8987,-1.8934,-1.8429,-1.8213,-1.7765,-1.7034,-1.6492,-1.5884,-1.5546,-1.5186,-1.4834,-1.4715,-1.4616,-1.4565,-1.4506,-1.4515,-1.4515,-1.4515,-1.4515,-1.4515,-1.4515,-1.4515,-1.4455,-1.364,-1.2752,-1.1732,-1.1115,-1.0618,-1.0618,-1.0618,-1.0618,-1.0618,-1.0618,-1.0618,-1.0618,-1.0618,-1.0618,-1.0618,-1.0618,-1.0618,-1.0618,-1.0618,-1.0618,-1.0618,-1.0618,-1.0618,-1.0618,-1.0588,-1.0708,-1.0848,-1.0949,-1.0683,-1.0134,-0.9633,-0.9197,-0.8858,-0.8358,-0.802,-0.7613,-0.7315,-0.7208,-0.7032,-0.6968,-0.7045,-0.7048,-0.7151,-0.7065,-0.6769,-0.6678,-0.6656,-0.6345,-0.604,-0.6139,-0.6251,-0.6349,-0.6496,-0.6503,-0.6593,-0.6746,-2.6859,-2.6825,-2.6859,-2.6742,-2.6505,-2.6505,-2.6158,-2.5635,-2.5003,-2.4424,-2.409,-2.4009,-2.3882,-2.3739,-2.3638,-2.3508,-2.3334,-2.2934,-2.2572,-2.2235,-2.167,-2.1104,-2.0709,-2.0409,-2.0105,-1.9901,-1.9798,-1.9798,-1.9798,-1.9708,-1.9604,-1.946,-1.9263,-1.9105,-1.9052,-1.8987,-1.8987,-1.8999,-1.8774,-1.8548,-1.8093,-1.7655,-1.7045,-1.6218,-1.5941,-1.5536,-1.5069,-1.4951,-1.4775,-1.4675,-1.4616,-1.4515,-1.4515,-1.4515,-1.4515,-1.4515,-1.4515,-1.4515,-1.4258,-1.3709,-1.2956,-1.2089,-1.1233,-1.0681,-1.0618,-1.0618,-1.0618,-1.0618,-1.0618,-1.0618,-1.0618,-1.0618,-1.0618,-1.0618,-1.0618,-1.0618,-1.0618,-1.0618,-1.0618,-1.0618,-1.0618,-1.0618,-1.0618,-1.0618,-1.0661,-1.0688,-1.0768,-1.0755,-1.0392,-0.9825,-0.9355,-0.9159,-0.8777,-0.8509,-0.8184,-0.8122,-0.7881,-0.7735,-0.758,-0.7468,-0.7363,-0.7291,-0.7057,-0.6927,-0.6893,-0.6783,-0.6453,-0.6135,-0.6176,-0.6261,-0.6332,-0.6363,-0.6424,-0.6482,-0.6642,-2.7055,-2.6959,-2.6942,-2.6909,-2.6792,-2.6792,-2.6505,-2.6016,-2.5291,-2.4664,-2.4354,-2.4135,-2.3925,-2.3797,-2.3653,-2.3595,-2.3566,-2.3304,-2.3038,-2.2694,-2.2203,-2.1718,-2.1286,-2.0746,-2.0409,-2.0105,-1.9901,-1.9798,-1.9798,-1.9708,-1.9604,-1.946,-1.9328,-1.917,-1.9052,-1.8987,-1.8987,-1.8999,-1.8881,-1.8815,-1.8483,-1.8093,-1.7644,-1.7034,-1.6606,-1.6275,-1.5758,-1.5352,-1.5059,-1.4951,-1.4734,-1.4515,-1.4515,-1.4515,-1.4515,-1.4515,-1.4515,-1.4515,-1.4318,-1.3812,-1.3061,-1.2451,-1.1476,-1.0863,-1.0681,-1.0618,-1.0618,-1.0618,-1.0618,-1.0618,-1.0618,-1.0618,-1.0618,-1.0618,-1.0618,-1.0618,-1.0618,-1.0618,-1.0618,-1.0618,-1.0618,-1.0618,-1.0618,-1.0618,-1.0588,-1.0645,-1.0631,-1.0618,-1.0618,-1.0168,-0.9779,-0.9594,-0.9472,-0.925,-0.9128,-0.9051,-0.8805,-0.8483,-0.825,-0.8084,-0.7711,-0.7647,-0.7327,-0.7003,-0.6839,-0.6681,-0.6472,-0.6254,-0.6244,-0.6244,-0.6271,-0.6281,-0.6338,-0.649,-0.6641,-2.7244,-2.7041,-2.696,-2.7028,-2.6995,-2.7131,-2.6724,-2.6134,-2.5339,-2.4973,-2.4901,-2.4464,-2.4286,-2.4006,-2.3801,-2.3714,-2.3744,-2.3628,-2.3408,-2.3201,-2.2807,-2.2381,-2.1855,-2.1251,-2.0894,-2.0547,-2.0295,-2.0194,-1.9952,-1.9914,-1.9759,-1.9473,-1.9275,-1.9117,-1.9052,-1.8987,-1.8987,-1.8987,-1.8987,-1.8934,-1.8762,-1.8429,-1.8093,-1.7699,-1.7368,-1.7045,-1.6595,-1.6161,-1.5806,-1.54,-1.4902,-1.4616,-1.4506,-1.4515,-1.4515,-1.4515,-1.4515,-1.4515,-1.4387,-1.3872,-1.3312,-1.2765,-1.2097,-1.1365,-1.0807,-1.0618,-1.0618,-1.0618,-1.0618,-1.0618,-1.0618,-1.0618,-1.0618,-1.0618,-1.0618,-1.0618,-1.0618,-1.0618,-1.0618,-1.0618,-1.0618,-1.0618,-1.0618,-1.0618,-1.0618,-1.0618,-1.0618,-1.0618,-1.0618,-1.0555,-1.0295,-1.0295,-1.0174,-1.011,-0.9972,-0.9862,-0.9605,-0.9254,-0.9036,-0.8834,-0.8444,-0.7996,-0.7694,-0.7375,-0.6942,-0.6644,-0.649,-0.6335,-0.6257,-0.6261,-0.6261,-0.6261,-0.6338,-0.6563,-0.6718,-2.773,-2.7926,-2.7977,-2.8134,-2.8458,-2.8386,-2.7849,-2.6879,-2.6264,-2.615,-2.6404,-2.5836,-2.5345,-2.5319,-2.4776,-2.4417,-2.4313,-2.4179,-2.3792,-2.351,-2.3329,-2.2904,-2.2405,-2.1841,-2.1479,-2.1224,-2.0979,-2.0782,-2.0782,-2.0547,-1.9914,-1.946,-1.9328,-1.9158,-1.9052,-1.8987,-1.8987,-1.8987,-1.8987,-1.8987,-1.8987,-1.8774,-1.8483,-1.8147,-1.7984,-1.7655,-1.7213,-1.656,-1.6093,-1.5748,-1.5059,-1.4606,-1.4515,-1.4515,-1.4515,-1.4515,-1.4515,-1.4515,-1.4455,-1.4318,-1.3881,-1.3321,-1.2895,-1.1973,-1.1178,-1.0618,-1.0681,-1.0681,-1.0618,-1.0618,-1.0618,-1.0618,-1.0618,-1.0618,-1.0618,-1.0618,-1.0618,-1.0618,-1.0618,-1.0618,-1.0618,-1.0618,-1.0618,-1.0618,-1.0618,-1.0618,-1.0618,-1.0618,-1.0618,-1.0618,-1.0618,-1.0618,-1.0555,-1.0364,-1.0553,-1.0443,-1.0301,-1.0043,-0.9762,-0.938,-0.8906,-0.8515,-0.817,-0.7596,-0.6865,-0.6641,-0.6563,-0.6409,-0.6257,-0.6338,-0.6338,-0.6261,-0.6335,-0.6563,-0.6714,-2.8092,-2.8412,-2.804,-2.8048,-2.8253,-2.8418,-2.8205,-2.7831,-2.7438,-2.7324,-2.7253,-2.6373,-2.6028,-2.5728,-2.4895,-2.4416,-2.4522,-2.406,-2.3674,-2.3541,-2.3671,-2.3134,-2.264,-2.2278,-2.1983,-2.1718,-2.1513,-2.1272,-2.1272,-2.0845,-2.0169,-1.9747,-1.946,-1.9198,-1.904,-1.8987,-1.8987,-1.8987,-1.8987,-1.8999,-1.8987,-1.8987,-1.8709,-1.8548,-1.8429,-1.8147,-1.782,-1.7056,-1.6549,-1.6151,-1.5391,-1.4784,-1.4565,-1.4515,-1.4515,-1.4515,-1.4515,-1.4515,-1.4515,-1.4515,-1.4079,-1.37,-1.3511,-1.2712,-1.1787,-1.1052,-1.0989,-1.0926,-1.0744,-1.0618,-1.0618,-1.0618,-1.0618,-1.0618,-1.0618,-1.0618,-1.0618,-1.0618,-1.0618,-1.0618,-1.0618,-1.0618,-1.0618,-1.0618,-1.0618,-1.0618,-1.0618,-1.0618,-1.0618,-1.0618,-1.0618,-1.0618,-1.0618,-1.0561,-1.0701,-1.0828,-1.0657,-1.0448,-1.0237,-0.9863,-0.9378,-0.8874,-0.8433,-0.7617,-0.6718,-0.6567,-0.6486,-0.6412,-0.6261,-0.6338,-0.6338,-0.6412,-0.649,-0.6563,-0.6714,-2.8479,-2.8759,-2.7757,-2.7533,-2.7284,-2.7859,-2.8416,-2.8972,-2.8553,-2.8267,-2.7745,-2.664,-2.6171,-2.6016,-2.5016,-2.4462,-2.4403,-2.403,-2.3659,-2.3305,-2.3405,-2.312,-2.2824,-2.2477,-2.237,-2.2123,-2.1921,-2.1766,-2.1369,-2.1042,-2.0646,-2.0232,-1.9673,-1.9285,-1.9028,-1.9093,-1.9105,-1.8999,-1.9083,-1.9143,-1.9023,-1.8987,-1.8987,-1.8987,-1.8934,-1.8827,-1.8602,-1.7995,-1.7213,-1.6585,-1.5796,-1.501,-1.4684,-1.4515,-1.4515,-1.4515,-1.4515,-1.4515,-1.4515,-1.4515,-1.4198,-1.3881,-1.3563,-1.3321,-1.265,-1.1663,-1.1476,-1.1178,-1.0933,-1.0681,-1.0618,-1.0618,-1.0618,-1.0618,-1.0618,-1.0618,-1.0618,-1.0618,-1.0618,-1.0618,-1.0618,-1.0618,-1.0618,-1.0618,-1.0618,-1.0618,-1.0618,-1.0618,-1.0618,-1.0618,-1.0618,-1.0618,-1.0618,-1.0631,-1.0712,-1.0775,-1.087,-1.0738,-1.0645,-1.0581,-1.0233,-0.9479,-0.8618,-0.7633,-0.6644,-0.649,-0.6412,-0.6335,-0.6338,-0.6338,-0.6412,-0.6563,-0.6641,-0.6641,-0.6563,-2.9304,-2.9178,-2.9169,-2.9299,-2.9466,-2.9,-2.9183,-2.9753,-2.9121,-2.9048,-2.9,-2.7945,-2.71,-2.6642,-2.5561,-2.4942,-2.4507,-2.4089,-2.3762,-2.351,-2.3433,-2.318,-2.3006,-2.2752,-2.2706,-2.2706,-2.2555,-2.2217,-2.1874,-2.1541,-2.0966,-2.0181,-1.9661,-1.9334,-1.9174,-1.9279,-1.9178,-1.9093,-1.9227,-1.9215,-1.9023,-1.8987,-1.8987,-1.8999,-1.8999,-1.8917,-1.8637,-1.8116,-1.7446,-1.6821,-1.5921,-1.5137,-1.4565,-1.4515,-1.4515,-1.4515,-1.4515,-1.4515,-1.4515,-1.4515,-1.4327,-1.4327,-1.4198,-1.4139,-1.364,-1.2642,-1.1903,-1.1483,-1.1059,-1.0744,-1.0618,-1.0618,-1.0618,-1.0618,-1.0618,-1.0618,-1.0618,-1.0618,-1.0618,-1.0618,-1.0618,-1.0618,-1.0618,-1.0618,-1.0618,-1.0618,-1.0618,-1.0618,-1.0618,-1.0618,-1.0618,-1.0618,-1.0618,-1.0645,-1.0698,-1.0695,-1.077,-1.0976,-1.0968,-1.0962,-1.0935,-1.0035,-0.9003,-0.7633,-0.6644,-0.6644,-0.6567,-0.6338,-0.6338,-0.6338,-0.649,-0.6718,-0.6714,-0.6714,-0.6563,-2.9367,-2.9464,-2.9356,-2.9124,-2.892,-2.9036,-2.9285,-2.9533,-2.9499,-2.9727,-2.9779,-2.842,-2.7557,-2.7196,-2.6,-2.5349,-2.4776,-2.4178,-2.3688,-2.3422,-2.3389,-2.3196,-2.3035,-2.2888,-2.2843,-2.2888,-2.2902,-2.2661,-2.2381,-2.1996,-2.1369,-2.0641,-2.0136,-1.9554,-1.9494,-1.943,-1.9251,-1.9396,-1.9473,-1.9263,-1.9047,-1.9143,-1.9143,-1.9131,-1.9167,-1.906,-1.8756,-1.8278,-1.7776,-1.6989,-1.5979,-1.5352,-1.4843,-1.4625,-1.4515,-1.4515,-1.4515,-1.4515,-1.4515,-1.4515,-1.4515,-1.4515,-1.4515,-1.4327,-1.4327,-1.339,-1.2826,-1.2282,-1.1052,-1.0618,-1.0618,-1.0618,-1.0618,-1.0618,-1.0618,-1.0618,-1.0618,-1.0618,-1.0618,-1.0618,-1.0618,-1.0618,-1.0618,-1.0618,-1.0618,-1.0618,-1.0618,-1.0618,-1.0618,-1.0618,-1.0618,-1.0618,-1.0618,-1.0618,-1.0645,-1.0635,-1.0715,-1.0883,-1.1112,-1.1128,-1.0961,-1.0313,-0.9382,-0.8093,-0.7176,-0.6949,-0.6795,-0.649,-0.6412,-0.6486,-0.6641,-0.6872,-0.6868,-0.6868,-0.6788,-2.9297,-2.9737,-2.9302,-2.8401,-2.7619,-2.8681,-2.9051,-2.8977,-2.9482,-2.9849,-2.9703,-2.7871,-2.7768,-2.7415,-2.5954,-2.5558,-2.5018,-2.4238,-2.3629,-2.3275,-2.3212,-2.3107,-2.3004,-2.2888,-2.2888,-2.2902,-2.2902,-2.2942,-2.2858,-2.2231,-2.1605,-2.1397,-2.0657,-1.9799,-1.9842,-1.9534,-1.902,-1.929,-1.934,-1.9148,-1.9227,-1.9396,-1.9263,-1.9275,-1.936,-1.9396,-1.9024,-1.8614,-1.8116,-1.7324,-1.6255,-1.5575,-1.5118,-1.4843,-1.4625,-1.4565,-1.4515,-1.4515,-1.4515,-1.4515,-1.4515,-1.4515,-1.4515,-1.4515,-1.4455,-1.4198,-1.358,-1.2712,-1.1483,-1.0807,-1.0807,-1.0926,-1.0926,-1.0863,-1.0863,-1.0737,-1.0744,-1.0681,-1.0618,-1.0618,-1.0618,-1.0618,-1.0618,-1.0618,-1.0618,-1.0618,-1.0618,-1.0618,-1.0618,-1.0618,-1.0618,-1.0618,-1.0618,-1.0618,-1.0618,-1.0588,-1.0648,-1.0717,-1.0896,-1.1,-1.0949,-1.0574,-0.983,-0.8699,-0.794,-0.7553,-0.7022,-0.6644,-0.6641,-0.6563,-0.6714,-0.6868,-0.6945,-0.6942,-0.7015,-3.0214,-3.074,-3.0621,-3.003,-2.9323,-2.9554,-2.9059,-2.8147,-2.823,-2.8277,-2.8219,-2.7484,-2.7279,-2.8363,-2.6181,-2.5326,-2.5207,-2.4313,-2.3599,-2.3215,-2.3373,-2.3209,-2.3018,-2.2888,-2.2888,-2.2873,-2.2841,-2.2948,-2.2644,-2.19,-2.1329,-2.1097,-1.9819,-1.9155,-1.896,-1.8852,-1.9145,-1.9432,-1.9523,-1.9408,-1.9083,-1.9143,-1.9083,-1.9071,-1.9071,-1.8952,-1.8679,-1.8356,-1.8018,-1.7468,-1.6786,-1.5979,-1.5468,-1.5118,-1.4843,-1.4616,-1.4575,-1.4515,-1.4515,-1.4515,-1.4515,-1.4515,-1.4515,-1.4515,-1.4515,-1.4455,-1.383,-1.3199,-1.2151,-1.1545,-1.1545,-1.2027,-1.2151,-1.1834,-1.1703,-1.1469,-1.1351,-1.0989,-1.0681,-1.0618,-1.0618,-1.0618,-1.0618,-1.0618,-1.0618,-1.0618,-1.0618,-1.0618,-1.0618,-1.0618,-1.0618,-1.0618,-1.0618,-1.0618,-1.0618,-1.0618,-1.0608,-1.0631,-1.0706,-1.0905,-1.1047,-1.1015,-1.0228,-0.9025,-0.8456,-0.8147,-0.7544,-0.6795,-0.6563,-0.6563,-0.6791,-0.6942,-0.6945,-0.7022,-0.7019]},{"header":{"parameterUnit":"m.s-1","parameterCategory":1,"la1":31.0,"la2":29.5877,"lo1":-88.7671,"lo2":-86.6584,"dy":0.0162,"dx":0.0185,"nx":115,"ny":88,"refTime":"2024-05-18T18:00:00:Z","depth":0,"parameterNumber":3,"parameterNumberName":"V-component_of_WINDS"},"data":[0.0,0.0,0.0,0.0,0.0,0.0,0.0,0.0,0.0,0.0,0.0,0.0,0.0,0.0,0.0,0.0,0.0,0.0,0.0,0.0,0.0,0.0,0.0,0.0,0.0,0.0,0.0,0.0,0.0,0.0,0.0,0.0,0.0,0.0,0.0,0.0,0.0,0.0,0.0,0.0,0.0,0.0,0.0,0.0,0.0,0.0,0.0,0.0,0.0,0.0,0.0,0.0,0.0,0.0,0.0,0.0,0.0,0.0,0.0,0.0,0.0,0.0,0.0,0.0,0.0,0.0,0.0,0.0,0.0,0.0,0.0,0.0,0.0,0.0,0.0,0.0,0.0,0.0,0.0,0.0,0.0,0.0,0.0,0.0,0.0,0.0,0.0,0.0,0.0,0.0,0.0,0.0,0.0,0.0,0.0,0.0,0.0,0.0,0.0,0.0,0.0,0.0,0.0,0.0,0.0,0.0,0.0,0.0,0.0,0.0,0.0,0.0,0.0,0.0,0.0,0.0,0.0,0.0,0.0,0.0,0.0,0.0,0.0,0.0,0.0,0.0,0.0,0.0,0.0,0.0,0.0,0.0,0.0,0.0,0.0,0.0,0.0,0.0,0.0,0.0,0.0,0.0,0.0,0.0,0.0,0.0,0.0,0.0,0.0,0.0,0.0,0.0,0.0,0.0,0.0,0.0,0.0,0.0,0.0,0.0,0.0,0.0,0.0,0.0,0.0,0.0,0.0,0.0,0.0,0.0,0.0,0.0,0.0,0.0,0.0,0.0,0.0,0.0,0.0,0.0,0.0,0.0,0.0,0.0,0.0,0.0,0.0,0.0,0.0,0.0,0.0,0.0,0.0,0.0,0.0,0.0,0.0,0.0,0.0,0.0,0.0,0.0,0.0,0.0,0.0,0.0,0.0,0.0,0.0,0.0,0.0,0.0,0.0,0.0,0.0,0.0,0.0,0.0,0.0,0.0,0.0,0.0,0.0,0.0,0.0,0.0,0.0,0.0,0.0,0.0,0.0,0.0,0.0,0.0,0.0,0.0,0.0,0.0,0.0,0.0,0.0,0.0,0.0,0.0,0.0,0.0,0.0,0.0,0.0,0.0,0.0,0.0,0.0,0.0,0.0,0.0,0.0,0.0,0.0,0.0,0.0,0.0,0.0,0.0,0.0,0.0,0.0,0.0,0.0,0.0,0.0,0.0,0.0,0.0,0.0,0.0,0.0,0.0,0.0,0.0,0.0,0.0,0.0,0.0,0.0,0.0,0.0,0.0,0.0,0.0,0.0,0.0,0.0,0.0,0.0,0.0,0.0,0.0,0.0,0.0,0.0,0.0,0.0,0.0,0.0,0.0,0.0,0.0,0.0,0.0,0.0,0.0,0.0,0.0,0.0,0.0,0.0,0.0,0.0,0.0,0.0,0.0,0.0,0.0,0.0,0.0,0.0,0.0,0.0,0.0,0.0,0.0,0.0,0.0,0.0,0.0,0.0,0.0,0.0,0.0,0.0,0.0,0.0,0.0,0.0,0.0,0.0,0.0,0.0,0.0,0.0,0.0,0.0,0.0,0.0,0.0,0.0,0.0,0.0,0.0,0.0,0.0,0.0,0.0,0.0,0.0,0.0,0.0,0.0,0.0,0.0,0.0,0.0,0.0,0.0,0.0,0.0,0.0,0.0,0.0,0.0,0.0,0.0,0.0,0.0,0.0,0.0,0.0,0.0,0.0,0.0,0.0,0.0,0.0,0.0,0.0,0.0,0.0,0.0,0.0,0.0,0.0,0.0,0.0,0.0,0.0,0.0,0.0,0.0,0.0,0.0,0.0,0.0,0.0,0.0,0.0,0.0,0.0,0.0,0.0,0.0,0.0,0.0,0.0,0.0,0.0,0.0,0.0,0.0,0.0,0.0,0.0,0.0,0.0,0.0,0.0,0.0,0.0,0.0,0.0,0.0,0.0,0.0,0.0,0.0,0.0,0.0,0.0,0.0,0.0,0.0,0.0,0.0,0.0,0.0,0.0,0.0,0.0,0.0,0.0,0.0,0.0,0.0,0.0,0.0,0.0,0.0,0.0,0.0,0.0,0.0,0.0,0.0,0.0,0.0,0.0,0.0,0.0,0.0,0.0,0.0,0.0,0.0,0.0,0.0,0.0,0.0,0.0,0.0,0.0,0.0,0.0,0.0,0.0,0.0,0.0,0.0,0.0,0.0,0.0,0.0,0.0,0.0,0.0,0.0,0.0,0.0,0.0,0.0,0.0,0.0,0.0,0.0,0.0,0.0,0.0,0.0,0.0,0.0,0.0,0.0,0.0,0.0,0.0,0.0,0.0,0.0,0.0,0.0,0.0,0.0,0.0,0.0,0.0,0.0,0.0,0.0,0.0,0.0,0.0,0.0,0.0,0.0,0.0,0.0,0.0,0.0,0.0,0.0,0.0,0.0,0.0,0.0,0.0,0.0,0.0,0.0,0.0,0.0,0.0,0.0,0.0,0.0,0.0,0.0,0.0,0.0,0.0,0.0,0.0,0.0,0.0,0.0,0.0,0.0,0.0,0.0,0.0,0.0,0.0,0.0,0.0,0.0,0.0,0.0,0.0,0.0,0.0,0.0,0.0,0.0,0.0,0.0,0.0,0.0,0.0,0.0,0.0,0.0,0.0,0.0,0.0,0.0,0.0,0.0,0.0,0.0,0.0,0.0,0.0,0.0,0.0,0.0,0.0,0.0,0.0,0.0,0.0,0.0,0.0,0.0,0.0,0.0,0.0,0.0,0.0,0.0,0.0,0.0,0.0,0.0,0.0,0.0,0.0,0.0,0.0,0.0,0.0,0.0,0.0,0.0,0.0,0.0,0.0,0.0,0.0,0.0,0.0,0.0,0.0,0.0,0.0,0.0,0.0,0.0,0.0,0.0,0.0,0.0,0.0,0.0,0.0,0.0,0.0,0.0,0.0,0.0,0.0,0.0,0.0,0.0,0.0,0.0,0.0,0.0,0.0,0.0,0.0,0.0,0.0,0.0,0.0,0.0,0.0,0.0,0.0,0.0,0.0,0.0,0.0,0.0,0.0,0.0,0.0,0.0,0.0,0.0,0.0,0.0,0.0,0.0,0.0,0.0,0.0,0.0,0.0,0.0,0.0,0.0,0.0,0.0,0.0,0.0,0.0,0.0,0.0,0.0,0.0,0.0,0.0,0.0,0.0,0.0,0.0,0.0,0.0,0.0,0.0,0.0,0.0,0.0,0.0,0.0,0.0,0.0,0.0,0.0,0.0,0.0,0.0,0.0,0.0,0.0,0.0,0.0,0.0,0.0,0.0,0.0,0.0,0.0,0.0,0.0,0.0,0.0,0.0,0.0,0.0,0.0,0.0,0.0,0.0,0.0,0.0,0.0,0.0,0.0,0.0,0.0,0.0,0.0,0.0,0.0,0.0,0.0,0.0,0.0,0.0,0.0,0.0,0.0,0.0,0.0,0.0,0.0,0.0,0.0,0.0,0.0,0.0,0.0,0.0,0.0,0.0,0.0,0.0,0.0,0.0,0.0,0.0,0.0,0.0,0.0,0.0,0.0,0.0,0.0,0.0,0.0,0.0,0.0,0.0,0.0,0.0,0.0,0.0,0.0,0.0,0.0,0.0,0.0,0.0,0.0,0.0,0.0,0.0,0.0,0.0,0.0,0.0,0.0,0.0,0.0,0.0,0.0,0.0,0.0,0.0,0.0,0.0,0.0,0.0,0.0,0.0,0.0,0.0,0.0,0.0,0.0,0.0,0.0,0.0,0.0,0.0,0.0,0.0,0.0,0.0,0.0,0.0,0.0,0.0,0.0,0.0,0.0,0.0,0.0,0.0,0.0,0.0,0.0,0.0,0.0,0.0,0.0,0.0,0.0,0.0,0.0,0.0,0.0,0.0,0.0,0.0,0.0,0.0,0.0,0.0,0.0,0.0,0.0,0.0,0.0,0.0,0.0,0.0,0.0,0.0,0.0,0.0,0.0,0.0,0.0,0.0,0.0,0.0,0.0,0.0,0.0,0.0,0.0,0.0,0.0,0.0,0.0,0.0,0.0,0.0,0.0,0.0,0.0,0.0,0.0,0.0,0.0,0.0,0.0,0.0,0.0,0.0,0.0,0.0,0.0,0.0,0.0,0.0,0.0,0.0,0.0,0.0,0.0,0.0,0.0,0.0,0.0,0.0,0.0,0.0,0.0,0.0,0.0,0.0,0.0,0.0,0.0,0.0,0.0,0.0,0.0,0.0,0.0,0.0,0.0,0.0,0.0,0.0,0.2052,0.0,0.0,0.0,0.0,0.0,0.0,0.0,0.0,0.0,0.0,0.0,0.0,0.0,0.0,0.0,0.0,0.0,0.0,0.0,0.0,0.0,0.0,0.0,0.0,0.0,0.0,0.0,0.0,0.0,0.0,0.0,0.0,0.0,0.0,0.0,0.0,0.0,0.0,0.0,0.0,0.0,0.0,0.0,0.0,0.0,0.0,0.0,0.0,0.0,0.0,0.0,0.0,0.0,0.0,0.0,0.0,0.0,0.0,0.0,0.0,0.0,0.0,0.0,0.0,0.0,0.0,0.0,0.0,0.0,0.0,0.0,0.0,0.0,0.0,0.0,0.0,0.0,0.0,0.0,0.0,0.0,0.0,0.0,0.0,0.0,0.0,0.0,0.0,0.0,0.0,0.0,0.0,0.0,0.0,0.0,0.0,0.0,0.0,0.0,0.0,0.0,0.0,0.0,0.0,0.0,0.0,0.0,0.0,0.0,0.0,0.2338,0.2562,0.2204,0.1943,0.1781,0.0,0.0,0.0,0.0,0.0,0.0,0.0,0.0,0.0,0.0,0.0,0.0,0.0,0.0,0.0,0.0,0.0,0.0,0.0,0.0,0.0,0.0,0.0,0.0,0.0,0.0,0.0,0.0,0.0,0.0,0.0,0.0,0.0,0.0,0.0,0.0,0.0,0.0,0.0,0.0,0.0,0.0,0.0,0.0,0.0,0.0,0.0,0.0,0.0,0.0,0.0,0.0,0.0,0.0,0.0,0.0,0.0,0.0,0.0,0.0,0.0,0.0,0.0,0.0,0.0,0.0,0.0,0.0,0.0,0.0,0.0,0.0,0.0,0.0,0.0,0.0,0.0,0.0,0.0,0.0,0.0,0.0,0.0,0.0,0.0,0.0,0.0,0.0,0.0,0.0,0.0,0.0,0.0,0.0,0.0,0.0,0.0,0.0,0.0,0.0,0.0,0.0,0.0,0.0,0.0,0.0,0.0,0.0,0.0,0.0,0.0,0.0,0.1987,0.1806,0.153,0.0,0.0,0.0,0.0,0.0,0.0,0.0,0.0,0.0,0.0,0.0,0.0,0.0,0.0,0.0,0.0,0.0,0.0,0.0,0.0,0.0,0.0,0.0,0.0,0.0,0.0,0.0,0.0,0.0,0.0,0.0,0.0,0.0,0.0,0.0,0.0,0.0,0.0,0.0,0.0,0.0,0.0,0.0,0.0,0.0,0.0,0.0,0.0,0.0,0.0,0.0,0.0,0.0,0.0,0.0,0.0,0.0,0.0,0.0,0.0,0.0,0.0,0.0,0.0,0.0,0.0,0.0,0.0,0.0,0.0,0.0,0.0,0.0,0.0,0.0,0.0,0.0,0.0,0.0,0.0,0.0,0.0,0.0,0.0,0.0,0.0,0.0,0.0,0.0,0.0,0.0,0.0,0.0,0.0,0.0,0.0,0.0,0.0,0.0,0.0,0.0,0.0,0.0,0.0,0.0,0.0,0.0,0.0,0.0,0.0,0.1763,0.2022,0.1764,0.0,0.1579,0.0,0.0,0.0,0.0,0.0,0.0,0.0,0.0,0.0,0.0,0.0,0.0,0.0,0.0,0.0,0.0,0.0,0.0,0.0,0.0,0.0,0.0,0.0,0.0,0.0,0.0,0.0,0.0,0.0,0.0,0.0,0.0,0.0,0.0,0.0,0.0,0.0,0.0,0.0,0.0,0.0,0.0,0.0,0.0,0.0,0.0,0.0,0.0,0.0,0.0,0.0,0.0,0.0,0.0,0.0,0.0,0.0,0.0,0.0,0.0,0.0,0.0,0.0,0.0,0.0,0.0,0.0,0.0,0.0,0.0,0.0,0.0,0.0,0.0,0.0,0.0,0.0,0.0,0.0,0.0,0.0,0.0,0.0,0.0,0.0,0.0,0.0,0.0,0.0,0.0,0.0,0.0,0.0,0.0,0.0,0.0,0.0,0.0,0.0,0.0,0.0,0.0,0.0,0.0,0.0,0.0,0.0,0.0,0.0,0.0,0.0,0.1526,0.1303,0.1238,0.0,0.0,0.0,0.0,0.0,0.0,0.0,0.0,0.0,0.0,0.0,0.0,0.0,0.0,0.0,0.0,0.0,0.0,0.0,0.0,0.0,0.0,0.0,0.0,0.0,0.0,0.0,0.0,0.0,0.0,0.0,0.0,0.0,0.0,0.0,0.0,0.0,0.0,0.0,0.0,0.0,0.0,0.0,0.0,0.0,0.0,0.0,0.0,0.0,0.0,0.0,0.0,0.0,0.0,0.0,0.0,0.0,0.0,0.0,0.0,0.0,0.0,0.0,0.0,0.0,0.0,0.0,0.0,0.0,0.0,0.0,0.0,0.0,0.0,0.0,0.0,0.0,0.0,0.0,0.0,0.0,0.0,0.0,0.0,0.0,0.0,0.0,0.0,0.0,0.0,0.0,0.0,0.0,0.0,0.0,0.0,0.0,0.0,0.0,0.0,0.0,0.0,0.0,0.0,0.0,0.0,0.0,0.0,0.0,0.0,0.1078,0.0,0.108,0.0814,0.0768,0.1019,0.0,0.0,0.0,0.0,0.0,0.0,0.0,0.0,0.0,0.0,0.0,0.0,0.0,0.0,0.0,0.0,0.0,0.0,0.0,0.0,0.0,0.0,0.0,0.0,0.0,0.0,0.0,0.0,0.0,0.0,0.0,0.0,0.0,0.0,0.0,0.0,0.0,0.0,0.0,0.0,0.0,0.0,0.0,0.0,0.0,0.0,0.0,0.0,0.0,0.0,0.0,0.0,0.0,0.0,0.0,0.0,0.0,0.0,0.0,0.0,0.0,0.0,0.0,0.0,0.0,0.0,0.0,0.0,0.0,0.0,0.0,0.0,0.0,0.0,0.0,0.0,0.0,0.0,0.0,0.0,0.0,0.0,0.0,0.0,0.0,0.0,0.0,0.0,0.0,0.0,0.0,0.0,0.0,0.0,0.0,0.0,0.0,0.0,0.0,0.0,0.0,0.0,0.0,0.0,0.0,0.0,0.0,0.0,0.0,0.0723,0.0763,0.0797,0.03,0.0222,0.0,0.0,0.0,0.0,0.0,0.0,0.0,0.0,0.0,0.0,0.0,0.0,0.0,0.0,0.0,0.0,0.0,0.0,0.0,0.0,0.0,0.0,0.0,0.0,0.0,0.0,0.0,0.0,0.0,0.0,0.0,0.0,0.0,0.0,0.0,0.0,0.0,0.0,0.0,0.0,0.0,0.0,0.0,0.0,0.0,0.0,0.0,0.0,0.0,0.0,0.0,0.0,0.0,0.0,0.0,0.0,0.0,0.0,0.0,0.0,0.0,0.0,0.0,0.0,0.0,0.0,0.0,0.0,0.0,0.0,0.0,0.0,0.0,0.0,0.0,0.0,0.0,0.0,0.0,0.0,0.0,0.0,0.0,0.0,0.0,0.0,0.0,0.0,0.0,0.0,0.0,0.0,0.0,0.0,0.0,0.0,0.0,0.0,0.0,0.0,0.0,0.0,0.0,0.0,0.0,0.0,0.0,0.0,0.0,0.0417,0.0275,0.0165,0.0105,0.0017,0.0046,0.0,0.0,0.0,0.0,0.0,0.0,0.0,0.0,0.0,0.0,0.0,0.0,0.0,0.0,0.0,0.0,0.0,0.0,0.0,0.0,0.0,0.0,0.0,0.0,0.0,0.0,0.0,0.0,0.0,0.0,0.0,0.0,0.0,0.0,0.0,0.0,0.0,0.0,0.0,0.0,0.0,0.0,0.0,0.0,0.0,0.0,0.0,0.0,0.0,0.0,0.0,0.0,0.0,0.0,0.0,0.0,0.0,0.0,0.0,0.0,0.0,0.0,0.0,0.0,0.0,0.0,0.0,0.0,0.0,0.0,0.0,0.0,0.0,0.0,0.0,0.0,0.0,0.0,0.0,0.0,0.0,0.0,0.0,0.0,0.0,0.0,0.0,0.0,0.0,0.0,0.0,0.0,0.0,0.0,0.0,0.0,0.0,0.0,0.0,0.0,0.0,0.0,0.0,0.0,0.0,0.0,0.0,0.0,0.0,-0.0375,0.0,-0.0809,0.0,-0.0614,-0.0407,0.0,0.0,0.0,0.0,0.0,0.0,0.0,0.0,0.0,0.0,0.0,0.0,0.0,0.0,0.0,0.0,0.0,0.0,0.0,0.0,0.0,0.0,0.0,0.0,0.0,0.0,0.0,0.0,0.0,0.0,0.0,0.0,0.0,0.0,0.0,0.0,0.0,0.0,0.0,0.0,0.0,0.0,0.0,0.0,0.0,0.0,0.0,0.0,0.0,0.0,0.0,0.0,0.0,0.0,0.0,0.0,0.0,0.0,0.0,0.0,0.0,0.0,0.0,0.0,0.0,0.0,0.0,0.0,0.0,0.0,0.0,0.0,0.0,0.0,0.0,0.0,0.0,0.0,0.0,0.0,0.0,0.0,0.0,0.0,0.0,0.0,0.0,0.0,0.0,0.0,0.0,0.0,0.0,0.0,0.0,0.0,0.0,0.0,0.0,0.0,0.0,0.0,0.0,0.0,0.0,0.0,0.0,0.0,-0.0988,-0.1776,-0.2154,-0.2216,-0.1938,-0.1659,-0.1202,0.0,0.0,0.0,0.0,0.0,0.0,0.0,0.0,0.0,0.0,0.0,0.0,0.0,0.0,0.0,0.0,0.0,0.0,0.0,0.0,0.0,0.0,0.0,0.0,0.0,0.0,0.0,0.0,0.0,0.0,0.0,0.0,0.0,0.0,0.0,0.0,0.0,0.0,0.0,0.0,0.0,0.0,0.0,0.0,0.0,0.0,0.0,0.0,0.0,0.0,0.0,0.0,0.0,0.0,0.0,0.0,0.0,0.0,0.0,0.0,0.0,0.0,0.0,0.0,0.0,0.0,0.0,0.0,0.0,0.0,0.0,0.0,0.0,0.0,0.0,0.0,0.0,0.0,0.0,0.0,0.0,0.0,0.0,0.0,0.0,0.0,0.0,0.0,0.0,0.0,0.0,0.0,0.0,0.0,0.0,0.0,0.0,0.0,0.0,0.0,0.0,0.0,0.0,0.0,0.0,0.0,0.0,0.0,0.0,-0.3135,-0.3579,-0.3937,-0.4172,-0.2857,-0.241,0.0,0.0,0.0,0.0,0.0,0.0,0.0,0.0,0.0,0.0,0.0,0.0,0.0,0.0,0.0,0.0,0.0,0.0,0.0,0.0,0.0,0.0,0.0,0.0,0.0,0.0,0.0,0.0,0.0,0.0,0.0,0.0,0.0,0.0,0.0,0.0,0.0,0.0,0.0,0.0,0.0,0.0,0.0,0.0,0.0,0.0,0.0,0.0,0.0,0.0,0.0,0.0,0.0,0.0,0.0,0.0,0.0,0.0,0.0,0.0,0.0,0.0,0.0,0.0,0.0,0.0,0.0,0.0,0.0,0.0,0.0,0.0,0.0,0.0,0.0,0.0,0.0,0.0,0.0,0.0,0.0,0.0,0.0,0.0,0.0,0.0,0.0,0.0,0.0,0.0,0.0,0.0,0.0,0.0,0.0,0.0,0.0,0.0,0.0,0.0,0.0,0.0,0.0,0.0,0.0,0.0,0.0,0.0,0.0,-0.5925,-0.593,-0.611,-0.6432,-0.5016,-0.423,-0.4199,0.0,0.0,0.0,0.0,0.0,0.0,0.0,0.0,0.0,0.0,0.0,0.0,0.0,0.0,0.0,0.0,0.0,0.0,0.0,0.0,0.0,0.0,0.0,0.0,0.0,0.0,0.0,0.0,0.0,0.0,0.0,0.0,0.0,0.0,0.0,0.0,0.0,0.0,0.0,0.0,0.0,0.0,0.0,0.0,0.0,0.0,0.0,0.0,0.0,0.0,0.0,0.0,0.0,0.0,0.0,0.0,0.0,0.0,0.0,0.0,0.0,0.0,0.0,0.0,0.0,0.0,0.0,0.0,0.0,0.0,0.0,0.0,0.0,0.0,0.0,0.0,0.0,0.0,0.0,0.0,0.0,0.0,0.0,0.0,0.0,0.0,0.0,0.0,0.0,0.0,0.0,0.0,0.0,0.0,0.0,0.0,0.0,0.0,0.0,0.0,0.0,0.0,0.0,0.0,0.0,0.0,0.0,0.0,-0.9864,-0.9294,-0.892,-0.8681,-0.7909,-0.666,0.0,0.0,0.0,0.0,0.0,0.0,0.0,0.0,0.0,0.0,0.0,0.0,0.0,0.0,0.0,0.0,0.0,0.0,0.0,0.0,0.0,0.0,0.0,0.0,0.0,0.0,0.0,0.0,0.0,0.0,0.0,0.0,0.0,0.0,0.0,0.0,0.0,0.0,0.0,0.0,0.0,0.0,0.0,0.0,0.0,0.0,0.0,0.0,0.0,0.0,0.0,0.0,0.0,0.0,0.0,0.0,0.0,0.0,0.0,0.0,0.0,0.0,0.0,0.0,0.0,0.0,0.0,0.0,0.0,0.0,0.0,0.0,0.0,0.0,0.0,0.0,0.0,0.0,0.0,0.0,0.0,0.0,0.0,0.0,0.0,0.0,0.0,0.0,0.0,0.0,0.0,0.0,0.0,0.0,0.0,0.0,0.0,0.0,0.0,0.0,0.0,0.0,0.0,0.0,0.0,0.0,0.0,0.0,0.0,-1.3271,-1.4969,-1.4947,-1.2968,-1.0359,-0.9039,0.0,0.0,0.0,0.0,0.0,0.0,0.0,0.0,0.0,0.0,0.0,0.0,0.0,0.0,0.0,0.0,0.0,0.0,0.0,0.0,0.0,0.0,0.0,0.0,0.0,0.0,0.0,0.0,0.0,0.0,0.0,0.0,0.0,0.0,0.0,0.0,0.0,0.0,0.0,0.0,0.0,0.0,0.0,0.0,0.0,0.0,0.0,0.0,0.0,0.0,0.0,0.0,0.0,0.0,0.0,0.0,0.0,0.0,0.0,0.0,0.0,0.0,0.0,0.0,0.0,0.0,0.0,0.0,0.0,0.0,0.0,0.0,0.0,0.0,0.0,0.0,0.0,0.0,0.0,0.0,0.0,0.0,0.0,0.0,0.0,0.0,0.0,0.0,0.0,0.0,0.0,0.0,0.0,0.0,0.0,0.0,0.0,0.0,0.0,0.0,0.0,0.0,0.0,0.0,0.0,0.0,0.0,0.0,-1.4227,-1.6028,-1.8986,-1.9846,-1.8425,-1.4593,-1.2127,0.0,0.0,0.0,0.0,0.0,0.0,0.0,0.0,0.0,0.0,0.0,0.0,0.0,0.0,0.0,0.0,0.0,0.0,0.0,0.0,0.0,0.0,0.0,0.0,0.0,0.0,0.0,0.0,0.0,0.0,0.0,0.0,0.0,0.0,0.0,0.0,0.0,0.0,0.0,0.0,0.0,0.0,0.0,0.0,0.0,0.0,0.0,0.0,0.0,0.0,0.0,0.0,0.0,0.0,0.0,0.0,0.0,0.0,0.0,0.0,0.0,0.0,0.0,0.0,0.0,0.0,0.0,0.0,0.0,0.0,0.0,0.0,0.0,0.0,0.0,0.0,0.0,0.0,0.0,0.0,0.0,0.0,0.0,0.0,0.0,0.0,0.0,0.0,0.0,0.0,0.0,0.0,0.0,0.0,0.0,0.0,0.0,0.0,0.0,0.0,0.0,0.0,0.0,0.0,0.0,0.0,0.0,0.0,-1.6802,-1.8337,-2.1735,-2.3562,-2.359,-1.9109,-1.527,0.0,0.0,0.0,0.0,0.0,0.0,0.0,0.0,0.0,0.0,0.0,0.0,0.0,0.0,0.0,0.0,0.0,0.0,0.0,0.0,0.0,0.0,0.0,0.0,0.0,0.0,0.0,0.0,0.0,0.0,0.0,0.0,0.0,0.0,0.0,0.0,0.0,0.0,0.0,0.0,0.0,0.0,0.0,0.0,0.0,0.0,0.0,0.0,0.0,0.0,0.0,0.0,0.0,0.0,0.0,0.0,0.0,0.0,0.0,0.0,0.0,0.0,0.0,0.0,0.0,0.0,0.0,0.0,0.0,0.0,0.0,0.0,0.0,0.0,0.0,0.0,0.0,0.0,0.0,0.0,0.0,0.0,0.0,0.0,0.0,0.0,0.0,0.0,0.0,0.0,0.0,0.0,0.0,0.0,0.0,0.0,0.0,0.0,0.0,0.0,0.0,0.0,0.0,0.0,0.0,0.0,0.0,0.0,-1.8107,-2.0573,-2.3046,-2.4372,-2.4439,-1.9126,-1.594,0.0,0.0,0.0,0.0,0.0,0.0,0.0,0.0,0.0,0.0,0.0,0.0,0.0,0.0,0.0,0.0,0.0,0.0,0.0,0.0,0.0,0.0,0.0,0.0,0.0,0.0,0.0,0.0,0.0,0.0,0.0,0.0,0.0,0.0,0.0,0.0,0.0,0.0,0.0,0.0,0.0,0.0,0.0,0.0,0.0,0.0,0.0,0.0,-0.3591,0.0,0.0,0.0,0.0,0.0,0.0,0.0,0.0,0.0,0.0,0.0,0.0,0.0,0.0,0.0,0.0,0.0,0.0,0.0,0.0,0.0,0.0,0.0,0.0,0.0,0.0,0.0,0.0,0.0,0.0,0.0,0.0,0.0,0.0,0.0,0.0,0.0,0.0,0.0,0.0,0.0,0.0,0.0,0.0,0.0,0.0,0.0,0.0,0.0,0.0,0.0,0.0,0.0,0.0,0.0,0.0,0.0,0.0,0.0,-1.891,-2.1886,-2.3909,-2.4953,-2.4836,-2.0864,-1.8,0.0,0.0,0.0,0.0,0.0,0.0,0.0,0.0,0.0,0.0,0.0,0.0,0.0,0.0,0.0,0.0,0.0,0.0,0.0,0.0,0.0,0.0,0.0,0.0,0.0,0.0,0.0,0.0,0.0,0.0,0.0,0.0,0.0,0.0,0.0,0.0,0.0,0.0,0.0,0.0,0.0,0.0,0.0,0.0,0.0,0.0,0.0,0.0,0.0,0.0,0.0,0.0,0.0,0.0,0.0,0.0,0.0,0.0,0.0,0.0,0.0,0.0,0.0,0.0,0.0,0.0,0.0,0.0,0.0,0.0,0.0,0.0,0.0,0.0,0.0,0.0,0.0,0.0,0.0,0.0,0.0,0.0,0.0,0.0,0.0,0.0,0.0,0.0,0.0,0.0,0.0,0.0,0.0,0.0,0.0,0.0,0.0,0.0,0.0,0.0,0.0,0.0,0.0,0.0,0.0,0.0,0.0,-1.693,-1.9468,-2.2985,-2.4569,-2.5333,-2.529,-2.2972,-2.0292,-1.7329,0.0,0.0,0.0,0.0,0.0,0.0,0.0,0.0,0.0,0.0,0.0,0.0,0.0,0.0,0.0,0.0,0.0,0.0,0.0,0.0,0.0,0.0,0.0,0.0,0.0,0.0,0.0,0.0,0.0,0.0,0.0,0.0,0.0,0.0,0.0,0.0,0.0,0.0,-0.4879,-0.4927,0.0,0.0,0.0,0.0,0.0,0.0,0.0,0.0,-0.4345,0.0,0.0,0.0,0.0,0.0,0.0,0.0,0.0,0.0,0.0,0.0,0.0,0.0,0.0,0.0,0.0,0.0,0.0,0.0,0.0,0.0,0.0,0.0,0.0,0.0,0.0,0.0,0.0,0.0,0.0,0.0,0.0,0.0,0.0,0.0,0.0,0.0,0.0,0.0,0.0,0.0,0.0,0.0,0.0,0.0,0.0,0.0,0.0,0.0,0.0,0.0,0.0,0.0,0.0,0.0,0.0,-1.726,-1.7636,-2.0103,-2.4805,-2.5253,-2.541,-2.5414,-2.3651,-2.1099,-1.7829,0.0,0.0,0.0,0.0,0.0,0.0,0.0,0.0,0.0,0.0,0.0,0.0,0.0,0.0,0.0,0.0,0.0,0.0,0.0,0.0,0.0,0.0,0.0,0.0,0.0,0.0,0.0,0.0,0.0,0.0,0.0,0.0,0.0,0.0,0.0,0.0,0.0,0.0,0.0,-0.7544,-0.7983,0.0,0.0,0.0,0.0,0.0,0.0,0.0,0.0,-0.8515,0.0,0.0,0.0,0.0,0.0,0.0,0.0,0.0,0.0,0.0,0.0,0.0,0.0,0.0,0.0,0.0,0.0,0.0,0.0,0.0,0.0,0.0,0.0,0.0,0.0,0.0,0.0,0.0,0.0,0.0,0.0,0.0,0.0,0.0,0.0,0.0,0.0,0.0,0.0,0.0,0.0,0.0,0.0,0.0,0.0,0.0,0.0,0.0,0.0,0.0,0.0,0.0,0.0,0.0,0.0,-1.7587,-1.909,-2.1575,-2.5193,-2.5418,-2.5447,-2.5342,-2.3335,-2.0805,0.0,0.0,0.0,0.0,0.0,0.0,0.0,0.0,0.0,0.0,0.0,0.0,0.0,0.0,0.0,0.0,0.0,0.0,0.0,0.0,0.0,0.0,0.0,0.0,0.0,0.0,0.0,0.0,0.0,0.0,0.0,0.0,0.0,0.0,0.0,0.0,0.0,0.0,0.0,0.0,-0.8947,-0.965,-1.1411,0.0,0.0,0.0,0.0,0.0,0.0,-1.1514,-1.0982,0.0,0.0,0.0,0.0,0.0,0.0,0.0,0.0,0.0,0.0,0.0,0.0,0.0,0.0,0.0,0.0,0.0,0.0,0.0,0.0,0.0,0.0,0.0,0.0,0.0,0.0,0.0,0.0,0.0,0.0,0.0,0.0,0.0,0.0,0.0,0.0,0.0,0.0,0.0,0.0,0.0,0.0,0.0,0.0,0.0,0.0,0.0,0.0,0.0,0.0,0.0,0.0,0.0,0.0,0.0,-1.7675,-2.0257,-2.2782,-2.5129,-2.5388,-2.5376,-2.5201,-2.2504,-1.9926,0.0,0.0,0.0,0.0,0.0,0.0,0.0,0.0,0.0,0.0,0.0,0.0,0.0,0.0,0.0,0.0,0.0,0.0,0.0,0.0,0.0,0.0,0.0,0.0,0.0,0.0,0.0,0.0,0.0,0.0,0.0,0.0,0.0,0.0,0.0,0.0,0.0,0.0,0.0,0.0,0.0,-1.1448,-1.3924,-1.2934,0.0,0.0,0.0,0.0,-1.6257,-1.5242,0.0,0.0,0.0,0.0,0.0,0.0,0.0,0.0,0.0,0.0,0.0,0.0,0.0,0.0,0.0,0.0,0.0,0.0,0.0,0.0,0.0,0.0,0.0,0.0,0.0,0.0,0.0,0.0,0.0,0.0,0.0,0.0,0.0,0.0,0.0,0.0,0.0,0.0,0.0,0.0,0.0,0.0,0.0,0.0,0.0,0.0,0.0,0.0,0.0,0.0,0.0,0.0,0.0,0.0,0.0,0.0,-1.7696,-2.0215,-2.2681,-2.4971,-2.5187,-2.5178,-2.4982,-2.1148,-1.8557,0.0,0.0,0.0,0.0,0.0,0.0,0.0,0.0,0.0,0.0,0.0,0.0,0.0,0.0,0.0,0.0,0.0,0.0,0.0,0.0,0.0,0.0,0.0,0.0,0.0,0.0,0.0,0.0,0.0,0.0,0.0,0.0,0.0,0.0,0.0,0.0,0.0,0.0,0.0,0.0,0.0,-1.4398,-1.5225,-1.4542,-1.4199,0.0,0.0,-1.7202,-1.8368,-1.8993,0.0,0.0,0.0,0.0,0.0,0.0,0.0,0.0,0.0,0.0,0.0,0.0,0.0,0.0,0.0,0.0,0.0,0.0,0.0,0.0,0.0,0.0,0.0,0.0,0.0,0.0,0.0,0.0,0.0,0.0,0.0,0.0,0.0,0.0,0.0,0.0,0.0,0.0,0.0,0.0,0.0,0.0,0.0,0.0,0.0,0.0,0.0,0.0,0.0,0.0,0.0,0.0,0.0,0.0,0.0,-1.6524,-1.7784,-2.1441,-2.3933,-2.5034,-2.5056,-2.4898,-2.4672,-2.0282,-1.7669,0.0,0.0,0.0,0.0,0.0,0.0,0.0,0.0,0.0,0.0,0.0,0.0,0.0,0.0,0.0,0.0,0.0,0.0,0.0,0.0,0.0,0.0,0.0,0.0,0.0,0.0,0.0,0.0,0.0,0.0,0.0,0.0,0.0,0.0,0.0,0.0,0.0,0.0,0.0,0.0,0.0,0.0,-1.6886,-1.715,0.0,0.0,0.0,-1.9132,-1.9169,0.0,0.0,0.0,0.0,0.0,0.0,0.0,0.0,0.0,0.0,0.0,0.0,0.0,0.0,0.0,0.0,0.0,0.0,0.0,0.0,0.0,0.0,0.0,0.0,0.0,0.0,0.0,0.0,0.0,0.0,0.0,0.0,0.0,0.0,0.0,0.0,0.0,0.0,0.0,0.0,0.0,0.0,0.0,0.0,0.0,0.0,0.0,0.0,0.0,0.0,0.0,0.0,0.0,0.0,0.0,0.0,0.0,-1.7791,-2.2464,-2.4968,-2.5082,-2.4966,-2.4756,-2.4444,-2.0335,0.0,0.0,0.0,0.0,0.0,0.0,0.0,0.0,0.0,0.0,0.0,0.0,0.0,0.0,0.0,0.0,0.0,0.0,0.0,0.0,0.0,0.0,0.0,0.0,0.0,0.0,0.0,-0.4022,0.0,0.0,0.0,0.0,0.0,0.0,0.0,0.0,0.0,0.0,0.0,0.0,0.0,0.0,-1.6221,-1.8635,-1.9342,-1.9842,0.0,0.0,-2.0648,-2.0841,-2.2023,-2.1702,0.0,0.0,0.0,0.0,0.0,0.0,0.0,0.0,0.0,0.0,0.0,0.0,0.0,0.0,0.0,0.0,0.0,0.0,0.0,0.0,0.0,0.0,0.0,0.0,0.0,0.0,0.0,0.0,0.0,0.0,0.0,0.0,0.0,0.0,0.0,0.0,0.0,0.0,0.0,0.0,0.0,0.0,0.0,0.0,0.0,0.0,0.0,0.0,0.0,0.0,0.0,0.0,0.0,0.0,0.0,-1.7857,-2.2698,-2.5201,-2.5094,-2.4974,-2.4861,-2.4718,-2.1924,-1.9369,0.0,0.0,0.0,0.0,0.0,0.0,0.0,0.0,0.0,0.0,0.0,0.0,0.0,0.0,0.0,0.0,0.0,0.0,0.0,0.0,0.0,0.0,0.0,0.0,0.0,0.0,0.0,0.0,0.0,0.0,0.0,0.0,0.0,0.0,0.0,0.0,0.0,0.0,0.0,0.0,0.0,-1.8159,-2.0492,-2.0531,-2.1596,0.0,0.0,-2.1979,-2.4437,-2.4898,-2.3569,-1.9373,0.0,0.0,0.0,0.0,0.0,0.0,0.0,0.0,0.0,0.0,0.0,0.0,0.0,0.0,0.0,0.0,0.0,0.0,0.0,0.0,0.0,0.0,0.0,0.0,0.0,0.0,0.0,0.0,0.0,0.0,0.0,0.0,0.0,0.0,0.0,0.0,0.0,0.0,0.0,0.0,0.0,0.0,0.0,0.0,0.0,0.0,0.0,0.0,0.0,0.0,0.0,0.0,0.0,-1.7603,-1.7635,-2.2426,-2.4915,-2.4921,-2.4823,-2.4716,-2.4607,-2.2171,-1.9625,0.0,0.0,0.0,0.0,0.0,0.0,0.0,0.0,0.0,0.0,0.0,0.0,0.0,0.0,0.0,0.0,0.0,0.0,0.0,0.0,0.0,0.0,0.0,0.0,0.0,0.0,0.0,0.0,-0.9095,-1.3048,-1.5033,0.0,0.0,0.0,0.0,0.0,0.0,0.0,0.0,0.0,0.0,-1.9601,-2.2669,-2.3589,0.0,0.0,-2.5425,-2.4466,-2.4529,-2.5552,-2.4649,-1.9662,-1.8745,0.0,0.0,0.0,0.0,0.0,0.0,0.0,0.0,0.0,0.0,0.0,0.0,0.0,0.0,0.0,0.0,0.0,0.0,0.0,0.0,0.0,0.0,0.0,0.0,0.0,0.0,0.0,0.0,0.0,0.0,0.0,0.0,0.0,0.0,0.0,0.0,0.0,0.0,0.0,0.0,0.0,0.0,0.0,0.0,0.0,0.0,0.0,0.0,0.0,0.0,0.0,0.0,-1.7546,-1.7576,-2.2362,-2.4847,-2.4902,-2.4808,-2.4734,-2.4636,-2.2929,-2.0774,0.0,0.0,0.0,0.0,0.0,0.0,0.0,0.0,0.0,0.0,0.0,0.0,0.0,0.0,0.0,0.0,0.0,0.0,0.0,0.0,0.0,0.0,0.0,0.0,0.0,0.0,0.0,0.0,-0.8021,-0.9555,-1.1597,0.0,0.0,0.0,0.0,0.0,0.0,0.0,0.0,0.0,0.0,-2.1437,-2.4198,-2.5411,-2.6322,-2.7252,-2.6508,-2.5553,-2.4689,-2.5302,-2.4459,-2.0371,0.0,0.0,0.0,0.0,0.0,0.0,0.0,0.0,0.0,0.0,0.0,0.0,0.0,0.0,0.0,0.0,0.0,0.0,0.0,0.0,0.0,0.0,0.0,0.0,0.0,0.0,0.0,0.0,0.0,0.0,-0.6186,0.0,0.0,0.0,0.0,0.0,0.0,0.0,0.0,0.0,0.0,0.0,0.0,0.0,0.0,0.0,0.0,0.0,0.0,0.0,0.0,0.0,0.0,-1.7689,-1.7742,-2.2612,-2.5145,-2.5091,-2.4949,-2.4947,-2.5057,-2.4522,-2.3132,-2.0821,0.0,0.0,0.0,0.0,0.0,0.0,0.0,0.0,0.0,0.0,0.0,0.0,0.0,0.0,0.0,0.0,0.0,0.0,0.0,0.0,0.0,0.0,0.0,0.0,0.0,0.0,-1.2203,-1.3078,-1.3174,0.0,0.0,0.0,0.0,0.0,0.0,0.0,0.0,0.0,0.0,-2.0449,-2.38,-2.4907,-2.5345,-2.6215,-2.7843,-2.6019,-2.4704,-2.5539,-2.4258,-2.2731,0.0,0.0,0.0,0.0,0.0,0.0,0.0,0.0,0.0,0.0,0.0,0.0,0.0,0.0,0.0,0.0,0.0,0.0,0.0,0.0,0.0,0.0,0.0,0.0,0.0,0.0,0.0,-0.6295,-0.6496,0.0,0.0,0.0,0.0,0.0,0.0,0.0,0.0,0.0,0.0,0.0,-1.5681,-1.6483,0.0,0.0,0.0,0.0,0.0,0.0,0.0,0.0,0.0,0.0,0.0,0.0,-1.7549,-1.7719,-2.2483,-2.5025,-2.4921,-2.494,-2.4985,-2.5025,-2.4768,-2.3419,-2.0905,0.0,0.0,0.0,0.0,0.0,0.0,0.0,0.0,0.0,0.0,0.0,0.0,0.0,0.0,0.0,0.0,0.0,0.0,0.0,0.0,0.0,0.0,0.0,0.0,0.0,-1.0173,0.0,0.0,0.0,0.0,0.0,0.0,0.0,0.0,0.0,0.0,0.0,-1.732,-1.9499,-2.1705,-2.3654,-2.5151,-2.6437,-2.7646,0.0,0.0,0.0,0.0,0.0,0.0,0.0,0.0,0.0,0.0,0.0,0.0,0.0,0.0,-2.3372,-1.7957,-1.7597,-1.8174,-1.8202,0.0,0.0,0.0,0.0,0.0,0.0,0.0,0.0,0.0,0.0,0.0,0.0,0.0,0.0,0.0,0.0,-0.8746,0.0,0.0,0.0,0.0,0.0,0.0,0.0,0.0,-1.6451,-1.7676,-1.8108,-1.8868,-1.8995,0.0,-1.8079,-1.6388,0.0,0.0,0.0,0.0,0.0,0.0,0.0,0.0,-1.7623,-1.8079,-2.2583,-2.495,-2.487,-2.495,-2.4977,-2.4931,-2.4757,-2.3817,-2.2004,-1.9011,-1.6778,0.0,0.0,0.0,0.0,0.0,0.0,0.0,0.0,0.0,0.0,0.0,0.0,0.0,0.0,0.0,0.0,0.0,0.0,0.0,0.0,0.0,0.0,0.0,-1.0886,0.0,0.0,0.0,0.0,0.0,0.0,0.0,0.0,0.0,-2.0415,-1.9789,-2.0192,-2.3143,-2.4238,-2.4948,-2.5463,0.0,0.0,0.0,0.0,0.0,0.0,0.0,-2.5208,-2.3747,-2.4992,-2.5925,-2.5192,-2.7213,-2.8757,-2.8241,0.0,0.0,-2.2507,-2.1862,-2.2328,-2.2598,-2.3523,-2.4343,-2.4436,-2.4705,-2.4614,0.0,0.0,0.0,0.0,0.0,0.0,0.0,0.0,-1.3295,-1.3524,0.0,-1.238,0.0,0.0,0.0,0.0,0.0,-1.5469,0.0,0.0,-2.1235,-2.2561,-2.1455,-2.1513,-2.1551,-2.1498,-2.0273,-1.9187,-1.8268,-1.7614,0.0,0.0,0.0,0.0,0.0,0.0,-1.8004,-1.8973,-2.2918,-2.4991,-2.4996,-2.4996,-2.4922,-2.4791,-2.4532,-2.4303,-2.4022,-2.1823,-2.0241,-1.939,-1.5035,0.0,0.0,0.0,0.0,0.0,0.0,0.0,0.0,0.0,0.0,0.0,0.0,0.0,0.0,0.0,0.0,0.0,0.0,0.0,0.0,-1.388,0.0,0.0,0.0,0.0,0.0,0.0,0.0,0.0,0.0,0.0,-2.7188,-2.4336,-2.312,-2.6645,0.0,0.0,0.0,0.0,-2.7712,-2.6169,-2.5879,-2.5664,-2.4881,-2.7173,-2.8586,-2.7225,0.0,0.0,-2.9764,-3.0125,-3.0909,-3.0884,-3.1588,-3.1336,-2.8857,-2.6929,-2.6105,-2.6955,-2.8201,-2.8645,-2.7671,-2.8162,-2.8203,-1.3185,0.0,0.0,0.0,0.0,-1.1891,-1.282,-1.4049,-1.4257,-1.442,-1.4486,-1.4083,0.0,0.0,0.0,0.0,0.0,0.0,-1.7213,-1.8795,-2.043,-2.1714,-2.2754,-2.3022,-2.3184,-2.3188,-2.2867,-2.2594,-2.2392,-2.2323,-1.9361,-1.3718,0.0,0.0,0.0,0.0,-1.9682,-2.063,-2.348,-2.4945,-2.485,-2.4856,-2.4734,-2.4534,-2.4426,-2.4321,-2.4152,-2.3511,-2.2208,-2.0262,-1.8384,0.0,0.0,0.0,0.0,0.0,0.0,0.0,0.0,0.0,0.0,0.0,0.0,0.0,0.0,0.0,0.0,0.0,0.0,0.0,-1.4736,-1.597,-1.5816,0.0,0.0,0.0,0.0,0.0,0.0,0.0,0.0,0.0,-2.5898,-2.4824,-2.4023,0.0,0.0,-2.5312,-2.4814,-2.6731,-2.8279,-2.8455,0.0,0.0,0.0,-2.9567,-2.9398,-2.9637,-3.1859,-3.3209,-3.226,-3.3327,-3.4334,-3.4323,-3.4528,-3.4445,-3.3724,-3.1902,-3.0936,-3.1814,-3.2445,-3.2749,-3.2596,-3.3182,-3.358,-1.5828,-1.4063,-1.3614,-1.3669,-1.4109,-1.4239,-1.5145,-1.6547,-1.6608,-1.6668,-1.6681,-1.63,-1.5951,-1.5688,-1.5391,0.0,0.0,0.0,-1.9006,-2.095,-2.1785,-2.2625,-2.3504,-2.4035,-2.4124,-2.3876,-2.4018,-2.4037,-2.4016,-2.3897,-2.1362,-1.6627,0.0,0.0,-1.5902,-1.8896,-2.0865,-2.1749,-2.3879,-2.4926,-2.4817,-2.4689,-2.4545,-2.4393,-2.4357,-2.4284,-2.4209,-2.419,-2.3492,-2.2024,-2.0652,-1.8596,0.0,0.0,0.0,0.0,0.0,0.0,0.0,0.0,0.0,0.0,0.0,-0.9695,0.0,0.0,0.0,0.0,-1.4058,-1.7636,-1.6497,-1.7293,0.0,0.0,0.0,0.0,0.0,0.0,0.0,-1.8867,-2.1113,-2.3118,-2.4514,-2.5603,-2.629,-2.6418,-2.6719,-2.6816,-2.6463,0.0,-2.9841,-3.0057,-3.0486,-3.0985,-3.1477,-3.125,-3.1354,-3.2641,-3.3645,-3.4306,-3.4358,-3.521,-3.5807,-3.5833,-3.583,-3.5841,-3.5833,-3.4722,-3.402,-3.4664,-3.4878,-3.5017,-3.5194,-3.5636,-3.601,-1.7885,-1.8204,-1.6728,-1.6434,-1.6928,-1.6752,-1.7885,-1.9792,-1.9692,-1.9664,-1.9604,-1.8798,-1.8201,-1.7767,-1.7199,0.0,-1.9461,-2.0535,-2.1931,-2.3584,-2.4581,-2.4701,-2.4049,-2.4755,-2.4701,-2.4016,-2.426,-2.4243,-2.399,-2.3474,-2.2449,-2.1038,-2.121,-2.0497,-1.9058,-2.0489,-2.173,-2.2581,-2.4107,-2.485,-2.4775,-2.4513,-2.4394,-2.4376,-2.4284,-2.419,-2.419,-2.419,-2.419,-2.4135,-2.2142,-2.1946,-2.3691,0.0,0.0,0.0,0.0,0.0,0.0,0.0,0.0,0.0,0.0,0.0,0.0,0.0,0.0,0.0,-1.7819,0.0,-1.8345,-1.8214,0.0,0.0,0.0,-1.7585,-1.9325,-2.1048,-2.1801,-2.1004,0.0,0.0,-2.379,0.0,-2.9316,-2.9562,-3.0247,-3.0405,-2.9603,-3.0975,-3.1913,-3.1152,-3.1168,-3.1259,-3.1672,-3.261,-3.3892,-3.5302,-3.5893,-3.5796,-3.5793,-3.5832,-3.5893,-3.589,-3.5896,-3.5899,-3.5899,-3.5818,-3.5918,-3.5848,-3.5898,-3.5977,-3.5948,-3.5982,-3.601,-1.8963,-1.9384,-1.8995,-1.8942,-1.9053,-1.9072,-1.9766,-2.086,-2.0414,-2.0251,-2.0243,-1.9836,-1.9923,-2.0426,-2.1118,-2.1632,-2.2057,-2.345,-2.4295,-2.4734,-2.5481,-2.5778,-2.566,-2.5823,-2.5823,-2.5642,-2.5754,-2.5466,-2.4844,-2.4986,-2.4255,-2.2809,-2.3016,-2.2007,-1.9874,-2.1369,-2.2602,-2.3398,-2.3763,-2.411,-2.447,-2.4339,-2.4265,-2.4247,-2.4209,-2.419,-2.419,-2.419,-2.419,-2.419,-2.3676,-2.2809,-2.1504,-1.7263,0.0,0.0,0.0,0.0,0.0,0.0,0.0,0.0,0.0,-1.0949,-0.7514,0.0,-1.5017,0.0,-1.4815,-1.9104,-1.99,-2.0434,0.0,0.0,-2.074,-2.0253,-2.1989,-2.3728,-2.4686,-2.4492,-2.6722,-2.8138,-2.7709,-2.9211,-3.0339,-3.0399,-3.0121,-2.9782,-2.9588,-3.1569,-3.3007,-3.287,-3.3767,-3.4671,-3.4581,-3.4998,-3.5373,-3.5812,-3.5893,-3.5893,-3.5893,-3.5893,-3.5893,-3.5896,-3.5893,-3.5898,-3.5898,-3.5937,-3.597,-3.5968,-3.5999,-3.6013,-3.6016,-3.6013,-3.601,-1.9924,-2.02,-2.0451,-2.0513,-2.0438,-2.0243,-2.0834,-2.1914,-2.1133,-2.0774,-2.0848,-2.0879,-2.1486,-2.2524,-2.3157,-2.3498,-2.3639,-2.4466,-2.4931,-2.5147,-2.6011,-2.629,-2.6051,-2.6495,-2.6548,-2.6222,-2.6245,-2.6032,-2.5637,-2.58,-2.5521,-2.4745,-2.4566,-2.3596,-2.2004,-2.2287,-2.2716,-2.3208,-2.3407,-2.378,-2.4369,-2.4266,-2.3859,-2.3162,-2.3492,-2.2978,-2.1547,-2.184,-2.1694,-2.1015,-2.1005,-2.0446,-1.9037,-1.6079,-1.3578,0.0,0.0,0.0,0.0,0.0,0.0,0.0,0.0,0.0,0.0,0.0,-1.7183,0.0,-1.76,-2.0629,-1.9413,-2.1083,-2.3086,-2.5102,-2.4163,-2.3931,-2.5269,-2.6617,-2.728,-2.6924,-2.8622,-2.987,-2.9881,-3.0828,-3.1293,-3.0794,-3.1055,-3.1272,-3.1348,-3.2814,-3.4082,-3.4452,-3.5269,-3.589,-3.589,-3.5896,-3.5899,-3.589,-3.5916,-3.5937,-3.5937,-3.5937,-3.5937,-3.5937,-3.5953,-3.5945,-3.5925,-3.5974,-3.5997,-3.597,-3.5974,-3.6004,-3.601,-3.601,-3.601,-2.0832,-2.0869,-2.1292,-2.1467,-2.1417,-2.0961,-2.1491,-2.2584,-2.1542,-2.1133,-2.1296,-2.1796,-2.2742,-2.3902,-2.4083,-2.4247,-2.4469,-2.4678,-2.4974,-2.538,-2.6433,-2.6641,-2.615,-2.7072,-2.72,-2.653,-2.6512,-2.6475,-2.6367,-2.639,-2.6376,-2.6313,-2.5658,-2.4928,-2.4133,-2.3093,-2.2577,-2.2566,-2.3135,-2.3712,-2.4239,-2.3934,-2.3125,-2.1913,-2.2281,-2.1198,-1.8427,-1.9032,-1.8757,-1.7312,-1.7433,-1.7607,-1.7683,-1.4836,-1.3173,0.0,-1.0332,0.0,0.0,0.0,0.0,0.0,0.0,0.0,0.0,-1.7188,-1.7829,-1.8129,-2.2557,-2.3612,-1.9285,-2.1706,-2.48,-2.7782,-2.7678,-2.761,-2.8374,-2.9227,-2.9461,-2.8706,-2.99,-3.0798,-3.0804,-3.17,-3.184,-3.1001,-3.1835,-3.2674,-3.3137,-3.3925,-3.4863,-3.5664,-3.5843,-3.588,-3.5903,-3.5925,-3.5898,-3.5917,-3.5968,-3.601,-3.6013,-3.6013,-3.6007,-3.5974,-3.5974,-3.5951,-3.5899,-3.5938,-3.5958,-3.5919,-3.5958,-3.5986,-3.6004,-3.6007,-3.601,-2.133,-2.1343,-2.1443,-2.1741,-2.2128,-2.2519,-2.2158,-2.131,-2.0584,-2.054,-2.1104,-2.2563,-2.3353,-2.358,-2.4495,-2.4929,-2.5013,-2.5866,-2.6383,-2.659,-2.7321,-2.7698,-2.7674,-2.816,-2.8297,-2.8178,-2.816,-2.7815,-2.7182,-2.7351,-2.6765,-2.5562,-2.5482,-2.4746,-2.3395,0.0,0.0,0.0,-2.3153,-2.3529,-2.3384,-2.2073,-2.1514,-2.1748,-2.0611,0.0,-1.9158,-1.9858,-1.984,-1.8941,-1.9488,0.0,0.0,0.0,0.0,0.0,0.0,0.0,0.0,0.0,0.0,0.0,-1.6826,-1.6601,-1.6436,-1.7164,-1.8477,-2.0546,-2.3475,-2.5258,-2.5261,-2.562,-2.6683,-2.8477,-2.8857,-2.905,-2.9273,-3.0037,-3.0485,-3.0365,-3.0611,-3.0798,-3.0818,-3.0994,-3.1072,-3.0852,-3.1083,-3.1581,-3.2265,-3.3672,-3.4697,-3.4883,-3.5444,-3.5825,-3.5886,-3.5954,-3.5968,-3.6001,-3.5997,-3.6013,-3.6017,-3.6017,-3.5974,-3.5919,-3.5919,-3.5919,-3.589,-3.5904,-3.5899,-3.589,-3.5924,-3.5924,-3.5986,-3.6017,-3.6001,-2.1907,0.0,-2.2184,-2.2424,0.0,-2.2963,-2.2651,-2.1946,-2.2277,-2.2737,-2.3325,-2.428,-2.491,-2.5389,-2.5576,-2.564,-2.564,-2.5464,-2.5745,-2.6387,-2.6864,-2.7452,-2.8129,-2.8448,-2.8587,-2.8587,-2.8587,-2.837,-2.8015,-2.8076,-2.7729,-2.6941,-2.6593,-2.5834,-2.4663,-2.3934,-2.3285,-2.2644,-2.3073,-2.3421,-2.3656,-2.2846,-2.2186,-2.1803,0.0,0.0,0.0,0.0,0.0,0.0,0.0,0.0,0.0,0.0,0.0,-1.8254,-1.731,-1.7302,-1.8506,-1.8782,-1.9535,-2.1074,-2.1297,-2.0652,-1.8997,-2.0384,-2.1875,-2.3146,-2.4465,-2.5666,-2.6768,-2.7343,-2.8174,-2.9472,-2.9819,-2.994,-3.0043,-3.038,-3.0664,-3.0695,-3.0671,-3.0665,-3.0704,-3.1534,-3.159,-3.1028,-3.1928,-3.2483,-3.2274,-3.3212,-3.4256,-3.5075,-3.5584,-3.5888,-3.5898,-3.5916,-3.5973,-3.6001,-3.6005,-3.6005,-3.6009,-3.6009,-3.5986,-3.5909,-3.5885,-3.5885,-3.5899,-3.5894,-3.5894,-3.5899,-3.5894,-3.5894,-3.5948,-3.5981,-3.6013,-2.246,-2.2498,-2.289,-2.3052,-2.3031,-2.3245,-2.3442,-2.3661,0.0,0.0,0.0,-2.5895,-2.6546,-2.7256,-2.6651,-2.6366,-2.6303,-2.4994,-2.4961,-2.5997,-2.635,-2.7063,-2.8057,-2.8422,-2.8587,-2.8587,-2.8587,-2.8587,-2.8587,-2.8587,-2.8587,-2.8533,-2.796,-2.7145,-2.6186,-2.4908,-2.3876,-2.3217,-2.3104,-2.3326,-2.3971,-2.3657,-2.296,-2.1804,-2.2152,-2.1088,-1.8463,-1.9087,-1.8831,-1.7422,-1.749,-1.7743,-1.7968,-1.7977,-1.8092,-1.8352,-1.8568,-1.9609,-2.1507,-2.1905,-2.289,-2.4826,-2.5107,-2.4312,-2.221,-2.3987,-2.5268,-2.5401,-2.5287,-2.5734,-2.7039,-2.8041,-2.9135,-3.024,-3.0452,-3.0479,-3.0479,-3.049,-3.0524,-3.0556,-3.0535,-3.0528,-3.0645,-3.1732,-3.2409,-3.1646,-3.2674,-3.3921,-3.2932,-3.329,-3.4267,-3.5535,-3.5918,-3.5972,-3.5912,-3.5896,-3.5924,-3.5953,-3.5977,-3.5977,-3.5977,-3.5977,-3.5948,-3.5846,-3.584,-3.584,-3.5852,-3.5883,-3.5889,-3.5889,-3.5889,-3.5889,-3.5889,-3.5943,-3.5981,-2.2952,-2.3025,-2.304,-2.3097,-2.3183,-2.4243,-2.5284,-2.6155,-2.5214,-2.4611,-2.4459,-2.6371,-2.7094,-2.6867,-2.6948,-2.704,-2.7065,-2.627,-2.6166,0.0,-2.7068,-2.7531,-2.8037,-2.8414,-2.8587,-2.8587,-2.8587,-2.8587,-2.8587,-2.8587,-2.8587,-2.8569,-2.846,-2.7664,-2.6258,-2.5302,-2.4514,-2.3794,-2.3379,-2.3167,-2.314,-2.1865,-2.1357,-2.1641,-2.0539,-1.9638,-1.9194,-1.9932,-1.9913,-1.9032,-1.962,-2.0647,-2.2024,-2.1565,-2.1995,-2.348,-2.3766,-2.4069,-2.4529,-2.4633,-2.4798,-2.5118,-2.5199,-2.5019,-2.4732,-2.4981,-2.5497,-2.6097,-2.5688,-2.6166,-2.823,-2.8568,-2.9072,-3.0133,-3.0423,-3.0482,-3.0472,-3.0472,-3.0482,-3.0491,-3.051,-3.0519,-3.0629,-3.0921,-3.1469,-3.2016,-3.244,-3.2869,-3.3887,-3.4402,-3.4889,-3.5656,-3.5966,-3.597,-3.5913,-3.588,-3.5914,-3.5914,-3.5914,-3.5914,-3.5938,-3.5919,-3.5872,-3.576,-3.5679,-3.565,-3.5721,-3.5833,-3.5872,-3.5878,-3.5883,-3.5883,-3.5889,-3.5914,-3.5919,-2.2742,-2.298,-2.2705,-2.298,-2.3682,-2.4556,-2.5238,-2.5673,-2.5438,-2.543,-2.5597,-2.6243,-2.7011,-2.7729,-2.7106,-2.7197,-2.7848,-2.6303,-2.6032,-2.6757,-2.6809,-2.7216,-2.7992,-2.8396,-2.8587,-2.8587,-2.8587,-2.8587,-2.8587,-2.8587,-2.8587,-2.8551,-2.8171,-2.7556,-2.6838,-2.5624,-2.4827,-2.4508,-2.3855,-2.3529,-2.351,-2.2868,-2.2667,-2.2996,-2.2282,-2.1951,-2.1951,-2.2299,-2.2336,-2.1969,-2.2299,-2.2868,-2.3584,-2.3363,-2.3581,-2.4372,-2.4554,-2.4718,-2.4936,-2.5094,-2.521,-2.521,-2.521,-2.5401,-2.5822,-2.5459,-2.5554,-2.6364,-2.7236,-2.8141,-2.8853,-2.9211,-2.9658,-3.0171,-3.0304,-3.0348,-3.0359,-3.034,-3.034,-3.034,-3.034,-3.0386,-3.0482,-3.0859,-3.1142,-3.161,-3.1817,-3.2732,-3.4311,-3.4618,-3.4944,-3.5704,-3.5931,-3.5931,-3.5899,-3.5885,-3.5889,-3.5889,-3.582,-3.5833,-3.5858,-3.5889,-3.582,-3.567,-3.5507,-3.5463,-3.5581,-3.5697,-3.576,-3.5787,-3.5794,-3.5807,-3.5878,-3.5889,-3.5894,-2.2402,-2.2625,-2.2275,-2.2776,-2.3913,-2.4339,-2.4717,-2.5048,-2.5308,-2.5894,-2.668,-2.634,-2.6948,-2.8029,-2.7131,-2.7192,-2.7789,-2.6203,-2.5865,-2.669,-2.6619,-2.704,-2.7946,-2.8396,-2.8587,-2.8587,-2.8587,-2.8587,-2.8587,-2.8587,-2.8587,-2.8515,-2.7978,-2.7574,-2.7381,-2.5986,-2.519,-2.4972,-2.4194,-2.3837,-2.3937,-2.3996,-2.4016,-2.4074,-2.4152,-2.419,-2.419,-2.419,-2.419,-2.419,-2.419,-2.419,-2.419,-2.4209,-2.4247,-2.4266,-2.4371,-2.4529,-2.4681,-2.4968,-2.522,-2.5411,-2.5435,-2.5803,-2.6517,-2.6128,-2.6109,-2.7052,-2.8886,-2.9841,-2.944,-2.9765,-3.0204,-3.0204,-3.0204,-3.0218,-3.0204,-3.0204,-3.0204,-3.0204,-3.0204,-3.0234,-3.0444,-3.0902,-3.1207,-3.1249,-3.1646,-3.2664,-3.3979,-3.4311,-3.4681,-3.5363,-3.5752,-3.5883,-3.5872,-3.584,-3.5833,-3.5827,-3.5757,-3.5741,-3.5779,-3.582,-3.5776,-3.5577,-3.535,-3.5321,-3.5514,-3.5554,-3.5599,-3.5669,-3.5685,-3.5753,-3.5878,-3.5889,-3.5889,-2.2418,-2.2036,-2.2067,-2.2531,-2.3231,-2.3362,-2.4259,-2.5458,-2.4592,-2.511,-2.6614,-2.7193,-2.7096,-2.6845,-2.7037,-2.7219,-2.7396,-2.6518,-2.6349,-2.6725,-2.7109,-2.749,-2.7897,-2.837,-2.8587,-2.8587,-2.8587,-2.8587,-2.8587,-2.8587,-2.8587,-2.8587,-2.8515,-2.8098,-2.7417,-2.6548,-2.5733,-2.5009,-2.4194,-2.3816,-2.3816,-2.3955,-2.3978,-2.4034,-2.4133,-2.419,-2.419,-2.419,-2.419,-2.419,-2.419,-2.419,-2.4209,-2.4302,-2.4372,-2.4391,-2.4578,-2.4689,-2.4704,-2.4832,-2.527,-2.6005,-2.6187,-2.6632,-2.7472,-2.7491,-2.7778,-2.8637,-2.9593,-3.0109,-3.0089,-3.0166,-3.0204,-3.0204,-3.0204,-3.0204,-3.0204,-3.0204,-3.0204,-3.0204,-3.0204,-3.0218,-3.0259,-3.0414,-3.0807,-3.1561,-3.1669,-3.2247,-3.3359,-3.3624,-3.3921,-3.4681,-3.5343,-3.5788,-3.5779,-3.5724,-3.5706,-3.565,-3.562,-3.562,-3.564,-3.563,-3.5577,-3.547,-3.5311,-3.5285,-3.535,-3.5418,-3.5457,-3.5568,-3.566,-3.5745,-3.5852,-3.5889,-3.5889,-2.214,-2.2152,-2.1587,-2.1781,-2.2564,-2.3029,-2.3752,-2.4641,-2.4936,-2.5096,-2.5191,-2.6052,-2.6763,-2.7172,-2.6533,-2.6856,-2.786,-2.7201,-2.6906,-2.7038,-2.7045,-2.7129,-2.7361,-2.7954,-2.8246,-2.8326,-2.8492,-2.8587,-2.8587,-2.8587,-2.8587,-2.8587,-2.8587,-2.8406,-2.8062,-2.7308,-2.653,-2.5715,-2.4918,-2.4284,-2.3871,-2.3955,-2.3978,-2.4016,-2.4133,-2.419,-2.419,-2.419,-2.419,-2.419,-2.419,-2.419,-2.419,-2.4247,-2.4303,-2.4284,-2.4444,-2.4572,-2.4689,-2.4828,-2.5321,-2.6256,-2.6378,-2.6956,-2.8223,-2.7988,-2.8236,-2.9459,-2.9994,-3.0204,-3.0204,-3.0204,-3.0204,-3.0204,-3.0204,-3.0204,-3.0204,-3.0223,-3.0204,-3.0204,-3.0204,-3.0223,-3.0218,-3.0221,-3.0643,-3.1409,-3.1419,-3.1643,-3.2947,-3.3271,-3.3673,-3.4481,-3.5343,-3.5781,-3.5729,-3.566,-3.563,-3.5609,-3.5574,-3.5558,-3.555,-3.5438,-3.5355,-3.5326,-3.5254,-3.5226,-3.5251,-3.5281,-3.5307,-3.5451,-3.5601,-3.5729,-3.5779,-3.5846,-3.5883,-2.191,-2.1983,-2.1134,-2.1213,-2.1859,-2.2564,-2.328,-2.3989,-2.4881,-2.5017,-2.4751,-2.5154,-2.6027,-2.6947,-2.6053,-2.6406,-2.7602,-2.723,-2.6982,-2.6989,-2.6877,-2.6824,-2.697,-2.7542,-2.7936,-2.8129,-2.8352,-2.8518,-2.8587,-2.8587,-2.8587,-2.8587,-2.8587,-2.8587,-2.8515,-2.7773,-2.7127,-2.6493,-2.5552,-2.4701,-2.4197,-2.4065,-2.3978,-2.3998,-2.4113,-2.419,-2.419,-2.419,-2.419,-2.419,-2.419,-2.419,-2.419,-2.419,-2.419,-2.4209,-2.4284,-2.4388,-2.4564,-2.4945,-2.5584,-2.6496,-2.6867,-2.7701,-2.8809,-2.8733,-2.8943,-2.9937,-3.0204,-3.0204,-3.0204,-3.0204,-3.0204,-3.0204,-3.0204,-3.0261,-3.051,-3.0529,-3.0548,-3.0529,-3.0624,-3.0433,-3.0261,-3.0218,-3.049,-3.1045,-3.0848,-3.0838,-3.2205,-3.2681,-3.3147,-3.4101,-3.5068,-3.5706,-3.5687,-3.565,-3.5637,-3.5746,-3.5726,-3.5507,-3.5599,-3.5507,-3.5242,-3.532,-3.5242,-3.5226,-3.5258,-3.5258,-3.5239,-3.5378,-3.5504,-3.565,-3.5702,-3.5801,-3.5864,-2.1885,-2.1404,-2.1001,-2.0903,-2.1131,-2.1836,-2.2824,-2.3904,-2.41,-2.4994,-2.6097,-2.4805,-2.4908,-2.6271,-2.5644,-2.5799,-2.6277,-2.6336,-2.6319,-2.6338,-2.664,-2.6824,-2.6937,-2.7313,-2.7701,-2.8002,-2.8129,-2.8326,-2.8587,-2.8587,-2.8587,-2.8587,-2.8587,-2.8587,-2.8496,-2.7845,-2.7375,-2.7145,-2.5896,-2.5009,-2.4849,-2.4317,-2.4032,-2.4034,-2.4133,-2.419,-2.419,-2.419,-2.419,-2.419,-2.419,-2.419,-2.419,-2.419,-2.419,-2.419,-2.4227,-2.4246,-2.4413,-2.5273,-2.6255,-2.7132,-2.8013,-2.9102,-2.9851,-2.9898,-2.9975,-3.0204,-3.0204,-3.0204,-3.0204,-3.0204,-3.0204,-3.0204,-3.0204,-3.051,-3.1236,-3.1236,-3.135,-3.1293,-3.1217,-3.0873,-3.03,-3.0204,-3.0305,-3.0513,-3.0419,-3.0567,-3.1137,-3.167,-3.2497,-3.3541,-3.4661,-3.5568,-3.5626,-3.5948,-3.6119,-3.6133,-3.5998,-3.5576,-3.5806,-3.5921,-3.5557,-3.5293,-3.5242,-3.5226,-3.5261,-3.5273,-3.527,-3.5321,-3.5391,-3.5512,-3.5611,-3.5787,-3.5852,-2.1885,-2.1356,-2.1046,-2.0964,-2.1112,-2.2326,-2.3305,-2.4116,-2.5292,-2.5618,-2.5444,-2.4805,-2.4589,-2.4663,-2.4843,-2.5337,-2.6043,-2.6168,-2.6203,-2.6203,-2.6364,-2.6435,-2.6573,-2.6937,-2.7206,-2.747,-2.7908,-2.8281,-2.8543,-2.8587,-2.8587,-2.8587,-2.8587,-2.8587,-2.8533,-2.8297,-2.7942,-2.7375,-2.6783,-2.6059,-2.5139,-2.4844,-2.4543,-2.4052,-2.4113,-2.419,-2.419,-2.419,-2.419,-2.419,-2.419,-2.419,-2.419,-2.419,-2.419,-2.4245,-2.4667,-2.5001,-2.519,-2.5949,-2.6895,-2.7805,-2.8265,-2.8963,-2.9794,-3.0128,-3.0204,-3.0204,-3.0204,-3.0204,-3.0204,-3.0204,-3.0223,-3.0204,-3.0223,-3.0548,-3.1197,-3.1446,-3.1446,-3.1331,-3.1006,-3.051,-3.0357,-3.0204,-3.0226,-3.0286,-3.0273,-3.0564,-3.1254,-3.2,-3.2986,-3.4439,-3.5618,-3.6385,-3.6556,-3.6867,-3.703,-3.6734,-3.6511,-3.6385,-3.6473,-3.5916,-3.5494,-3.5354,-3.5273,-3.5226,-3.5261,-3.5261,-3.5254,-3.527,-3.5326,-3.5405,-3.55,-3.5659,-3.5745,-2.1993,-2.1608,-2.1302,-2.1141,-2.1276,-2.2549,-2.3284,-2.3878,-2.5607,-2.5952,-2.5241,-2.5168,-2.4864,-2.446,-2.4713,-2.5171,-2.5807,-2.6096,-2.6203,-2.6203,-2.6203,-2.6258,-2.6417,-2.6657,-2.6923,-2.7181,-2.7695,-2.812,-2.8396,-2.8448,-2.8474,-2.8587,-2.8587,-2.8587,-2.8587,-2.8587,-2.8279,-2.7827,-2.7544,-2.6796,-2.5864,-2.5368,-2.4941,-2.4452,-2.424,-2.419,-2.419,-2.419,-2.419,-2.419,-2.419,-2.419,-2.419,-2.419,-2.419,-2.4281,-2.4962,-2.5443,-2.567,-2.6598,-2.7493,-2.8185,-2.8576,-2.9079,-2.9729,-2.9953,-3.0034,-3.0034,-3.0142,-3.0261,-3.0562,-3.0825,-3.0911,-3.0701,-3.0624,-3.0949,-3.1713,-3.2114,-3.2248,-3.2057,-3.1293,-3.0643,-3.0261,-3.0223,-3.0213,-3.0221,-3.0226,-3.0592,-3.1492,-3.2389,-3.3525,-3.5237,-3.6414,-3.7159,-3.7546,-3.7878,-3.7974,-3.7712,-3.7118,-3.7011,-3.6825,-3.6152,-3.5537,-3.5436,-3.5339,-3.5273,-3.5242,-3.5245,-3.5245,-3.5226,-3.5254,-3.5307,-3.5438,-3.5538,-3.567,-2.2185,-2.2077,-2.162,-2.1379,-2.1494,-2.246,-2.2764,-2.3203,-2.4972,-2.5778,-2.5531,-2.5633,-2.5389,-2.5453,-2.5185,-2.5381,-2.5554,-2.593,-2.6151,-2.6168,-2.6203,-2.6274,-2.645,-2.6503,-2.6792,-2.7198,-2.7504,-2.784,-2.8093,-2.812,-2.8246,-2.8492,-2.8492,-2.8466,-2.8562,-2.8492,-2.8518,-2.8301,-2.7734,-2.7326,-2.7194,-2.5932,-2.5234,-2.5081,-2.4561,-2.4257,-2.4244,-2.4208,-2.419,-2.419,-2.419,-2.419,-2.419,-2.419,-2.4226,-2.4411,-2.5017,-2.5401,-2.5695,-2.7149,-2.8064,-2.831,-2.8988,-2.9439,-2.957,-2.9698,-2.9734,-2.9734,-2.9924,-3.0369,-3.1089,-3.1816,-3.2084,-3.1637,-3.1446,-3.1828,-3.2462,-3.3337,-3.3815,-3.3203,-3.2057,-3.1064,-3.0452,-3.0204,-3.0265,-3.0407,-3.0521,-3.0828,-3.1811,-3.2781,-3.3814,-3.5262,-3.6858,-3.8035,-3.8495,-3.8852,-3.8843,-3.8684,-3.7916,-3.7471,-3.7367,-3.6829,-3.5729,-3.5417,-3.5335,-3.5289,-3.5226,-3.5245,-3.5226,-3.5226,-3.5239,-3.5385,-3.5671,-3.5861,-3.5764,-2.2197,-2.2125,-2.1837,-2.1458,-2.1408,-2.2929,-2.346,-2.3294,-2.5032,-2.5531,-2.511,-2.4675,-2.4498,-2.4486,-2.4398,-2.4786,-2.5428,-2.5663,-2.5901,-2.6168,-2.6203,-2.6256,-2.631,-2.6415,-2.6725,-2.7149,-2.7307,-2.7504,-2.7754,-2.7811,-2.7886,-2.7971,-2.7989,-2.7971,-2.8017,-2.7989,-2.7989,-2.7954,-2.7759,-2.7359,-2.6827,-2.6366,-2.5928,-2.5437,-2.5225,-2.5008,-2.4693,-2.4366,-2.4208,-2.419,-2.419,-2.419,-2.419,-2.419,-2.4467,-2.502,-2.579,-2.6523,-2.7111,-2.8018,-2.8688,-2.8743,-2.903,-2.923,-2.9355,-2.933,-2.9431,-2.9513,-2.9513,-2.9811,-3.0954,-3.1571,-3.1922,-3.1783,-3.2119,-3.2271,-3.2367,-3.231,-3.2649,-3.3127,-3.179,-3.0586,-3.028,-3.0204,-3.0461,-3.1063,-3.1456,-3.1962,-3.2541,-3.4021,-3.5415,-3.6265,-3.7699,-3.886,-3.9289,-3.9406,-3.9284,-3.9122,-3.8543,-3.8005,-3.7867,-3.7329,-3.6214,-3.5417,-3.5335,-3.5346,-3.5299,-3.5324,-3.5381,-3.5343,-3.5398,-3.5694,-3.6121,-3.6276,-3.6303,-2.2077,-2.1873,-2.1764,-2.1418,-2.1149,-2.2727,-2.3178,-2.3087,-2.4473,-2.4918,-2.4467,-2.4341,-2.4156,-2.4019,-2.4177,-2.4575,-2.5201,-2.5413,-2.5775,-2.6132,-2.6203,-2.6203,-2.6274,-2.6432,-2.664,-2.6892,-2.6973,-2.7149,-2.7444,-2.7522,-2.7582,-2.7672,-2.7701,-2.773,-2.7701,-2.7701,-2.7701,-2.7701,-2.7713,-2.7455,-2.7016,-2.6711,-2.6335,-2.5949,-2.5667,-2.5433,-2.5159,-2.4643,-2.4285,-2.4206,-2.419,-2.419,-2.419,-2.4208,-2.4558,-2.5369,-2.6158,-2.6943,-2.7735,-2.8466,-2.8975,-2.8975,-2.8975,-2.9044,-2.9193,-2.9228,-2.958,-2.9715,-2.9736,-3.022,-3.1597,-3.2468,-3.2805,-3.3116,-3.3157,-3.3188,-3.2962,-3.2386,-3.2267,-3.2649,-3.1713,-3.072,-3.03,-3.0242,-3.0624,-3.1484,-3.1996,-3.2879,-3.3525,-3.499,-3.5987,-3.7003,-3.8261,-3.9235,-4.0018,-3.9998,-3.9725,-3.9448,-3.9077,-3.8689,-3.8435,-3.7704,-3.6724,-3.5671,-3.5285,-3.5621,-3.5649,-3.5783,-3.5859,-3.5763,-3.5668,-3.6272,-3.676,-3.7026,-3.7076,-2.1909,-2.1464,-2.1583,-2.1314,-2.1011,-2.195,-2.226,-2.2237,-2.3487,-2.402,-2.3966,-2.425,-2.4374,-2.4229,-2.4358,-2.4582,-2.4829,-2.5176,-2.5647,-2.6007,-2.6168,-2.6239,-2.6295,-2.6399,-2.6503,-2.6554,-2.6606,-2.6792,-2.7053,-2.7117,-2.7338,-2.7552,-2.7552,-2.7642,-2.7552,-2.7642,-2.7565,-2.7552,-2.7582,-2.753,-2.7477,-2.69,-2.6562,-2.6532,-2.6033,-2.564,-2.5384,-2.4759,-2.4316,-2.4184,-2.4113,-2.4151,-2.417,-2.419,-2.4538,-2.5496,-2.6209,-2.7034,-2.7805,-2.8576,-2.8975,-2.8975,-2.8975,-2.8998,-2.9072,-2.9627,-3.0068,-3.0134,-3.0307,-3.1144,-3.265,-3.3452,-3.4243,-3.4945,-3.4399,-3.435,-3.4885,-3.3624,-3.2802,-3.2554,-3.1943,-3.1102,-3.0333,-3.0218,-3.0715,-3.1346,-3.1685,-3.2794,-3.3926,-3.5089,-3.637,-3.7326,-3.8072,-3.8833,-3.9385,-4.0112,-3.9706,-3.8677,-3.8708,-3.8881,-3.8377,-3.757,-3.6805,-3.5829,-3.5327,-3.5701,-3.5878,-3.5859,-3.5935,-3.584,-3.6165,-3.6905,-3.7261,-3.7402,-3.7666,-2.2101,-2.2006,-2.1835,-2.1406,-2.1124,-2.1941,-2.2101,-2.1887,-2.2893,-2.3336,-2.3359,-2.3357,-2.3659,-2.3912,-2.3716,-2.3999,-2.4664,-2.4876,-2.5198,-2.5684,-2.6043,-2.6222,-2.6295,-2.633,-2.6399,-2.6485,-2.652,-2.6572,-2.6742,-2.6759,-2.6875,-2.6956,-2.7021,-2.7021,-2.6989,-2.7004,-2.6971,-2.6989,-2.6989,-2.6971,-2.6987,-2.68,-2.6698,-2.6811,-2.6682,-2.6125,-2.533,-2.4258,-2.3723,-2.3642,-2.3816,-2.3896,-2.3992,-2.4149,-2.4832,-2.6105,-2.6523,-2.7233,-2.8393,-2.887,-2.8975,-2.8975,-2.8975,-2.8975,-2.9012,-2.9751,-3.0155,-3.0246,-3.0472,-3.1304,-3.2576,-3.2717,-3.3312,-3.4826,-3.4926,-3.4901,-3.4846,-3.3777,-3.2672,-3.2611,-3.1996,-3.1092,-3.048,-3.0265,-3.0483,-3.1005,-3.1752,-3.2709,-3.388,-3.4703,-3.5809,-3.6233,-3.6922,-3.7816,-3.8673,-3.9593,-3.9438,-3.802,-3.8016,-3.8731,-3.7939,-3.6921,-3.6181,-3.5354,-3.5289,-3.5531,-3.5477,-3.5439,-3.5572,-3.6031,-3.6222,-3.6716,-3.7173,-3.7453,-3.7916,-2.2065,-2.1849,-2.1751,-2.1284,-2.0692,-2.1214,-2.1339,-2.13,-2.1912,-2.2498,-2.2667,-2.2893,-2.3105,-2.3426,-2.3257,-2.3585,-2.4407,-2.4467,-2.4847,-2.5519,-2.599,-2.6187,-2.6241,-2.6258,-2.6293,-2.6397,-2.6399,-2.6468,-2.6554,-2.6537,-2.6606,-2.6708,-2.6674,-2.6674,-2.6742,-2.6708,-2.6708,-2.6708,-2.6708,-2.6708,-2.6708,-2.6708,-2.6725,-2.6825,-2.6892,-2.6487,-2.5519,-2.4602,-2.3894,-2.3583,-2.3562,-2.3815,-2.4266,-2.4444,-2.5319,-2.693,-2.7111,-2.7714,-2.8663,-2.8975,-2.8975,-2.8975,-2.8975,-2.8975,-2.9214,-2.9989,-3.0705,-3.0742,-3.1421,-3.2323,-3.2964,-3.2887,-3.3435,-3.4698,-3.5066,-3.51,-3.5207,-3.3769,-3.3253,-3.3085,-3.2197,-3.0879,-3.0324,-3.0299,-3.0816,-3.1487,-3.1979,-3.2924,-3.3868,-3.4461,-3.5021,-3.556,-3.6176,-3.7092,-3.7814,-3.8654,-3.9166,-3.7847,-3.729,-3.8078,-3.7563,-3.6488,-3.5978,-3.5473,-3.535,-3.5299,-3.5398,-3.5649,-3.6203,-3.6489,-3.6432,-3.685,-3.7536,-3.7594,-3.8044,-2.1776,-2.1392,-2.1449,-2.0913,-2.011,-2.0116,-2.0248,-2.0398,-2.0947,-2.1533,-2.2119,-2.2615,-2.2826,-2.2902,-2.3081,-2.3334,-2.3839,-2.4036,-2.4664,-2.5275,-2.5811,-2.6079,-2.6063,-2.6168,-2.6203,-2.6256,-2.6277,-2.6347,-2.6434,-2.6485,-2.6572,-2.664,-2.6623,-2.6657,-2.6708,-2.6708,-2.6708,-2.6708,-2.6708,-2.6708,-2.6708,-2.6708,-2.6708,-2.6708,-2.6655,-2.6463,-2.5884,-2.5259,-2.4565,-2.3614,-2.3578,-2.4175,-2.4974,-2.5113,-2.5976,-2.7284,-2.7714,-2.8081,-2.8833,-2.8975,-2.8975,-2.8975,-2.8975,-2.8975,-2.9274,-3.0338,-3.1256,-3.1237,-3.2852,-3.3485,-3.3676,-3.3975,-3.4263,-3.4698,-3.4718,-3.4808,-3.4885,-3.3891,-3.3451,-3.4461,-3.2034,-3.0817,-3.0362,-3.0515,-3.0938,-3.1238,-3.173,-3.2133,-3.2905,-3.3446,-3.4255,-3.5139,-3.5793,-3.652,-3.7108,-3.7658,-3.8031,-3.779,-3.7083,-3.7164,-3.7087,-3.6362,-3.5967,-3.5614,-3.5353,-3.5474,-3.5783,-3.6203,-3.6547,-3.6757,-3.6547,-3.7577,-3.8605,-3.8074,-3.8127,-2.0993,-2.1332,-2.0616,-2.0244,-1.9964,-1.9682,-1.9624,-1.9823,-2.0359,-2.0993,-2.1575,-2.2123,-2.2555,-2.2888,-2.2947,-2.3082,-2.3363,-2.3782,-2.4364,-2.4981,-2.5443,-2.5647,-2.5775,-2.599,-2.6168,-2.622,-2.6203,-2.6258,-2.6347,-2.6434,-2.6537,-2.6589,-2.664,-2.6657,-2.6708,-2.6708,-2.6708,-2.6708,-2.6708,-2.6708,-2.6708,-2.6708,-2.6691,-2.6674,-2.6332,-2.6136,-2.5918,-2.5343,-2.489,-2.4753,-2.4857,-2.5163,-2.5529,-2.5793,-2.6568,-2.7482,-2.7879,-2.8191,-2.8815,-2.8975,-2.8975,-2.8975,-2.8975,-2.8994,-2.9085,-3.0448,-3.1274,-3.1659,-3.2816,-3.3733,-3.3834,-3.4049,-3.426,-3.436,-3.4089,-3.4093,-3.462,-3.4219,-3.3478,-3.2728,-3.2048,-3.1078,-3.051,-3.0508,-3.0797,-3.104,-3.1193,-3.1283,-3.1826,-3.2527,-3.3317,-3.4278,-3.4852,-3.5465,-3.6109,-3.6658,-3.7095,-3.726,-3.6746,-3.6385,-3.6309,-3.6121,-3.5672,-3.543,-3.5299,-3.5531,-3.5763,-3.5687,-3.5821,-3.6203,-3.67,-3.7424,-3.7959,-3.7884,-3.84,-2.0179,-2.0523,-1.9778,-1.9658,-1.9806,-1.9441,-1.9263,-1.9512,-2.0055,-2.0696,-2.1321,-2.1921,-2.2477,-2.2902,-2.2888,-2.2992,-2.3216,-2.3739,-2.4173,-2.4623,-2.502,-2.5329,-2.5503,-2.5775,-2.5954,-2.6115,-2.6203,-2.6222,-2.6312,-2.6382,-2.6468,-2.6572,-2.6623,-2.6674,-2.6708,-2.6708,-2.6708,-2.6708,-2.6708,-2.6708,-2.6708,-2.6708,-2.6742,-2.6639,-2.626,-2.6062,-2.6433,-2.5872,-2.5811,-2.5996,-2.6172,-2.6125,-2.6109,-2.6419,-2.7164,-2.8123,-2.8374,-2.8521,-2.8902,-2.8975,-2.8975,-2.8975,-2.8975,-2.8975,-2.9274,-3.0265,-3.0834,-3.1292,-3.2467,-3.3807,-3.3807,-3.3895,-3.4031,-3.4083,-3.3593,-3.3707,-3.4434,-3.3965,-3.3276,-3.2651,-3.2469,-3.2182,-3.1845,-3.1277,-3.1335,-3.187,-3.1429,-3.1462,-3.1462,-3.2081,-3.2393,-3.3106,-3.3681,-3.4293,-3.5009,-3.5637,-3.6251,-3.6305,-3.6044,-3.5837,-3.578,-3.5576,-3.5315,-3.5261,-3.5245,-3.5209,-3.5381,-3.5248,-3.5458,-3.6146,-3.67,-3.7043,-3.754,-3.8171,-3.8897,-1.9221,-1.954,-1.9011,-1.9139,-1.9588,-1.9179,-1.9117,-1.9275,-1.9798,-2.0383,-2.1126,-2.1752,-2.2207,-2.2692,-2.2888,-2.2992,-2.3246,-2.3625,-2.3994,-2.4204,-2.4599,-2.4902,-2.5176,-2.5368,-2.5647,-2.6043,-2.6168,-2.6222,-2.6295,-2.633,-2.6452,-2.6572,-2.6606,-2.664,-2.6691,-2.6708,-2.6708,-2.6708,-2.6708,-2.6708,-2.6708,-2.6708,-2.6742,-2.6707,-2.6482,-2.6424,-2.6762,-2.6595,-2.6571,-2.7247,-2.7299,-2.7013,-2.6736,-2.6899,-2.7579,-2.8803,-2.8772,-2.8832,-2.8868,-2.8952,-2.8975,-2.8975,-2.8975,-2.8975,-2.9237,-2.9934,-3.0411,-3.098,-3.1935,-3.3201,-3.3421,-3.3246,-3.3393,-3.3443,-3.2994,-3.3294,-3.394,-3.3238,-3.2642,-3.3383,-3.289,-3.2458,-3.2503,-3.2259,-3.2464,-3.2483,-3.2004,-3.1736,-3.1761,-3.2105,-3.2723,-3.3125,-3.3876,-3.4351,-3.5009,-3.5273,-3.581,-3.6082,-3.5764,-3.5844,-3.5828,-3.608,-3.6048,-3.5356,-3.5226,-3.5209,-3.519,-3.5209,-3.5592,-3.6243,-3.6453,-3.6566,-3.7387,-3.8514,-3.9049,-1.806,-1.8988,-1.8492,-1.8569,-1.9054,-1.9023,-1.9052,-1.917,-1.9344,-1.9798,-2.0597,-2.1124,-2.1749,-2.2282,-2.2752,-2.3023,-2.3246,-2.348,-2.361,-2.3824,-2.4188,-2.4477,-2.4639,-2.4902,-2.5214,-2.5647,-2.5901,-2.6151,-2.6312,-2.6382,-2.6503,-2.6606,-2.6657,-2.6691,-2.6691,-2.6708,-2.6708,-2.6708,-2.6708,-2.6708,-2.6708,-2.6691,-2.6725,-2.6775,-2.6704,-2.6871,-2.6987,-2.7098,-2.7144,-2.7282,-2.7299,-2.7241,-2.7139,-2.7344,-2.7822,-2.828,-2.8626,-2.8718,-2.8718,-2.89,-2.8975,-2.8975,-2.8975,-2.8975,-2.9237,-2.9843,-3.0173,-3.0448,-3.1017,-3.1843,-3.1788,-3.2008,-3.1905,-3.174,-3.1531,-3.1575,-3.2583,-3.2302,-3.1977,-3.3377,-3.3016,-3.2749,-3.3004,-3.3051,-3.2928,-3.2885,-3.2575,-3.2556,-3.2732,-3.3287,-3.4018,-3.432,-3.4565,-3.4906,-3.5281,-3.5354,-3.5656,-3.6224,-3.6288,-3.6616,-3.6752,-3.7156,-3.6948,-3.5742,-3.5226,-3.519,-3.519,-3.519,-3.5515,-3.605,-3.6069,-3.6012,-3.7082,-3.8075,-3.8056,-1.7143,-1.798,-1.7734,-1.8147,-1.8934,-1.8987,-1.904,-1.9105,-1.9263,-1.9668,-2.0346,-2.1015,-2.1609,-2.2184,-2.2706,-2.3023,-2.3231,-2.326,-2.3392,-2.3638,-2.3824,-2.4094,-2.4261,-2.4492,-2.4823,-2.5137,-2.5438,-2.5864,-2.626,-2.6434,-2.652,-2.6606,-2.6674,-2.6708,-2.6708,-2.6708,-2.6691,-2.6691,-2.6657,-2.6691,-2.6691,-2.6691,-2.6742,-2.6876,-2.6944,-2.706,-2.7154,-2.7218,-2.7282,-2.7299,-2.7299,-2.7299,-2.7345,-2.7421,-2.7617,-2.7876,-2.8299,-2.8576,-2.8626,-2.8834,-2.8975,-2.8975,-2.8975,-2.8975,-2.9067,-2.942,-2.9751,-2.9824,-3.0283,-3.0834,-3.0999,-3.1189,-3.1366,-3.1256,-3.0668,-3.0959,-3.1691,-3.1353,-3.2131,-3.3204,-3.3034,-3.3091,-3.3842,-3.3758,-3.3408,-3.3226,-3.3085,-3.3261,-3.3551,-3.4082,-3.4694,-3.4706,-3.476,-3.5063,-3.5285,-3.5343,-3.5396,-3.5924,-3.6444,-3.6791,-3.6812,-3.6814,-3.6317,-3.54,-3.5171,-3.519,-3.519,-3.5209,-3.5534,-3.5744,-3.5668,-3.584,-3.6795,-3.7445,-3.7483,-1.6361,-1.7024,-1.7135,-1.7809,-1.8762,-1.8987,-1.8987,-1.9052,-1.9223,-1.9577,-2.0118,-2.0764,-2.1456,-2.2058,-2.2601,-2.3023,-2.3246,-2.3275,-2.3392,-2.3566,-2.3653,-2.3824,-2.4036,-2.4204,-2.4354,-2.4784,-2.4879,-2.5253,-2.5885,-2.6206,-2.6382,-2.6469,-2.659,-2.6624,-2.659,-2.6505,-2.6573,-2.647,-2.647,-2.6454,-2.6573,-2.6691,-2.6825,-2.6992,-2.7011,-2.7094,-2.7218,-2.7282,-2.7299,-2.7299,-2.7299,-2.7299,-2.7299,-2.7299,-2.7299,-2.7438,-2.8027,-2.8352,-2.8533,-2.8743,-2.8905,-2.8994,-2.8975,-2.8975,-2.8994,-2.9067,-2.909,-2.9127,-2.9531,-3.0026,-3.021,-3.0613,-3.0797,-3.0705,-3.0344,-3.0281,-3.0909,-3.1159,-3.1459,-3.221,-3.2652,-3.3271,-3.3846,-3.3544,-3.3031,-3.371,-3.3612,-3.368,-3.3965,-3.4276,-3.4674,-3.4706,-3.4818,-3.5101,-3.5254,-3.5242,-3.5277,-3.5452,-3.5971,-3.6372,-3.6184,-3.5954,-3.5496,-3.5248,-3.5207,-3.5226,-3.5207,-3.519,-3.5362,-3.542,-3.5267,-3.5649,-3.6604,-3.7082,-3.7196,-1.5856,-1.6472,-1.6968,-1.7589,-1.8267,-1.8762,-1.8987,-1.8987,-1.9052,-1.9198,-1.9577,-2.0118,-2.0864,-2.1636,-2.2495,-2.2933,-2.3112,-2.3246,-2.3363,-2.3538,-2.3566,-2.3638,-2.3681,-2.3681,-2.4021,-2.4379,-2.4436,-2.4799,-2.5307,-2.5684,-2.5977,-2.6191,-2.6401,-2.6505,-2.621,-2.6175,-2.5964,-2.5726,-2.5689,-2.5872,-2.6193,-2.6607,-2.6842,-2.6943,-2.701,-2.7108,-2.7169,-2.725,-2.7299,-2.7299,-2.7299,-2.7299,-2.7299,-2.7299,-2.7299,-2.7376,-2.763,-2.7897,-2.8201,-2.8507,-2.8791,-2.8947,-2.8975,-2.8975,-2.8975,-2.8975,-2.8975,-2.8975,-2.9159,-2.925,-2.9384,-2.9347,-2.9347,-2.9439,-2.9475,-2.9677,-3.0165,-3.0623,-3.0959,-3.1236,-3.1677,-3.275,-3.3618,-3.3083,-3.2673,-3.3524,-3.4149,-3.4169,-3.4353,-3.4628,-3.4808,-3.4863,-3.4821,-3.507,-3.4818,-3.4863,-3.4748,-3.4882,-3.5324,-3.5783,-3.5687,-3.5496,-3.5608,-3.5398,-3.528,-3.52,-3.5258,-3.5223,-3.519,-3.5305,-3.5455,-3.584,-3.6394,-3.67,-3.7101,-1.5748,-1.6358,-1.6968,-1.7534,-1.8147,-1.8762,-1.8987,-1.8987,-1.9064,-1.9223,-1.9497,-2.0065,-2.0891,-2.1746,-2.237,-2.2692,-2.3023,-2.3187,-2.3363,-2.3494,-2.3566,-2.3595,-2.3595,-2.3595,-2.3809,-2.3937,-2.4036,-2.4162,-2.4623,-2.5214,-2.5631,-2.5762,-2.5944,-2.5944,-2.5762,-2.5762,-2.5689,-2.5615,-2.5726,-2.5908,-2.6175,-2.6521,-2.6825,-2.6876,-2.7009,-2.704,-2.712,-2.725,-2.7299,-2.7299,-2.7299,-2.7299,-2.7299,-2.7299,-2.7299,-2.733,-2.739,-2.7672,-2.8075,-2.8386,-2.8676,-2.8905,-2.8994,-2.8975,-2.8975,-2.8975,-2.8975,-2.8975,-2.8975,-2.8975,-2.8975,-2.8975,-2.8975,-2.8975,-2.8975,-2.9163,-2.9549,-2.9861,-3.0215,-3.0448,-3.0748,-3.1681,-3.246,-3.2191,-3.2115,-3.3043,-3.375,-3.4037,-3.4413,-3.488,-3.5043,-3.5114,-3.5037,-3.5018,-3.4538,-3.4216,-3.3834,-3.391,-3.4366,-3.4789,-3.5095,-3.5133,-3.5245,-3.5047,-3.4657,-3.4753,-3.5136,-3.5273,-3.5258,-3.5506,-3.5793,-3.6217,-3.6676,-3.7177,-3.7655,-1.569,-1.614,-1.6698,-1.7313,-1.7929,-1.8548,-1.8881,-1.9052,-1.9076,-1.9235,-1.951,-2.0079,-2.0964,-2.1664,-2.1935,-2.2263,-2.2843,-2.3053,-2.3275,-2.3392,-2.3523,-2.3595,-2.3595,-2.3595,-2.3638,-2.3638,-2.3839,-2.3967,-2.4219,-2.4695,-2.5153,-2.5351,-2.5524,-2.5465,-2.5389,-2.5351,-2.5275,-2.5121,-2.5615,-2.5872,-2.6016,-2.647,-2.6759,-2.6909,-2.6975,-2.7072,-2.7169,-2.725,-2.7299,-2.7299,-2.7299,-2.7299,-2.7299,-2.7299,-2.7299,-2.7299,-2.7345,-2.7522,-2.7908,-2.8246,-2.8601,-2.8834,-2.8994,-2.8975,-2.8975,-2.8975,-2.8975,-2.8975,-2.8975,-2.8975,-2.8975,-2.8975,-2.8975,-2.8975,-2.8975,-2.8975,-2.903,-2.942,-2.9622,-2.9732,-2.9934,-3.0118,-3.0725,-3.0942,-3.1467,-3.2518,-3.3214,-3.3733,-3.4262,-3.475,-3.4878,-3.4909,-3.5076,-3.4827,-3.4101,-3.3624,-3.3184,-3.3127,-3.3566,-3.4155,-3.4674,-3.4863,-3.4932,-3.46,-3.4304,-3.4568,-3.5105,-3.5205,-3.5339,-3.5492,-3.578,-3.6492,-3.7051,-3.7553,-3.8091,-1.541,-1.5526,-1.613,-1.6698,-1.7313,-1.7918,-1.8483,-1.8934,-1.8987,-1.9093,-1.9316,-1.999,-2.0485,-2.0858,-2.1334,-2.1732,-2.2263,-2.248,-2.2844,-2.3201,-2.3465,-2.3595,-2.3595,-2.3595,-2.3653,-2.3739,-2.3797,-2.3882,-2.4024,-2.4234,-2.4614,-2.4902,-2.516,-2.5176,-2.5059,-2.4942,-2.4799,-2.4759,-2.5214,-2.5577,-2.5835,-2.6297,-2.6825,-2.6942,-2.7057,-2.7154,-2.725,-2.7299,-2.7299,-2.7299,-2.7299,-2.7299,-2.7299,-2.7299,-2.7299,-2.7299,-2.7299,-2.7448,-2.7707,-2.7974,-2.8308,-2.8601,-2.8834,-2.8975,-2.8975,-2.8975,-2.8975,-2.8975,-2.8975,-2.8975,-2.8975,-2.8975,-2.8975,-2.8975,-2.8975,-2.8975,-2.8975,-2.9012,-2.92,-2.9127,-2.9255,-2.9531,-2.9586,-2.9941,-3.0554,-3.1529,-3.2366,-3.2893,-3.3601,-3.4073,-3.4333,-3.4535,-3.489,-3.4579,-3.3662,-3.3165,-3.284,-3.2898,-3.3257,-3.3964,-3.4671,-3.476,-3.4875,-3.4825,-3.4706,-3.487,-3.5014,-3.523,-3.5383,-3.5417,-3.5729,-3.6366,-3.714,-3.7775,-3.8314,-1.542,-1.542,-1.5633,-1.6083,-1.6698,-1.7313,-1.7875,-1.8405,-1.846,-1.8826,-1.9368,-1.9759,-2.0156,-2.0547,-2.0795,-2.1188,-2.1718,-2.2175,-2.2512,-2.2889,-2.3246,-2.3508,-2.3551,-2.3595,-2.3638,-2.3696,-2.3754,-2.3839,-2.3882,-2.4067,-2.425,-2.4508,-2.4719,-2.4655,-2.4574,-2.4574,-2.4467,-2.4533,-2.4823,-2.5198,-2.5615,-2.6033,-2.6572,-2.6909,-2.7006,-2.707,-2.7184,-2.725,-2.7299,-2.7299,-2.7299,-2.7299,-2.7299,-2.7299,-2.7299,-2.7299,-2.7299,-2.7359,-2.7491,-2.7725,-2.8065,-2.8551,-2.8834,-2.8975,-2.8975,-2.8975,-2.8975,-2.8975,-2.8975,-2.8975,-2.8975,-2.8975,-2.8975,-2.8975,-2.8975,-2.8975,-2.8975,-2.8975,-2.8994,-2.903,-2.9012,-2.9145,-2.9127,-2.9108,-2.9769,-3.0515,-3.1302,-3.2083,-3.2784,-3.3204,-3.3373,-3.3631,-3.3949,-3.3633,-3.2714,-3.2539,-3.2516,-3.2726,-3.297,-3.3674,-3.4439,-3.4977,-3.507,-3.5059,-3.5028,-3.5072,-3.5163,-3.535,-3.5427,-3.5427,-3.5676,-3.6123,-3.6957,-3.7808,-3.8249,-1.542,-1.542,-1.542,-1.5748,-1.6312,-1.6754,-1.7368,-1.7993,-1.81,-1.8572,-1.9408,-1.9512,-1.9811,-2.0258,-2.0359,-2.0646,-2.1126,-2.1609,-2.2002,-2.242,-2.2904,-2.3246,-2.3421,-2.3508,-2.3595,-2.361,-2.3696,-2.3739,-2.3739,-2.3982,-2.4067,-2.4151,-2.425,-2.4317,-2.4343,-2.4302,-2.4302,-2.4385,-2.4679,-2.4981,-2.5351,-2.5835,-2.6262,-2.6691,-2.6842,-2.7021,-2.7103,-2.7184,-2.725,-2.7299,-2.7299,-2.7299,-2.7299,-2.7299,-2.7299,-2.7299,-2.7299,-2.7299,-2.7376,-2.7652,-2.8035,-2.8543,-2.8858,-2.8952,-2.8975,-2.8975,-2.8975,-2.8975,-2.8975,-2.8975,-2.8975,-2.8975,-2.8975,-2.8975,-2.8975,-2.8975,-2.8975,-2.8975,-2.8975,-2.8994,-2.8975,-2.8975,-2.8975,-2.9012,-2.9512,-3.0099,-3.0581,-3.1347,-3.2054,-3.2274,-3.2147,-3.2429,-3.2762,-3.2241,-3.1619,-3.2203,-3.2695,-3.263,-3.2913,-3.3368,-3.4037,-3.469,-3.5184,-3.5185,-3.5172,-3.5182,-3.5062,-3.4883,-3.5128,-3.5435,-3.5801,-3.6229,-3.6407,-3.7198,-3.7644,-1.541,-1.542,-1.541,-1.5748,-1.6187,-1.6312,-1.6978,-1.7852,-1.807,-1.8572,-1.9319,-1.9408,-1.9565,-1.9811,-1.9901,-2.0194,-2.0547,-2.0845,-2.1237,-2.1874,-2.2388,-2.2754,-2.3068,-2.329,-2.3508,-2.3595,-2.3638,-2.3638,-2.3595,-2.3782,-2.3882,-2.4024,-2.4151,-2.4234,-2.4261,-2.4302,-2.4302,-2.4343,-2.4679,-2.4839,-2.5137,-2.5615,-2.6013,-2.6435,-2.6657,-2.6842,-2.7038,-2.7103,-2.7201,-2.725,-2.7282,-2.7299,-2.7299,-2.7299,-2.7299,-2.7299,-2.7299,-2.7299,-2.733,-2.7812,-2.8144,-2.85,-2.8767,-2.8975,-2.8975,-2.8975,-2.8975,-2.8975,-2.8975,-2.8975,-2.8975,-2.8975,-2.8975,-2.8975,-2.8975,-2.8975,-2.8975,-2.8975,-2.8975,-2.8975,-2.8975,-2.8975,-2.8975,-2.909,-2.942,-2.9806,-3.0081,-3.0591,-3.1188,-3.1264,-3.1049,-3.1148,-3.1467,-3.1293,-3.1113,-3.2327,-3.2851,-3.273,-3.2783,-3.3146,-3.3884,-3.476,-3.5117,-3.5234,-3.5172,-3.5057,-3.4658,-3.4257,-3.4814,-3.5449,-3.6007,-3.6378,-3.6416,-3.6459,-3.6848,-1.5196,-1.5254,-1.5196,-1.5362,-1.569,-1.569,-1.6187,-1.6968,-1.7752,-1.8573,-1.9162,-1.9356,-1.9512,-1.9656,-1.9747,-1.9901,-2.0105,-2.056,-2.0957,-2.1286,-2.186,-2.2434,-2.2799,-2.3068,-2.3334,-2.3508,-2.3595,-2.3595,-2.3595,-2.3696,-2.3782,-2.3925,-2.4109,-2.4234,-2.4276,-2.4302,-2.4302,-2.4317,-2.4467,-2.4614,-2.4902,-2.5214,-2.5631,-2.6208,-2.64,-2.664,-2.6908,-2.6973,-2.707,-2.7169,-2.7201,-2.7299,-2.7299,-2.7299,-2.7299,-2.7299,-2.7299,-2.7299,-2.739,-2.7647,-2.7943,-2.8308,-2.87,-2.8952,-2.8975,-2.8975,-2.8975,-2.8975,-2.8975,-2.8975,-2.8975,-2.8975,-2.8975,-2.8975,-2.8975,-2.8975,-2.8975,-2.8975,-2.8975,-2.8975,-2.8975,-2.8975,-2.8975,-2.8975,-2.9292,-2.9365,-2.9586,-2.9549,-2.9968,-3.0015,-2.9899,-2.9959,-3.0114,-3.0171,-3.0544,-3.1691,-3.2515,-3.253,-3.2507,-3.2673,-3.3557,-3.4671,-3.5078,-3.5224,-3.5051,-3.4894,-3.4817,-3.4795,-3.5026,-3.5507,-3.5911,-3.6084,-3.5974,-3.5844,-3.5835,-1.4843,-1.5098,-1.5088,-1.5147,-1.5313,-1.5313,-1.569,-1.6415,-1.7545,-1.8417,-1.8857,-1.9198,-1.946,-1.9617,-1.9759,-1.9798,-1.9862,-2.0169,-2.0472,-2.0795,-2.1348,-2.1813,-2.2235,-2.274,-2.3068,-2.3334,-2.3508,-2.3595,-2.3595,-2.3696,-2.3782,-2.3925,-2.4082,-2.4208,-2.4276,-2.4302,-2.4302,-2.4317,-2.4385,-2.441,-2.4639,-2.4902,-2.5198,-2.5615,-2.5941,-2.6173,-2.6487,-2.6725,-2.6891,-2.6973,-2.7137,-2.7299,-2.7299,-2.7299,-2.7299,-2.7299,-2.7299,-2.7299,-2.7359,-2.7552,-2.7851,-2.8129,-2.8583,-2.8863,-2.8952,-2.8975,-2.8975,-2.8975,-2.8975,-2.8975,-2.8975,-2.8975,-2.8975,-2.8975,-2.8975,-2.8975,-2.8975,-2.8975,-2.8975,-2.8975,-2.8975,-2.8975,-2.8975,-2.8975,-2.909,-2.9049,-2.9012,-2.8975,-2.8975,-2.9115,-2.9228,-2.931,-2.937,-2.9563,-3.0091,-3.1052,-3.1751,-3.2222,-3.2484,-3.2727,-3.3399,-3.4494,-3.4843,-3.5209,-3.5181,-3.5192,-3.535,-3.5468,-3.5411,-3.5411,-3.5565,-3.5622,-3.5493,-3.5446,-3.5398,-1.441,-1.4989,-1.5176,-1.5214,-1.5273,-1.535,-1.5742,-1.641,-1.7579,-1.8228,-1.8426,-1.9286,-1.9666,-1.9701,-1.9795,-1.9899,-1.9924,-2.0091,-2.0169,-2.0436,-2.099,-2.1331,-2.1759,-2.2296,-2.2603,-2.292,-2.3143,-2.3231,-2.3465,-2.3523,-2.3653,-2.394,-2.4124,-2.425,-2.4276,-2.4302,-2.4302,-2.4302,-2.4302,-2.4343,-2.4451,-2.4679,-2.4902,-2.516,-2.5389,-2.5631,-2.5924,-2.6243,-2.6436,-2.6674,-2.7023,-2.7201,-2.7282,-2.7299,-2.7299,-2.7299,-2.7299,-2.7299,-2.7345,-2.7522,-2.7754,-2.801,-2.8326,-2.8669,-2.8905,-2.8975,-2.8975,-2.8975,-2.8975,-2.8975,-2.8975,-2.8975,-2.8975,-2.8975,-2.8975,-2.8975,-2.8975,-2.8975,-2.8975,-2.8975,-2.8975,-2.8975,-2.8975,-2.8975,-2.8975,-2.8975,-2.8975,-2.8975,-2.8975,-2.8998,-2.9071,-2.9071,-2.9134,-2.9156,-2.9802,-3.0578,-3.1416,-3.2009,-3.2862,-3.3261,-3.3866,-3.4295,-3.4704,-3.5073,-3.53,-3.5417,-3.5446,-3.5474,-3.5488,-3.5507,-3.5507,-3.5507,-3.5493,-3.5412,-3.5383,-1.4282,-1.5163,-1.5111,-1.5515,-1.6019,-1.6224,-1.6486,-1.6877,-1.7715,-1.8396,-1.9183,-2.0005,-2.0251,-2.0594,-2.0333,-2.0307,-2.0401,-2.0469,-2.0321,-2.0528,-2.0822,-2.1173,-2.1448,-2.1746,-2.2049,-2.2267,-2.2498,-2.268,-2.268,-2.292,-2.3523,-2.3925,-2.4082,-2.4193,-2.4276,-2.4302,-2.4302,-2.4302,-2.4302,-2.4302,-2.4302,-2.4467,-2.4639,-2.4863,-2.4981,-2.5214,-2.5519,-2.5994,-2.6262,-2.647,-2.6891,-2.7184,-2.7299,-2.7299,-2.7299,-2.7299,-2.7299,-2.7299,-2.733,-2.7359,-2.7539,-2.7771,-2.7971,-2.8378,-2.8743,-2.8975,-2.8952,-2.8952,-2.8975,-2.8975,-2.8975,-2.8975,-2.8975,-2.8975,-2.8975,-2.8975,-2.8975,-2.8975,-2.8975,-2.8975,-2.8975,-2.8975,-2.8975,-2.8975,-2.8975,-2.8975,-2.8975,-2.8975,-2.8975,-2.8975,-2.8975,-2.8975,-2.8998,-2.9067,-2.9393,-3.0116,-3.101,-3.1853,-3.2695,-3.3537,-3.413,-3.4472,-3.4696,-3.4986,-3.5315,-3.5398,-3.5412,-3.5441,-3.5488,-3.5493,-3.5493,-3.5507,-3.5474,-3.5412,-3.5364,-1.3778,-1.479,-1.4909,-1.5308,-1.5904,-1.6325,-1.6614,-1.6972,-1.7564,-1.8344,-1.9171,-1.9784,-2.0427,-2.0834,-2.034,-2.0216,-2.0668,-2.0458,-2.0309,-2.0374,-2.0759,-2.0922,-2.1113,-2.1326,-2.1602,-2.1813,-2.1988,-2.2221,-2.2221,-2.2649,-2.3304,-2.3638,-2.3925,-2.4135,-2.4261,-2.4302,-2.4302,-2.4302,-2.4302,-2.4317,-2.4302,-2.4302,-2.4492,-2.4614,-2.4679,-2.4863,-2.5098,-2.5647,-2.5977,-2.6227,-2.6657,-2.7087,-2.725,-2.7299,-2.7299,-2.7299,-2.7299,-2.7299,-2.7299,-2.7299,-2.7483,-2.763,-2.7701,-2.8055,-2.8456,-2.8791,-2.8815,-2.8839,-2.8929,-2.8975,-2.8975,-2.8975,-2.8975,-2.8975,-2.8975,-2.8975,-2.8975,-2.8975,-2.8975,-2.8975,-2.8975,-2.8975,-2.8975,-2.8975,-2.8975,-2.8975,-2.8975,-2.8975,-2.8975,-2.8975,-2.8975,-2.8975,-2.8975,-2.9017,-2.9402,-2.9751,-3.0517,-3.1455,-3.2467,-3.3296,-3.4105,-3.4623,-3.4793,-3.5081,-3.5383,-3.5432,-3.5427,-3.546,-3.5507,-3.5493,-3.5493,-3.546,-3.5446,-3.5412,-3.5364,-1.3054,-1.4104,-1.4526,-1.5027,-1.5436,-1.6004,-1.6406,-1.6811,-1.7326,-1.8008,-1.8802,-1.909,-2.0082,-2.088,-2.0439,-2.0345,-2.0567,-2.0524,-2.0386,-2.0258,-2.0707,-2.0908,-2.0914,-2.1144,-2.1229,-2.1458,-2.1636,-2.1766,-2.2128,-2.2466,-2.283,-2.3172,-2.3445,-2.3815,-2.4245,-2.4219,-2.4234,-2.4317,-2.4425,-2.4502,-2.4348,-2.4302,-2.4302,-2.4302,-2.4343,-2.4426,-2.4574,-2.4997,-2.5519,-2.5908,-2.6419,-2.694,-2.7186,-2.7299,-2.7299,-2.7299,-2.7299,-2.7299,-2.7299,-2.7299,-2.7421,-2.7539,-2.7654,-2.7771,-2.8083,-2.8507,-2.8583,-2.8743,-2.8858,-2.8952,-2.8975,-2.8975,-2.8975,-2.8975,-2.8975,-2.8975,-2.8975,-2.8975,-2.8975,-2.8975,-2.8975,-2.8975,-2.8975,-2.8975,-2.8975,-2.8975,-2.8975,-2.8975,-2.8975,-2.8975,-2.8975,-2.8975,-2.8975,-2.9012,-2.9232,-2.9604,-3.0068,-3.0964,-3.2048,-3.2809,-3.3471,-3.4179,-3.4889,-3.5157,-3.5417,-3.5446,-3.546,-3.5474,-3.5493,-3.5493,-3.546,-3.5412,-3.5398,-3.5398,-3.5412,-1.259,-1.3451,-1.4464,-1.5496,-1.6417,-1.6408,-1.6679,-1.7178,-1.6983,-1.7976,-1.9561,-2.0118,-2.0701,-2.1287,-2.0791,-2.0652,-2.0747,-2.0665,-2.0565,-2.0617,-2.0823,-2.0871,-2.0714,-2.0848,-2.0898,-2.0898,-2.1033,-2.1361,-2.1684,-2.2016,-2.2483,-2.3113,-2.3122,-2.3143,-2.4105,-2.4021,-2.4002,-2.4219,-2.461,-2.4594,-2.4348,-2.4302,-2.4302,-2.4317,-2.4317,-2.4431,-2.462,-2.4934,-2.5384,-2.5779,-2.6367,-2.6892,-2.725,-2.7299,-2.7299,-2.7299,-2.7299,-2.7299,-2.7299,-2.7299,-2.7376,-2.7376,-2.7421,-2.7452,-2.7659,-2.8065,-2.8386,-2.8601,-2.881,-2.8929,-2.8975,-2.8975,-2.8975,-2.8975,-2.8975,-2.8975,-2.8975,-2.8975,-2.8975,-2.8975,-2.8975,-2.8975,-2.8975,-2.8975,-2.8975,-2.8975,-2.8975,-2.8975,-2.8975,-2.8975,-2.8975,-2.8975,-2.8975,-2.9049,-2.9195,-2.9384,-2.9793,-3.057,-3.1629,-3.2292,-3.2919,-3.3877,-3.4812,-3.5157,-3.5417,-3.5417,-3.5432,-3.5493,-3.5493,-3.5493,-3.5446,-3.5383,-3.5364,-3.5364,-3.5412,-1.2089,-1.2811,-1.4081,-1.5242,-1.6031,-1.6344,-1.6738,-1.7051,-1.7031,-1.795,-1.9339,-1.9441,-2.0021,-2.1152,-2.0682,-2.0804,-2.0882,-2.0741,-2.0501,-2.054,-2.0784,-2.0794,-2.074,-2.0699,-2.0749,-2.0699,-2.0712,-2.0947,-2.1331,-2.1616,-2.2128,-2.2624,-2.2265,-2.2494,-2.3543,-2.3571,-2.3667,-2.3952,-2.4591,-2.4656,-2.4379,-2.4502,-2.4502,-2.4487,-2.4533,-2.4616,-2.4554,-2.4815,-2.5153,-2.5668,-2.6332,-2.6725,-2.7055,-2.7218,-2.7299,-2.7299,-2.7299,-2.7299,-2.7299,-2.7299,-2.7299,-2.7299,-2.7299,-2.7376,-2.7376,-2.776,-2.7982,-2.8246,-2.8791,-2.8975,-2.8975,-2.8975,-2.8975,-2.8975,-2.8975,-2.8975,-2.8975,-2.8975,-2.8975,-2.8975,-2.8975,-2.8975,-2.8975,-2.8975,-2.8975,-2.8975,-2.8975,-2.8975,-2.8975,-2.8975,-2.8975,-2.8975,-2.8975,-2.8975,-2.9049,-2.9219,-2.9439,-3.0312,-3.1164,-3.2317,-3.3239,-3.3997,-3.4711,-3.5054,-3.5273,-3.5339,-3.5369,-3.5446,-3.546,-3.5427,-3.5398,-3.5354,-3.5335,-3.5335,-3.533,-1.1688,-1.2318,-1.3508,-1.4471,-1.5074,-1.5898,-1.6437,-1.6646,-1.7021,-1.767,-1.8291,-1.7501,-1.8907,-1.9918,-1.9915,-2.0421,-2.0715,-2.0701,-2.045,-2.0411,-2.0718,-2.0806,-2.0804,-2.0699,-2.0699,-2.0712,-2.0712,-2.093,-2.1223,-2.1375,-2.1511,-2.1774,-2.1863,-2.1989,-2.2527,-2.2872,-2.3073,-2.361,-2.4097,-2.4399,-2.461,-2.4825,-2.4656,-2.4671,-2.4779,-2.4825,-2.457,-2.4589,-2.4934,-2.5443,-2.6139,-2.6573,-2.6858,-2.7055,-2.7218,-2.725,-2.7299,-2.7299,-2.7299,-2.7299,-2.7299,-2.7299,-2.7299,-2.7299,-2.733,-2.7421,-2.7689,-2.8055,-2.8601,-2.8905,-2.8905,-2.8839,-2.8839,-2.8863,-2.8863,-2.891,-2.8929,-2.8952,-2.8975,-2.8975,-2.8975,-2.8975,-2.8975,-2.8975,-2.8975,-2.8975,-2.8975,-2.8975,-2.8975,-2.8975,-2.8975,-2.8975,-2.8975,-2.8975,-2.8975,-2.909,-2.9255,-2.9646,-3.0557,-3.2175,-3.3449,-3.3794,-3.4282,-3.4889,-3.5089,-3.5155,-3.5304,-3.5417,-3.5398,-3.5412,-3.5364,-3.5335,-3.532,-3.53,-3.5266,-1.1598,-1.2342,-1.2684,-1.3606,-1.4941,-1.5303,-1.5696,-1.6169,-1.6299,-1.6491,-1.6705,-1.6678,-1.7631,-2.0138,-1.9908,-2.0055,-2.0141,-2.0401,-2.0605,-2.0539,-2.0861,-2.0897,-2.0817,-2.0699,-2.0699,-2.0686,-2.0838,-2.1212,-2.1023,-2.0873,-2.1236,-2.2038,-2.0257,-2.0541,-2.1715,-2.217,-2.2817,-2.3468,-2.4326,-2.4841,-2.4425,-2.4502,-2.4425,-2.441,-2.441,-2.4477,-2.4564,-2.4806,-2.5029,-2.5416,-2.5848,-2.6332,-2.6657,-2.6858,-2.7055,-2.7201,-2.7267,-2.7299,-2.7299,-2.7299,-2.7299,-2.7299,-2.7299,-2.7299,-2.7299,-2.733,-2.7587,-2.7829,-2.8281,-2.8576,-2.8576,-2.8334,-2.8281,-2.8394,-2.8428,-2.8565,-2.8633,-2.8815,-2.8952,-2.8975,-2.8975,-2.8975,-2.8975,-2.8975,-2.8975,-2.8975,-2.8975,-2.8975,-2.8975,-2.8975,-2.8975,-2.8975,-2.8975,-2.8975,-2.8975,-2.8975,-2.9145,-2.9407,-3.0023,-3.1671,-3.2778,-3.316,-3.3717,-3.4584,-3.4888,-3.4942,-3.5117,-3.5369,-3.5412,-3.5412,-3.535,-3.53,-3.532,-3.5304,-3.5285]}]]